[[{"header":{"parameterUnit":"m.s-1","parameterCategory":1,"la1":31.0,"la2":29.5877,"lo1":-88.7671,"lo2":-86.6584,"dy":0.0162,"dx":0.0185,"nx":115,"ny":88,"refTime":"2024-08-22T12:00:00:Z","depth":0,"parameterNumber":2,"parameterNumberName":"U-component_of_WINDS"},"data":[0.0,0.0,0.0,0.0,0.0,0.0,0.0,0.0,0.0,0.0,0.0,0.0,0.0,0.0,0.0,0.0,0.0,0.0,0.0,0.0,0.0,0.0,0.0,0.0,0.0,0.0,0.0,0.0,0.0,0.0,0.0,0.0,0.0,0.0,0.0,0.0,0.0,0.0,0.0,0.0,0.0,0.0,0.0,0.0,0.0,0.0,0.0,0.0,0.0,0.0,0.0,0.0,0.0,0.0,0.0,0.0,0.0,0.0,0.0,0.0,0.0,0.0,0.0,0.0,0.0,0.0,0.0,0.0,0.0,0.0,0.0,0.0,0.0,0.0,0.0,0.0,0.0,0.0,0.0,0.0,0.0,0.0,0.0,0.0,0.0,0.0,0.0,0.0,0.0,0.0,0.0,0.0,0.0,0.0,0.0,0.0,0.0,0.0,0.0,0.0,0.0,0.0,0.0,0.0,0.0,0.0,0.0,0.0,0.0,0.0,0.0,0.0,0.0,0.0,0.0,0.0,0.0,0.0,0.0,0.0,0.0,0.0,0.0,0.0,0.0,0.0,0.0,0.0,0.0,0.0,0.0,0.0,0.0,0.0,0.0,0.0,0.0,0.0,0.0,0.0,0.0,0.0,0.0,0.0,0.0,0.0,0.0,0.0,0.0,0.0,0.0,0.0,0.0,0.0,0.0,0.0,0.0,0.0,0.0,0.0,0.0,0.0,0.0,0.0,0.0,0.0,0.0,0.0,0.0,0.0,0.0,0.0,0.0,0.0,0.0,0.0,0.0,0.0,0.0,0.0,0.0,0.0,0.0,0.0,0.0,0.0,0.0,0.0,0.0,0.0,0.0,0.0,0.0,0.0,0.0,0.0,0.0,0.0,0.0,0.0,0.0,0.0,0.0,0.0,0.0,0.0,0.0,0.0,0.0,0.0,0.0,0.0,0.0,0.0,0.0,0.0,0.0,0.0,0.0,0.0,0.0,0.0,0.0,0.0,0.0,0.0,0.0,0.0,0.0,0.0,0.0,0.0,0.0,0.0,0.0,0.0,0.0,0.0,0.0,0.0,0.0,0.0,0.0,0.0,0.0,0.0,0.0,0.0,0.0,0.0,0.0,0.0,0.0,0.0,0.0,0.0,0.0,0.0,0.0,0.0,0.0,0.0,0.0,0.0,0.0,0.0,0.0,0.0,0.0,0.0,0.0,0.0,0.0,0.0,0.0,0.0,0.0,0.0,0.0,0.0,0.0,0.0,0.0,0.0,0.0,0.0,0.0,0.0,0.0,0.0,0.0,0.0,0.0,0.0,0.0,0.0,0.0,0.0,0.0,0.0,0.0,0.0,0.0,0.0,0.0,0.0,0.0,0.0,0.0,0.0,0.0,0.0,0.0,0.0,0.0,0.0,0.0,0.0,0.0,0.0,0.0,0.0,0.0,0.0,0.0,0.0,0.0,0.0,0.0,0.0,0.0,0.0,0.0,0.0,0.0,0.0,0.0,0.0,0.0,0.0,0.0,0.0,0.0,0.0,0.0,0.0,0.0,0.0,0.0,0.0,0.0,0.0,0.0,0.0,0.0,0.0,0.0,0.0,0.0,0.0,0.0,0.0,0.0,0.0,0.0,0.0,0.0,0.0,0.0,0.0,0.0,0.0,0.0,0.0,0.0,0.0,0.0,0.0,0.0,0.0,0.0,0.0,0.0,0.0,0.0,0.0,0.0,0.0,0.0,0.0,0.0,0.0,0.0,0.0,0.0,0.0,0.0,0.0,0.0,0.0,0.0,0.0,0.0,0.0,0.0,0.0,0.0,0.0,0.0,0.0,0.0,0.0,0.0,0.0,0.0,0.0,0.0,0.0,0.0,0.0,0.0,0.0,0.0,0.0,0.0,0.0,0.0,0.0,0.0,0.0,0.0,0.0,0.0,0.0,0.0,0.0,0.0,0.0,0.0,0.0,0.0,0.0,0.0,0.0,0.0,0.0,0.0,0.0,0.0,0.0,0.0,0.0,0.0,0.0,0.0,0.0,0.0,0.0,0.0,0.0,0.0,0.0,0.0,0.0,0.0,0.0,0.0,0.0,0.0,0.0,0.0,0.0,0.0,0.0,0.0,0.0,0.0,0.0,0.0,0.0,0.0,0.0,0.0,0.0,0.0,0.0,0.0,0.0,0.0,0.0,0.0,0.0,0.0,0.0,0.0,0.0,0.0,0.0,0.0,0.0,0.0,0.0,0.0,0.0,0.0,0.0,0.0,0.0,0.0,0.0,0.0,0.0,0.0,0.0,0.0,0.0,0.0,0.0,0.0,0.0,0.0,0.0,0.0,0.0,0.0,0.0,0.0,0.0,0.0,0.0,0.0,0.0,0.0,0.0,0.0,0.0,0.0,0.0,0.0,0.0,0.0,0.0,0.0,0.0,0.0,0.0,0.0,0.0,0.0,0.0,0.0,0.0,0.0,0.0,0.0,0.0,0.0,0.0,0.0,0.0,0.0,0.0,0.0,0.0,0.0,0.0,0.0,0.0,0.0,0.0,0.0,0.0,0.0,0.0,0.0,0.0,0.0,0.0,0.0,0.0,0.0,0.0,0.0,0.0,0.0,0.0,0.0,0.0,0.0,0.0,0.0,0.0,0.0,0.0,0.0,0.0,0.0,0.0,0.0,0.0,0.0,0.0,0.0,0.0,0.0,0.0,0.0,0.0,0.0,0.0,0.0,0.0,0.0,0.0,0.0,0.0,0.0,0.0,0.0,0.0,0.0,0.0,0.0,0.0,0.0,0.0,0.0,0.0,0.0,0.0,0.0,0.0,0.0,0.0,0.0,0.0,0.0,0.0,0.0,0.0,0.0,0.0,0.0,0.0,0.0,0.0,0.0,0.0,0.0,0.0,0.0,0.0,0.0,0.0,0.0,0.0,0.0,0.0,0.0,0.0,0.0,0.0,0.0,0.0,0.0,0.0,0.0,0.0,0.0,0.0,0.0,0.0,0.0,0.0,0.0,0.0,0.0,0.0,0.0,0.0,0.0,0.0,0.0,0.0,0.0,0.0,0.0,0.0,0.0,0.0,0.0,0.0,0.0,0.0,0.0,0.0,0.0,0.0,0.0,0.0,0.0,0.0,0.0,0.0,0.0,0.0,0.0,0.0,0.0,0.0,0.0,0.0,0.0,0.0,0.0,0.0,0.0,0.0,0.0,0.0,0.0,0.0,0.0,0.0,0.0,0.0,0.0,0.0,0.0,0.0,0.0,0.0,0.0,0.0,0.0,0.0,0.0,0.0,0.0,0.0,0.0,0.0,0.0,0.0,0.0,0.0,0.0,0.0,0.0,0.0,0.0,0.0,0.0,0.0,0.0,0.0,0.0,0.0,0.0,0.0,0.0,0.0,0.0,0.0,0.0,0.0,0.0,0.0,0.0,0.0,0.0,0.0,0.0,0.0,0.0,0.0,0.0,0.0,0.0,0.0,0.0,0.0,0.0,0.0,0.0,0.0,0.0,0.0,0.0,0.0,0.0,0.0,0.0,0.0,0.0,0.0,0.0,0.0,0.0,0.0,0.0,0.0,0.0,0.0,0.0,0.0,0.0,0.0,0.0,0.0,0.0,0.0,0.0,0.0,0.0,0.0,0.0,0.0,0.0,0.0,0.0,0.0,0.0,0.0,0.0,0.0,0.0,0.0,0.0,0.0,0.0,0.0,0.0,0.0,0.0,0.0,0.0,0.0,0.0,0.0,0.0,0.0,0.0,0.0,0.0,0.0,0.0,0.0,0.0,0.0,0.0,0.0,0.0,0.0,0.0,0.0,0.0,0.0,0.0,0.0,0.0,0.0,0.0,0.0,0.0,0.0,0.0,0.0,0.0,0.0,0.0,0.0,0.0,0.0,0.0,0.0,0.0,0.0,0.0,0.0,0.0,0.0,0.0,0.0,0.0,0.0,0.0,0.0,0.0,0.0,0.0,0.0,0.0,0.0,0.0,0.0,0.0,0.0,0.0,0.0,0.0,0.0,0.0,0.0,0.0,0.0,0.0,0.0,0.0,0.0,0.0,0.0,0.0,0.0,0.0,0.0,0.0,0.0,0.0,0.0,0.0,0.0,0.0,0.0,0.0,0.0,0.0,0.0,0.0,0.0,0.0,0.0,0.0,0.0,0.0,0.0,0.0,0.0,0.0,0.0,0.0,0.0,0.0,0.0,0.0,0.0,0.0,0.0,0.0,0.0,0.0,0.0,0.0,0.0,0.0,0.0,0.0,0.0,0.0,0.0,0.0,0.0,0.0,0.0,0.0,0.0,-2.6368,0.0,0.0,0.0,0.0,0.0,0.0,0.0,0.0,0.0,0.0,0.0,0.0,0.0,0.0,0.0,0.0,0.0,0.0,0.0,0.0,0.0,0.0,0.0,0.0,0.0,0.0,0.0,0.0,0.0,0.0,0.0,0.0,0.0,0.0,0.0,0.0,0.0,0.0,0.0,0.0,0.0,0.0,0.0,0.0,0.0,0.0,0.0,0.0,0.0,0.0,0.0,0.0,0.0,0.0,0.0,0.0,0.0,0.0,0.0,0.0,0.0,0.0,0.0,0.0,0.0,0.0,0.0,0.0,0.0,0.0,0.0,0.0,0.0,0.0,0.0,0.0,0.0,0.0,0.0,0.0,0.0,0.0,0.0,0.0,0.0,0.0,0.0,0.0,0.0,0.0,0.0,0.0,0.0,0.0,0.0,0.0,0.0,0.0,0.0,0.0,0.0,0.0,0.0,0.0,0.0,0.0,0.0,0.0,0.0,0.0,-3.0354,-3.0354,-2.9515,-2.8491,-2.7281,0.0,0.0,0.0,0.0,0.0,0.0,0.0,0.0,0.0,0.0,0.0,0.0,0.0,0.0,0.0,0.0,0.0,0.0,0.0,0.0,0.0,0.0,0.0,0.0,0.0,0.0,0.0,0.0,0.0,0.0,0.0,0.0,0.0,0.0,0.0,0.0,0.0,0.0,0.0,0.0,0.0,0.0,0.0,0.0,0.0,0.0,0.0,0.0,0.0,0.0,0.0,0.0,0.0,0.0,0.0,0.0,0.0,0.0,0.0,0.0,0.0,0.0,0.0,0.0,0.0,0.0,0.0,0.0,0.0,0.0,0.0,0.0,0.0,0.0,0.0,0.0,0.0,0.0,0.0,0.0,0.0,0.0,0.0,0.0,0.0,0.0,0.0,0.0,0.0,0.0,0.0,0.0,0.0,0.0,0.0,0.0,0.0,0.0,0.0,0.0,0.0,0.0,0.0,0.0,0.0,0.0,0.0,0.0,0.0,0.0,0.0,0.0,-3.0059,-2.9052,-2.7622,0.0,0.0,0.0,0.0,0.0,0.0,0.0,0.0,0.0,0.0,0.0,0.0,0.0,0.0,0.0,0.0,0.0,0.0,0.0,0.0,0.0,0.0,0.0,0.0,0.0,0.0,0.0,0.0,0.0,0.0,0.0,0.0,0.0,0.0,0.0,0.0,0.0,0.0,0.0,0.0,0.0,0.0,0.0,0.0,0.0,0.0,0.0,0.0,0.0,0.0,0.0,0.0,0.0,0.0,0.0,0.0,0.0,0.0,0.0,0.0,0.0,0.0,0.0,0.0,0.0,0.0,0.0,0.0,0.0,0.0,0.0,0.0,0.0,0.0,0.0,0.0,0.0,0.0,0.0,0.0,0.0,0.0,0.0,0.0,0.0,0.0,0.0,0.0,0.0,0.0,0.0,0.0,0.0,0.0,0.0,0.0,0.0,0.0,0.0,0.0,0.0,0.0,0.0,0.0,0.0,0.0,0.0,0.0,0.0,0.0,-3.1675,-3.1675,-3.1579,0.0,-2.6983,0.0,0.0,0.0,0.0,0.0,0.0,0.0,0.0,0.0,0.0,0.0,0.0,0.0,0.0,0.0,0.0,0.0,0.0,0.0,0.0,0.0,0.0,0.0,0.0,0.0,0.0,0.0,0.0,0.0,0.0,0.0,0.0,0.0,0.0,0.0,0.0,0.0,0.0,0.0,0.0,0.0,0.0,0.0,0.0,0.0,0.0,0.0,0.0,0.0,0.0,0.0,0.0,0.0,0.0,0.0,0.0,0.0,0.0,0.0,0.0,0.0,0.0,0.0,0.0,0.0,0.0,0.0,0.0,0.0,0.0,0.0,0.0,0.0,0.0,0.0,0.0,0.0,0.0,0.0,0.0,0.0,0.0,0.0,0.0,0.0,0.0,0.0,0.0,0.0,0.0,0.0,0.0,0.0,0.0,0.0,0.0,0.0,0.0,0.0,0.0,0.0,0.0,0.0,0.0,0.0,0.0,0.0,0.0,0.0,0.0,0.0,-3.1869,-3.1357,-2.9699,0.0,0.0,0.0,0.0,0.0,0.0,0.0,0.0,0.0,0.0,0.0,0.0,0.0,0.0,0.0,0.0,0.0,0.0,0.0,0.0,0.0,0.0,0.0,0.0,0.0,0.0,0.0,0.0,0.0,0.0,0.0,0.0,0.0,0.0,0.0,0.0,0.0,0.0,0.0,0.0,0.0,0.0,0.0,0.0,0.0,0.0,0.0,0.0,0.0,0.0,0.0,0.0,0.0,0.0,0.0,0.0,0.0,0.0,0.0,0.0,0.0,0.0,0.0,0.0,0.0,0.0,0.0,0.0,0.0,0.0,0.0,0.0,0.0,0.0,0.0,0.0,0.0,0.0,0.0,0.0,0.0,0.0,0.0,0.0,0.0,0.0,0.0,0.0,0.0,0.0,0.0,0.0,0.0,0.0,0.0,0.0,0.0,0.0,0.0,0.0,0.0,0.0,0.0,0.0,0.0,0.0,0.0,0.0,0.0,0.0,-3.1163,0.0,-3.2221,-3.1631,-2.9991,-2.7163,0.0,0.0,0.0,0.0,0.0,0.0,0.0,0.0,0.0,0.0,0.0,0.0,0.0,0.0,0.0,0.0,0.0,0.0,0.0,0.0,0.0,0.0,0.0,0.0,0.0,0.0,0.0,0.0,0.0,0.0,0.0,0.0,0.0,0.0,0.0,0.0,0.0,0.0,0.0,0.0,0.0,0.0,0.0,0.0,0.0,0.0,0.0,0.0,0.0,0.0,0.0,0.0,0.0,0.0,0.0,0.0,0.0,0.0,0.0,0.0,0.0,0.0,0.0,0.0,0.0,0.0,0.0,0.0,0.0,0.0,0.0,0.0,0.0,0.0,0.0,0.0,0.0,0.0,0.0,0.0,0.0,0.0,0.0,0.0,0.0,0.0,0.0,0.0,0.0,0.0,0.0,0.0,0.0,0.0,0.0,0.0,0.0,0.0,0.0,0.0,0.0,0.0,0.0,0.0,0.0,0.0,0.0,0.0,0.0,-3.1809,-3.3141,-3.3121,-3.3083,-3.1503,0.0,0.0,0.0,0.0,0.0,0.0,0.0,0.0,0.0,0.0,0.0,0.0,0.0,0.0,0.0,0.0,0.0,0.0,0.0,0.0,0.0,0.0,0.0,0.0,0.0,0.0,0.0,0.0,0.0,0.0,0.0,0.0,0.0,0.0,0.0,0.0,0.0,0.0,0.0,0.0,0.0,0.0,0.0,0.0,0.0,0.0,0.0,0.0,0.0,0.0,0.0,0.0,0.0,0.0,0.0,0.0,0.0,0.0,0.0,0.0,0.0,0.0,0.0,0.0,0.0,0.0,0.0,0.0,0.0,0.0,0.0,0.0,0.0,0.0,0.0,0.0,0.0,0.0,0.0,0.0,0.0,0.0,0.0,0.0,0.0,0.0,0.0,0.0,0.0,0.0,0.0,0.0,0.0,0.0,0.0,0.0,0.0,0.0,0.0,0.0,0.0,0.0,0.0,0.0,0.0,0.0,0.0,0.0,0.0,-2.8595,-3.1637,-3.3264,0.0,-3.2725,-3.1059,0.0,0.0,0.0,0.0,0.0,0.0,0.0,0.0,0.0,0.0,0.0,0.0,0.0,0.0,0.0,0.0,0.0,0.0,0.0,0.0,0.0,0.0,0.0,0.0,0.0,0.0,0.0,0.0,0.0,0.0,0.0,0.0,0.0,0.0,0.0,0.0,0.0,0.0,0.0,0.0,0.0,0.0,0.0,0.0,0.0,0.0,0.0,0.0,0.0,0.0,0.0,0.0,0.0,0.0,0.0,0.0,0.0,0.0,0.0,0.0,0.0,0.0,0.0,0.0,0.0,0.0,0.0,0.0,0.0,0.0,0.0,0.0,0.0,0.0,0.0,0.0,0.0,0.0,0.0,0.0,0.0,0.0,0.0,0.0,0.0,0.0,0.0,0.0,0.0,0.0,0.0,0.0,0.0,0.0,0.0,0.0,0.0,0.0,0.0,0.0,0.0,0.0,0.0,0.0,0.0,0.0,0.0,0.0,0.0,-2.976,0.0,-3.3331,0.0,-3.2483,-3.0814,0.0,0.0,0.0,0.0,0.0,0.0,0.0,0.0,0.0,0.0,0.0,0.0,0.0,0.0,0.0,0.0,0.0,0.0,0.0,0.0,0.0,0.0,0.0,0.0,0.0,0.0,0.0,0.0,0.0,0.0,0.0,0.0,0.0,0.0,0.0,0.0,0.0,0.0,0.0,0.0,0.0,0.0,0.0,0.0,0.0,0.0,0.0,0.0,0.0,0.0,0.0,0.0,0.0,0.0,0.0,0.0,0.0,0.0,0.0,0.0,0.0,0.0,0.0,0.0,0.0,0.0,0.0,0.0,0.0,0.0,0.0,0.0,0.0,0.0,0.0,0.0,0.0,0.0,0.0,0.0,0.0,0.0,0.0,0.0,0.0,0.0,0.0,0.0,0.0,0.0,0.0,0.0,0.0,0.0,0.0,0.0,0.0,0.0,0.0,0.0,0.0,0.0,0.0,0.0,0.0,0.0,0.0,0.0,-2.8153,-3.3064,-3.3358,-3.3461,-3.3416,-3.2567,-3.0879,0.0,0.0,0.0,0.0,0.0,0.0,0.0,0.0,0.0,0.0,0.0,0.0,0.0,0.0,0.0,0.0,0.0,0.0,0.0,0.0,0.0,0.0,0.0,0.0,0.0,0.0,0.0,0.0,0.0,0.0,0.0,0.0,0.0,0.0,0.0,0.0,0.0,0.0,0.0,0.0,0.0,0.0,0.0,0.0,0.0,0.0,0.0,0.0,0.0,0.0,0.0,0.0,0.0,0.0,0.0,0.0,0.0,0.0,0.0,0.0,0.0,0.0,0.0,0.0,0.0,0.0,0.0,0.0,0.0,0.0,0.0,0.0,0.0,0.0,0.0,0.0,0.0,0.0,0.0,0.0,0.0,0.0,0.0,0.0,0.0,0.0,0.0,0.0,0.0,0.0,0.0,0.0,0.0,0.0,0.0,0.0,0.0,0.0,0.0,0.0,0.0,0.0,0.0,0.0,0.0,0.0,0.0,0.0,0.0,-3.2418,-3.3672,-3.43,-3.4246,-3.2857,-3.1153,0.0,0.0,0.0,0.0,0.0,0.0,0.0,0.0,0.0,0.0,0.0,0.0,0.0,0.0,0.0,0.0,0.0,0.0,0.0,0.0,0.0,0.0,0.0,0.0,0.0,0.0,0.0,0.0,0.0,0.0,0.0,0.0,0.0,0.0,0.0,0.0,0.0,0.0,0.0,0.0,0.0,0.0,0.0,0.0,0.0,0.0,0.0,0.0,0.0,0.0,0.0,0.0,0.0,0.0,0.0,0.0,0.0,0.0,0.0,0.0,0.0,0.0,0.0,0.0,0.0,0.0,0.0,0.0,0.0,0.0,0.0,0.0,0.0,0.0,0.0,0.0,0.0,0.0,0.0,0.0,0.0,0.0,0.0,0.0,0.0,0.0,0.0,0.0,0.0,0.0,0.0,0.0,0.0,0.0,0.0,0.0,0.0,0.0,0.0,0.0,0.0,0.0,0.0,0.0,0.0,0.0,0.0,0.0,0.0,-3.3021,-3.4137,-3.4708,-3.471,-3.301,-3.1306,-2.9558,0.0,0.0,0.0,0.0,0.0,0.0,0.0,0.0,0.0,0.0,0.0,0.0,0.0,0.0,0.0,0.0,0.0,0.0,0.0,0.0,0.0,0.0,0.0,0.0,0.0,0.0,0.0,0.0,0.0,0.0,0.0,0.0,0.0,0.0,0.0,0.0,0.0,0.0,0.0,0.0,0.0,0.0,0.0,0.0,0.0,0.0,0.0,0.0,0.0,0.0,0.0,0.0,0.0,0.0,0.0,0.0,0.0,0.0,0.0,0.0,0.0,0.0,0.0,0.0,0.0,0.0,0.0,0.0,0.0,0.0,0.0,0.0,0.0,0.0,0.0,0.0,0.0,0.0,0.0,0.0,0.0,0.0,0.0,0.0,0.0,0.0,0.0,0.0,0.0,0.0,0.0,0.0,0.0,0.0,0.0,0.0,0.0,0.0,0.0,0.0,0.0,0.0,0.0,0.0,0.0,0.0,0.0,0.0,-3.4734,-3.4832,-3.4874,-3.4861,-3.3179,-3.1438,0.0,0.0,0.0,0.0,0.0,0.0,0.0,0.0,0.0,0.0,0.0,0.0,0.0,0.0,0.0,0.0,0.0,0.0,0.0,0.0,0.0,0.0,0.0,0.0,0.0,0.0,0.0,0.0,0.0,0.0,0.0,0.0,0.0,0.0,0.0,0.0,0.0,0.0,0.0,0.0,0.0,0.0,0.0,0.0,0.0,0.0,0.0,0.0,0.0,0.0,0.0,0.0,0.0,0.0,0.0,0.0,0.0,0.0,0.0,0.0,0.0,0.0,0.0,0.0,0.0,0.0,0.0,0.0,0.0,0.0,0.0,0.0,0.0,0.0,0.0,0.0,0.0,0.0,0.0,0.0,0.0,0.0,0.0,0.0,0.0,0.0,0.0,0.0,0.0,0.0,0.0,0.0,0.0,0.0,0.0,0.0,0.0,0.0,0.0,0.0,0.0,0.0,0.0,0.0,0.0,0.0,0.0,0.0,0.0,-3.556,-3.6284,-3.6636,-3.6579,-3.4938,-3.3218,0.0,0.0,0.0,0.0,0.0,0.0,0.0,0.0,0.0,0.0,0.0,0.0,0.0,0.0,0.0,0.0,0.0,0.0,0.0,0.0,0.0,0.0,0.0,0.0,0.0,0.0,0.0,0.0,0.0,0.0,0.0,0.0,0.0,0.0,0.0,0.0,0.0,0.0,0.0,0.0,0.0,0.0,0.0,0.0,0.0,0.0,0.0,0.0,0.0,0.0,0.0,0.0,0.0,0.0,0.0,0.0,0.0,0.0,0.0,0.0,0.0,0.0,0.0,0.0,0.0,0.0,0.0,0.0,0.0,0.0,0.0,0.0,0.0,0.0,0.0,0.0,0.0,0.0,0.0,0.0,0.0,0.0,0.0,0.0,0.0,0.0,0.0,0.0,0.0,0.0,0.0,0.0,0.0,0.0,0.0,0.0,0.0,0.0,0.0,0.0,0.0,0.0,0.0,0.0,0.0,0.0,0.0,0.0,-3.4285,-3.65,-3.7731,-3.8375,-3.8336,-3.6345,-3.4255,0.0,0.0,0.0,0.0,0.0,0.0,0.0,0.0,0.0,0.0,0.0,0.0,0.0,0.0,0.0,0.0,0.0,0.0,0.0,0.0,0.0,0.0,0.0,0.0,0.0,0.0,0.0,0.0,0.0,0.0,0.0,0.0,0.0,0.0,0.0,0.0,0.0,0.0,0.0,0.0,0.0,0.0,0.0,0.0,0.0,0.0,0.0,0.0,0.0,0.0,0.0,0.0,0.0,0.0,0.0,0.0,0.0,0.0,0.0,0.0,0.0,0.0,0.0,0.0,0.0,0.0,0.0,0.0,0.0,0.0,0.0,0.0,0.0,0.0,0.0,0.0,0.0,0.0,0.0,0.0,0.0,0.0,0.0,0.0,0.0,0.0,0.0,0.0,0.0,0.0,0.0,0.0,0.0,0.0,0.0,0.0,0.0,0.0,0.0,0.0,0.0,0.0,0.0,0.0,0.0,0.0,0.0,0.0,-3.5594,-3.7378,-3.898,-3.9761,-3.9605,-3.7378,-3.4959,0.0,0.0,0.0,0.0,0.0,0.0,0.0,0.0,0.0,0.0,0.0,0.0,0.0,0.0,0.0,0.0,0.0,0.0,0.0,0.0,0.0,0.0,0.0,0.0,0.0,0.0,0.0,0.0,0.0,0.0,0.0,0.0,0.0,0.0,0.0,0.0,0.0,0.0,0.0,0.0,0.0,0.0,0.0,0.0,0.0,0.0,0.0,0.0,0.0,0.0,0.0,0.0,0.0,0.0,0.0,0.0,0.0,0.0,0.0,0.0,0.0,0.0,0.0,0.0,0.0,0.0,0.0,0.0,0.0,0.0,0.0,0.0,0.0,0.0,0.0,0.0,0.0,0.0,0.0,0.0,0.0,0.0,0.0,0.0,0.0,0.0,0.0,0.0,0.0,0.0,0.0,0.0,0.0,0.0,0.0,0.0,0.0,0.0,0.0,0.0,0.0,0.0,0.0,0.0,0.0,0.0,0.0,0.0,-3.5841,-3.8168,-3.9268,-3.9488,-3.8884,-3.7653,-3.6111,0.0,0.0,0.0,0.0,0.0,0.0,0.0,0.0,0.0,0.0,0.0,0.0,0.0,0.0,0.0,0.0,0.0,0.0,0.0,0.0,0.0,0.0,0.0,0.0,0.0,0.0,0.0,0.0,0.0,0.0,0.0,0.0,0.0,0.0,0.0,0.0,0.0,0.0,0.0,0.0,0.0,0.0,0.0,0.0,0.0,0.0,0.0,0.0,-2.9485,0.0,0.0,0.0,0.0,0.0,0.0,0.0,0.0,0.0,0.0,0.0,0.0,0.0,0.0,0.0,0.0,0.0,0.0,0.0,0.0,0.0,0.0,0.0,0.0,0.0,0.0,0.0,0.0,0.0,0.0,0.0,0.0,0.0,0.0,0.0,0.0,0.0,0.0,0.0,0.0,0.0,0.0,0.0,0.0,0.0,0.0,0.0,0.0,0.0,0.0,0.0,0.0,0.0,0.0,0.0,0.0,0.0,0.0,0.0,-3.6321,-3.844,-3.9737,-4.0016,-3.9177,-3.8357,-3.6696,0.0,0.0,0.0,0.0,0.0,0.0,0.0,0.0,0.0,0.0,0.0,0.0,0.0,0.0,0.0,0.0,0.0,0.0,0.0,0.0,0.0,0.0,0.0,0.0,0.0,0.0,0.0,0.0,0.0,0.0,0.0,0.0,0.0,0.0,0.0,0.0,0.0,0.0,0.0,0.0,0.0,0.0,0.0,0.0,0.0,0.0,0.0,0.0,0.0,0.0,0.0,0.0,0.0,0.0,0.0,0.0,0.0,0.0,0.0,0.0,0.0,0.0,0.0,0.0,0.0,0.0,0.0,0.0,0.0,0.0,0.0,0.0,0.0,0.0,0.0,0.0,0.0,0.0,0.0,0.0,0.0,0.0,0.0,0.0,0.0,0.0,0.0,0.0,0.0,0.0,0.0,0.0,0.0,0.0,0.0,0.0,0.0,0.0,0.0,0.0,0.0,0.0,0.0,0.0,0.0,0.0,0.0,-3.4031,-3.6545,-3.8276,-3.9871,-4.0286,-3.9427,-3.8629,-3.662,-3.3338,0.0,0.0,0.0,0.0,0.0,0.0,0.0,0.0,0.0,0.0,0.0,0.0,0.0,0.0,0.0,0.0,0.0,0.0,0.0,0.0,0.0,0.0,0.0,0.0,0.0,0.0,0.0,0.0,0.0,0.0,0.0,0.0,0.0,0.0,0.0,0.0,0.0,0.0,-2.717,-2.8599,0.0,0.0,0.0,0.0,0.0,0.0,0.0,0.0,-3.0801,0.0,0.0,0.0,0.0,0.0,0.0,0.0,0.0,0.0,0.0,0.0,0.0,0.0,0.0,0.0,0.0,0.0,0.0,0.0,0.0,0.0,0.0,0.0,0.0,0.0,0.0,0.0,0.0,0.0,0.0,0.0,0.0,0.0,0.0,0.0,0.0,0.0,0.0,0.0,0.0,0.0,0.0,0.0,0.0,0.0,0.0,0.0,0.0,0.0,0.0,0.0,0.0,0.0,0.0,0.0,0.0,-3.0698,-3.3423,-3.5666,-3.7381,-3.8409,-3.8539,-3.7721,-3.6868,-3.5135,-3.248,0.0,0.0,0.0,0.0,0.0,0.0,0.0,0.0,0.0,0.0,0.0,0.0,0.0,0.0,0.0,0.0,0.0,0.0,0.0,0.0,0.0,0.0,0.0,0.0,0.0,0.0,0.0,0.0,0.0,0.0,0.0,0.0,0.0,0.0,0.0,0.0,0.0,0.0,0.0,-2.9902,-3.0567,0.0,0.0,0.0,0.0,0.0,0.0,0.0,0.0,-3.0878,0.0,0.0,0.0,0.0,0.0,0.0,0.0,0.0,0.0,0.0,0.0,0.0,0.0,0.0,0.0,0.0,0.0,0.0,0.0,0.0,0.0,0.0,0.0,0.0,0.0,0.0,0.0,0.0,0.0,0.0,0.0,0.0,0.0,0.0,0.0,0.0,0.0,0.0,0.0,0.0,0.0,0.0,0.0,0.0,0.0,0.0,0.0,0.0,0.0,0.0,0.0,0.0,0.0,0.0,0.0,-3.0633,-3.3245,-3.5415,-3.7092,-3.8029,-3.7893,-3.661,-3.6165,-3.4532,0.0,0.0,0.0,0.0,0.0,0.0,0.0,0.0,0.0,0.0,0.0,0.0,0.0,0.0,0.0,0.0,0.0,0.0,0.0,0.0,0.0,0.0,0.0,0.0,0.0,0.0,0.0,0.0,0.0,0.0,0.0,0.0,0.0,0.0,0.0,0.0,0.0,0.0,0.0,0.0,-3.0887,-3.147,-3.1478,0.0,0.0,0.0,0.0,0.0,0.0,-3.1788,-3.1523,0.0,0.0,0.0,0.0,0.0,0.0,0.0,0.0,0.0,0.0,0.0,0.0,0.0,0.0,0.0,0.0,0.0,0.0,0.0,0.0,0.0,0.0,0.0,0.0,0.0,0.0,0.0,0.0,0.0,0.0,0.0,0.0,0.0,0.0,0.0,0.0,0.0,0.0,0.0,0.0,0.0,0.0,0.0,0.0,0.0,0.0,0.0,0.0,0.0,0.0,0.0,0.0,0.0,0.0,0.0,-3.0303,-3.2951,-3.501,-3.6503,-3.7475,-3.7208,-3.568,-3.5449,-3.3838,0.0,0.0,0.0,0.0,0.0,0.0,0.0,0.0,0.0,0.0,0.0,0.0,0.0,0.0,0.0,0.0,0.0,0.0,0.0,0.0,0.0,0.0,0.0,0.0,0.0,0.0,0.0,0.0,0.0,0.0,0.0,0.0,0.0,0.0,0.0,0.0,0.0,0.0,0.0,0.0,0.0,-3.2157,-3.2345,-3.2969,0.0,0.0,0.0,0.0,-3.3389,-3.2667,0.0,0.0,0.0,0.0,0.0,0.0,0.0,0.0,0.0,0.0,0.0,0.0,0.0,0.0,0.0,0.0,0.0,0.0,0.0,0.0,0.0,0.0,0.0,0.0,0.0,0.0,0.0,0.0,0.0,0.0,0.0,0.0,0.0,0.0,0.0,0.0,0.0,0.0,0.0,0.0,0.0,0.0,0.0,0.0,0.0,0.0,0.0,0.0,0.0,0.0,0.0,0.0,0.0,0.0,0.0,0.0,-2.9342,-3.1946,-3.3731,-3.4704,-3.5616,-3.5667,-3.4678,-3.3975,-3.2355,0.0,0.0,0.0,0.0,0.0,0.0,0.0,0.0,0.0,0.0,0.0,0.0,0.0,0.0,0.0,0.0,0.0,0.0,0.0,0.0,0.0,0.0,0.0,0.0,0.0,0.0,0.0,0.0,0.0,0.0,0.0,0.0,0.0,0.0,0.0,0.0,0.0,0.0,0.0,0.0,0.0,-3.2382,-3.3144,-3.3339,-3.3378,0.0,0.0,0.0,-3.3394,-3.2671,0.0,0.0,0.0,0.0,0.0,0.0,0.0,0.0,0.0,0.0,0.0,0.0,0.0,0.0,0.0,0.0,0.0,0.0,0.0,0.0,0.0,0.0,0.0,0.0,0.0,0.0,0.0,0.0,0.0,0.0,0.0,0.0,0.0,0.0,0.0,0.0,0.0,0.0,0.0,0.0,0.0,0.0,0.0,0.0,0.0,0.0,0.0,0.0,0.0,0.0,0.0,0.0,0.0,0.0,0.0,-2.6602,-2.9115,-3.1681,-3.3423,-3.4325,-3.4749,-3.455,-3.3714,-3.2435,-3.08,0.0,0.0,0.0,0.0,0.0,0.0,0.0,0.0,0.0,0.0,0.0,0.0,0.0,0.0,0.0,0.0,0.0,0.0,0.0,0.0,0.0,0.0,0.0,0.0,0.0,0.0,0.0,0.0,0.0,0.0,0.0,0.0,0.0,0.0,0.0,0.0,0.0,0.0,0.0,0.0,0.0,0.0,-3.3963,-3.4508,0.0,0.0,0.0,-3.488,-3.489,0.0,0.0,0.0,0.0,0.0,0.0,0.0,0.0,0.0,0.0,0.0,0.0,0.0,0.0,0.0,0.0,0.0,0.0,0.0,0.0,0.0,0.0,0.0,0.0,0.0,0.0,0.0,0.0,0.0,0.0,0.0,0.0,0.0,0.0,0.0,0.0,0.0,0.0,0.0,0.0,0.0,0.0,0.0,0.0,0.0,0.0,0.0,0.0,0.0,0.0,0.0,0.0,0.0,0.0,0.0,0.0,0.0,-2.8743,-3.1269,-3.2909,-3.36,-3.3849,-3.3575,-3.2754,-3.1526,0.0,0.0,0.0,0.0,0.0,0.0,0.0,0.0,0.0,0.0,0.0,0.0,0.0,0.0,0.0,0.0,0.0,0.0,0.0,0.0,0.0,0.0,0.0,0.0,0.0,0.0,0.0,-2.1767,0.0,0.0,0.0,0.0,0.0,0.0,0.0,0.0,0.0,0.0,0.0,0.0,0.0,0.0,-3.4328,-3.5129,-3.6006,-3.6551,0.0,0.0,-3.6298,-3.629,-3.5397,-3.4413,0.0,0.0,0.0,0.0,0.0,0.0,0.0,0.0,0.0,0.0,0.0,0.0,0.0,0.0,0.0,0.0,0.0,0.0,0.0,0.0,0.0,0.0,0.0,0.0,0.0,0.0,0.0,0.0,0.0,0.0,0.0,0.0,0.0,0.0,0.0,0.0,0.0,0.0,0.0,0.0,0.0,0.0,0.0,0.0,0.0,0.0,0.0,0.0,0.0,0.0,0.0,0.0,0.0,0.0,0.0,-2.7808,-3.0369,-3.1725,-3.1802,-3.2577,-3.2615,-3.1825,-3.1671,-3.045,0.0,0.0,0.0,0.0,0.0,0.0,0.0,0.0,0.0,0.0,0.0,0.0,0.0,0.0,0.0,0.0,0.0,0.0,0.0,0.0,0.0,0.0,0.0,0.0,0.0,0.0,0.0,0.0,0.0,0.0,0.0,0.0,0.0,0.0,0.0,0.0,0.0,0.0,0.0,0.0,0.0,-3.603,-3.6919,-3.7759,-3.8324,0.0,0.0,-3.7106,-3.7107,-3.5763,-3.4411,-3.3535,0.0,0.0,0.0,0.0,0.0,0.0,0.0,0.0,0.0,0.0,0.0,0.0,0.0,0.0,0.0,0.0,0.0,0.0,0.0,0.0,0.0,0.0,0.0,0.0,0.0,0.0,0.0,0.0,0.0,0.0,0.0,0.0,0.0,0.0,0.0,0.0,0.0,0.0,0.0,0.0,0.0,0.0,0.0,0.0,0.0,0.0,0.0,0.0,0.0,0.0,0.0,0.0,0.0,-2.6485,-2.7638,-3.0126,-3.1441,-3.1485,-3.1804,-3.1877,-3.1629,-3.0605,-2.9357,0.0,0.0,0.0,0.0,0.0,0.0,0.0,0.0,0.0,0.0,0.0,0.0,0.0,0.0,0.0,0.0,0.0,0.0,0.0,0.0,0.0,0.0,0.0,0.0,0.0,0.0,0.0,0.0,-2.4263,-2.4815,-2.5244,0.0,0.0,0.0,0.0,0.0,0.0,0.0,0.0,0.0,0.0,-3.6219,-3.7082,-3.7948,0.0,0.0,-3.8199,-3.78,-3.7284,-3.6687,-3.5828,-3.4431,-3.3926,0.0,0.0,0.0,0.0,0.0,0.0,0.0,0.0,0.0,0.0,0.0,0.0,0.0,0.0,0.0,0.0,0.0,0.0,0.0,0.0,0.0,0.0,0.0,0.0,0.0,0.0,0.0,0.0,0.0,0.0,0.0,0.0,0.0,0.0,0.0,0.0,0.0,0.0,0.0,0.0,0.0,0.0,0.0,0.0,0.0,0.0,0.0,0.0,0.0,0.0,0.0,0.0,-2.6751,-2.7565,-2.9749,-3.0925,-3.1001,-3.0974,-3.1042,-3.1113,-2.9958,-2.8938,0.0,0.0,0.0,0.0,0.0,0.0,0.0,0.0,0.0,0.0,0.0,0.0,0.0,0.0,0.0,0.0,0.0,0.0,0.0,0.0,0.0,0.0,0.0,0.0,0.0,0.0,0.0,0.0,-2.4664,-2.525,-2.5583,0.0,0.0,0.0,0.0,0.0,0.0,0.0,0.0,0.0,0.0,-3.6969,-3.7832,-3.8705,-3.9279,-3.9276,-3.9071,-3.8572,-3.772,-3.7414,-3.6695,-3.4989,0.0,0.0,0.0,0.0,0.0,0.0,0.0,0.0,0.0,0.0,0.0,0.0,0.0,0.0,0.0,0.0,0.0,0.0,0.0,0.0,0.0,0.0,0.0,0.0,0.0,0.0,0.0,0.0,0.0,0.0,-2.2409,0.0,0.0,0.0,0.0,0.0,0.0,0.0,0.0,0.0,0.0,0.0,0.0,0.0,0.0,0.0,0.0,0.0,0.0,0.0,0.0,0.0,0.0,0.0,-2.7519,-2.9136,-2.9978,-3.0045,-3.0026,-3.0076,-3.0141,-3.0083,-2.9657,-2.8786,0.0,0.0,0.0,0.0,0.0,0.0,0.0,0.0,0.0,0.0,0.0,0.0,0.0,0.0,0.0,0.0,0.0,0.0,0.0,0.0,0.0,0.0,0.0,0.0,0.0,0.0,-2.4986,-2.5031,-2.5474,0.0,0.0,0.0,0.0,0.0,0.0,0.0,0.0,0.0,0.0,-3.7242,-3.8673,-3.9484,-4.0416,-4.0971,-4.099,-4.0312,-3.948,-3.8614,-3.7791,-3.6637,0.0,0.0,0.0,0.0,0.0,0.0,0.0,0.0,0.0,0.0,0.0,0.0,0.0,0.0,0.0,0.0,0.0,0.0,0.0,0.0,0.0,0.0,0.0,0.0,0.0,0.0,0.0,-2.5381,-2.5189,0.0,0.0,0.0,0.0,0.0,0.0,0.0,0.0,0.0,0.0,0.0,-2.7018,-2.7342,0.0,0.0,0.0,0.0,0.0,0.0,0.0,0.0,0.0,0.0,0.0,0.0,-2.728,-2.8166,-2.9216,-2.9782,-2.9796,-2.9841,-2.9901,-2.997,-2.9975,-2.9577,-2.8742,0.0,0.0,0.0,0.0,0.0,0.0,0.0,0.0,0.0,0.0,0.0,0.0,0.0,0.0,0.0,0.0,0.0,0.0,0.0,0.0,0.0,0.0,0.0,0.0,0.0,-2.6181,0.0,0.0,0.0,0.0,0.0,0.0,0.0,0.0,0.0,0.0,0.0,-3.4988,-3.5654,-3.7735,-3.9324,-3.9661,-4.045,-4.1039,0.0,0.0,0.0,0.0,0.0,0.0,0.0,0.0,0.0,0.0,0.0,0.0,0.0,0.0,-3.5221,-3.2983,-3.2558,-3.2343,-3.179,0.0,0.0,0.0,0.0,0.0,0.0,0.0,0.0,0.0,0.0,0.0,0.0,0.0,0.0,-2.6641,0.0,-2.4993,0.0,0.0,0.0,0.0,0.0,0.0,0.0,0.0,-2.7704,-2.8091,-2.8614,-2.875,-2.8639,0.0,-2.8533,-2.7767,0.0,0.0,0.0,0.0,0.0,0.0,0.0,0.0,-2.7827,-2.8408,-2.9167,-2.957,-2.9598,-2.9626,-2.971,-2.9764,-2.9771,-2.9357,-2.8546,-2.6927,-2.5665,0.0,0.0,0.0,0.0,0.0,0.0,0.0,0.0,0.0,0.0,0.0,0.0,0.0,0.0,0.0,0.0,0.0,0.0,0.0,0.0,0.0,0.0,0.0,-2.6801,0.0,0.0,0.0,0.0,0.0,0.0,0.0,0.0,0.0,-3.3038,-3.4487,-3.5912,-3.6861,-3.8459,-3.9714,-4.0071,0.0,0.0,0.0,0.0,0.0,0.0,0.0,-3.9511,-3.8646,-3.8504,-3.8518,-3.8507,-3.8255,-3.8055,-3.8059,0.0,0.0,-3.4606,-3.4055,-3.3769,-3.3456,-3.3387,-3.3383,-3.3377,-3.3596,-3.3758,0.0,0.0,0.0,0.0,0.0,0.0,0.0,0.0,-2.8913,-2.8552,0.0,-2.6941,0.0,0.0,0.0,0.0,0.0,0.0,0.0,0.0,-2.9396,-2.9777,-2.9859,-3.0056,-3.0247,-3.0414,-3.0581,-3.028,-2.9499,-2.7648,0.0,0.0,0.0,0.0,0.0,0.0,-2.819,-2.8246,-2.8951,-2.9322,-2.9382,-2.9392,-2.9423,-2.9482,-2.9492,-2.909,-2.8287,-2.8175,-2.7083,-2.4847,-2.4661,0.0,0.0,0.0,0.0,0.0,0.0,0.0,0.0,0.0,0.0,0.0,0.0,0.0,0.0,0.0,0.0,0.0,0.0,0.0,0.0,-2.6751,0.0,0.0,0.0,0.0,0.0,0.0,0.0,0.0,0.0,0.0,-3.5477,-3.5602,-3.6542,-3.9013,0.0,0.0,0.0,0.0,-4.0986,-4.1006,-4.1039,-4.0796,-3.9977,-3.986,-3.9574,-3.875,0.0,0.0,-3.8553,-3.7834,-3.7305,-3.7235,-3.6657,-3.6044,-3.6031,-3.5288,-3.4502,-3.373,-3.3592,-3.3521,-3.3558,-3.4177,-3.4659,-3.2076,0.0,0.0,0.0,0.0,-3.1019,-3.0928,-3.0762,-3.0522,-3.011,-2.951,-2.8594,0.0,0.0,0.0,0.0,0.0,0.0,-2.9196,-2.9832,-3.0,-3.0394,-3.1019,-3.1217,-3.115,-3.0828,-3.1068,-3.0833,-3.0178,-2.9639,-2.8675,-2.7269,0.0,0.0,0.0,0.0,-2.8198,-2.8751,-2.899,-2.91,-2.9123,-2.9149,-2.9203,-2.923,-2.9212,-2.909,-2.8849,-2.8291,-2.768,-2.6977,-2.5866,0.0,0.0,0.0,0.0,0.0,0.0,0.0,0.0,0.0,0.0,0.0,0.0,0.0,0.0,0.0,0.0,0.0,0.0,0.0,-2.8107,-2.9137,-3.0094,0.0,0.0,0.0,0.0,0.0,0.0,0.0,0.0,0.0,-3.7735,-3.7936,-3.8303,0.0,0.0,-4.0404,-4.0779,-4.0883,-4.0952,-4.098,0.0,0.0,0.0,-4.0692,-4.0643,-4.0373,-3.985,-3.9421,-3.9424,-3.8706,-3.8121,-3.8116,-3.7436,-3.6857,-3.6801,-3.6189,-3.5549,-3.5286,-3.5254,-3.525,-3.5282,-3.5437,-3.5526,-3.3799,-3.3588,-3.2618,-3.2196,-3.2173,-3.2176,-3.2076,-3.1914,-3.1898,-3.1658,-3.1143,-3.0443,-2.9814,-2.9131,-2.8184,0.0,0.0,0.0,-2.9955,-3.0592,-3.0514,-3.077,-3.1293,-3.1504,-3.1469,-3.1254,-3.148,-3.1438,-3.1114,-3.0843,-3.014,-2.9067,0.0,0.0,-2.862,-2.8638,-2.8735,-2.8905,-2.8905,-2.8905,-2.8905,-2.8952,-2.8968,-2.8955,-2.8955,-2.8913,-2.889,-2.8427,-2.8024,-2.7735,-2.6811,-2.564,0.0,0.0,0.0,0.0,0.0,0.0,0.0,0.0,0.0,0.0,0.0,-2.2004,0.0,0.0,0.0,0.0,-2.5982,-2.7713,-2.9542,-3.0578,0.0,0.0,0.0,0.0,0.0,0.0,0.0,-3.6259,-3.7284,-3.8264,-3.9092,-3.9318,-3.9451,-3.9621,-4.0181,-4.0607,-4.07,0.0,-4.0869,-4.0917,-4.0941,-4.0848,-4.0536,-4.0519,-4.0439,-4.0114,-3.9646,-3.9298,-3.926,-3.8578,-3.8013,-3.7896,-3.7272,-3.6688,-3.6688,-3.6289,-3.5962,-3.5971,-3.5989,-3.6015,-3.6015,-3.5968,-3.595,-3.497,-3.4971,-3.3895,-3.3388,-3.3345,-3.3345,-3.3297,-3.315,-3.315,-3.31,-3.3016,-3.2326,-3.1708,-3.1076,-2.9808,0.0,0.0,-3.0104,-3.0418,-3.1059,-3.0929,-3.0895,-3.0995,-3.1176,-3.1353,-3.156,-3.1748,-3.1966,-3.2109,-3.1411,-3.118,-3.1426,-3.1031,-3.0502,-2.9914,-2.9855,-2.9499,-2.8779,-2.8761,-2.8779,-2.8779,-2.8761,-2.8749,-2.8669,-2.8669,-2.865,-2.8587,-2.8587,-2.8274,-2.7628,-2.752,-2.6495,-2.4415,0.0,0.0,0.0,0.0,0.0,0.0,0.0,0.0,0.0,0.0,0.0,0.0,0.0,0.0,0.0,-2.8239,0.0,-3.0482,-3.1471,0.0,0.0,0.0,-3.4158,-3.5628,-3.5938,-3.6675,-3.8202,0.0,0.0,0.0,0.0,-4.0058,-4.0243,-4.0392,-4.0512,-4.0586,-4.0694,-4.079,-4.0796,-4.0791,-4.0507,-3.9866,-3.9673,-3.9393,-3.8786,-3.8438,-3.8399,-3.8344,-3.7662,-3.7155,-3.7097,-3.6434,-3.5908,-3.5908,-3.5921,-3.5892,-3.5903,-3.5949,-3.6005,-3.6009,-3.5996,-3.5992,-3.4923,-3.493,-3.4635,-3.4555,-3.4664,-3.4664,-3.4578,-3.4456,-3.4439,-3.4147,-3.3615,-3.3427,-3.3012,-3.2438,-3.216,-3.2119,-3.2232,-3.1629,-3.1437,-3.1554,-3.0917,-3.0651,-3.0773,-3.0932,-3.1035,-3.1137,-3.1334,-3.1542,-3.1654,-3.1538,-3.158,-3.1777,-3.1759,-3.1034,-2.9659,-2.9601,-2.9247,-2.8502,-2.8502,-2.8484,-2.8484,-2.8484,-2.8484,-2.8489,-2.8471,-2.8458,-2.8463,-2.8432,-2.8355,-2.8188,-2.7594,-2.7036,-2.6525,-2.4754,0.0,0.0,0.0,0.0,0.0,0.0,0.0,0.0,0.0,-2.5249,-2.6602,0.0,-2.7394,0.0,-2.9721,-3.1294,-3.2745,-3.3705,0.0,0.0,-3.5775,-3.6062,-3.6503,-3.7156,-3.776,-3.8263,-3.8893,-3.9416,-3.9743,-3.9826,-3.9922,-4.0039,-4.0224,-4.0347,-4.0438,-4.0518,-4.0596,-4.0649,-4.0239,-3.9765,-3.9505,-3.906,-3.8622,-3.8536,-3.7955,-3.7514,-3.7523,-3.6785,-3.622,-3.6223,-3.6064,-3.5889,-3.5889,-3.5892,-3.5894,-3.5902,-3.5947,-3.6009,-3.6016,-3.6009,-3.6014,-3.4899,-3.4899,-3.4899,-3.4906,-3.4906,-3.5011,-3.497,-3.4899,-3.4899,-3.4651,-3.4253,-3.3945,-3.362,-3.3283,-3.3001,-3.2857,-3.2807,-3.2059,-3.1722,-3.1672,-3.0879,-3.0531,-3.0626,-3.0753,-3.0814,-3.0875,-3.1038,-3.1176,-3.1291,-3.1312,-3.1447,-3.1637,-3.1765,-3.1064,-2.957,-2.9727,-2.9323,-2.8295,-2.8313,-2.8353,-2.8353,-2.838,-2.838,-2.8353,-2.8353,-2.8327,-2.8318,-2.8291,-2.8246,-2.8246,-2.7821,-2.7441,-2.7143,-2.5882,-2.4998,0.0,0.0,0.0,0.0,0.0,0.0,0.0,0.0,0.0,0.0,0.0,-2.9967,0.0,-3.2071,0.0,-3.4418,-3.5097,-3.5813,-3.667,-3.6966,-3.7244,-3.7655,-3.8199,-3.8566,-3.8657,-3.9158,-3.9532,-3.9647,-3.9724,-3.9792,-3.9911,-4.0029,-4.0168,-4.0288,-4.0364,-4.0446,-4.0527,-3.99,-3.9121,-3.8509,-3.7725,-3.721,-3.7256,-3.6897,-3.6593,-3.6615,-3.6231,-3.5883,-3.5889,-3.5889,-3.5889,-3.5889,-3.5889,-3.5889,-3.5892,-3.5926,-3.5942,-3.5955,-3.5991,-3.6002,-3.4851,-3.4835,-3.4851,-3.478,-3.4683,-3.478,-3.4828,-3.4835,-3.4851,-3.4851,-3.4802,-3.4173,-3.3915,-3.3849,-3.3259,-3.2928,-3.2818,-3.2061,-3.1681,-3.1565,-3.0837,-3.0489,-3.0506,-3.0609,-3.0671,-3.0671,-3.0773,-3.0875,-3.0955,-3.0975,-3.1075,-3.1237,-3.1268,-3.0666,-2.9472,-2.9803,-2.9347,-2.8078,-2.8182,-2.8246,-2.8228,-2.8313,-2.8327,-2.8273,-2.8259,-2.8237,-2.8168,-2.8187,-2.8213,-2.823,-2.8244,-2.7996,-2.7405,-2.7222,-2.689,0.0,-2.6302,0.0,0.0,0.0,0.0,0.0,0.0,0.0,0.0,-3.1433,-3.2909,-3.4307,-3.4585,-3.4975,-3.5678,-3.6048,-3.6534,-3.7239,-3.7546,-3.7989,-3.8666,-3.8931,-3.9073,-3.9087,-3.9311,-3.9446,-3.9514,-3.9618,-3.9701,-3.9781,-3.9837,-3.9943,-4.0078,-4.0206,-4.0298,-4.037,-3.9642,-3.8561,-3.7351,-3.6323,-3.5795,-3.5822,-3.5873,-3.5811,-3.5911,-3.5918,-3.5885,-3.59,-3.5883,-3.5886,-3.5886,-3.5889,-3.5889,-3.5889,-3.5911,-3.5897,-3.5909,-3.5947,-3.598,-3.457,-3.457,-3.457,-3.4497,-3.4374,-3.4399,-3.4472,-3.457,-3.457,-3.4586,-3.457,-3.4439,-3.4421,-3.4501,-3.4393,-3.406,-3.3541,-3.2812,-3.2166,-3.1581,-3.0837,-3.0489,-3.0506,-3.051,-3.0531,-3.0547,-3.0568,-3.0634,-3.0753,-3.0753,-3.0834,-3.0958,-3.0468,-2.9783,-2.8939,0.0,0.0,0.0,-2.7836,-2.789,-2.789,-2.8025,-2.8053,-2.8053,-2.8071,0.0,-2.806,-2.8544,-2.8835,-2.8838,-2.9325,0.0,0.0,0.0,0.0,0.0,0.0,0.0,0.0,0.0,0.0,0.0,-3.2511,-3.2665,-3.2362,-3.3684,-3.4735,-3.5106,-3.5816,-3.6316,-3.6477,-3.7172,-3.7706,-3.7898,-3.8113,-3.8348,-3.8538,-3.8743,-3.8892,-3.9017,-3.9115,-3.9259,-3.9464,-3.9508,-3.9587,-3.9701,-3.9724,-3.9747,-3.9792,-3.9996,-4.0157,-4.012,-3.9061,-3.7855,-3.6948,-3.611,-3.5668,-3.5684,-3.5708,-3.5735,-3.5788,-3.5822,-3.5852,-3.5889,-3.5882,-3.5891,-3.5891,-3.588,-3.5889,-3.5889,-3.5889,-3.5894,-3.5887,-3.5912,-3.5938,-3.4284,0.0,-3.4226,-3.4126,0.0,-3.3924,-3.3832,-3.379,-3.4151,-3.43,-3.43,-3.4374,-3.4448,-3.448,-3.4192,-3.3902,-3.3554,-3.2484,-3.183,-3.1429,-3.0705,-3.0375,-3.0359,-3.0422,-3.0464,-3.0443,-3.0485,-3.0547,-3.0609,-3.0609,-3.0447,-3.0162,-2.9878,-2.9216,-2.8126,-2.7568,-2.7316,-2.7355,-2.7524,-2.7615,-2.7615,-2.8075,-2.8298,-2.8298,0.0,0.0,0.0,0.0,0.0,0.0,0.0,0.0,0.0,0.0,0.0,-2.9346,-2.968,-3.0113,-3.063,-3.1702,-3.2686,-3.3512,-3.4269,-3.4623,-3.4481,-3.5208,-3.583,-3.6257,-3.6738,-3.7024,-3.7059,-3.7488,-3.7845,-3.7915,-3.8068,-3.8236,-3.83,-3.8478,-3.8667,-3.8851,-3.896,-3.9129,-3.9285,-3.9395,-3.9502,-3.9575,-3.9599,-3.9611,-3.9701,-3.9826,-3.9872,-3.9565,-3.8956,-3.7972,-3.6925,-3.6385,-3.5913,-3.5711,-3.5602,-3.5639,-3.5698,-3.573,-3.5752,-3.5795,-3.5818,-3.584,-3.584,-3.5876,-3.5891,-3.5897,-3.59,-3.5883,-3.5897,-3.588,-3.5924,-3.397,-3.3857,-3.3755,-3.3642,-3.3513,-3.3382,-3.3156,-3.29,0.0,0.0,0.0,-3.4009,-3.4109,-3.4152,-3.3535,-3.3215,-3.3067,-3.1831,-3.1176,-3.1051,-3.0446,-3.0167,-3.0227,-3.0295,-3.0375,-3.0375,-3.0405,-3.0447,-3.0426,-3.0332,-2.9951,-2.9373,-2.9208,-2.8469,-2.7188,-2.6717,-2.664,-2.6907,-2.7166,-2.7294,-2.7327,-2.81,-2.8514,-2.8497,-2.9226,-2.9591,-2.9591,-2.9679,-2.9713,-2.9713,-2.9764,-2.9833,-2.9868,-2.9886,-2.992,-3.0006,-3.0681,-3.1409,-3.2211,-3.3098,-3.3988,-3.4817,-3.5407,-3.5869,-3.6191,-3.6229,-3.6495,-3.7186,-3.7259,-3.7298,-3.7373,-3.7484,-3.7577,-3.7631,-3.781,-3.7966,-3.8034,-3.8218,-3.8433,-3.8611,-3.8803,-3.8993,-3.9087,-3.9229,-3.938,-3.9458,-3.9496,-3.9526,-3.9654,-3.9735,-3.9648,-3.9207,-3.8927,-3.8394,-3.7383,-3.6859,-3.6504,-3.5872,-3.5727,-3.5675,-3.5587,-3.5604,-3.5664,-3.5694,-3.5735,-3.5779,-3.5792,-3.5811,-3.5852,-3.5876,-3.5879,-3.5885,-3.588,-3.5886,-3.5892,-3.3513,-3.2975,-3.2964,-3.2884,-3.2765,-3.2738,-3.2563,-3.2358,-3.2776,-3.3044,-3.3156,-3.3166,-3.3393,-3.3739,-3.3051,-3.2531,-3.2156,-3.1336,-3.0683,0.0,-3.0065,-3.0081,-3.0205,-3.021,-3.0231,-3.021,-3.0231,-3.0231,-3.0166,-2.9608,-2.9231,-2.9001,-2.7958,-2.6956,-2.6167,-2.6094,-2.61,-2.6171,-2.6641,-2.6891,-2.6891,-2.7707,-2.8168,-2.8202,-2.8835,-2.9177,-2.9194,-2.9787,-3.0125,-3.0125,-3.0645,-3.0983,-3.0966,-3.0932,-3.1023,-3.11,-3.1764,-3.2264,-3.25,-3.39,-3.5136,-3.5966,-3.616,-3.6329,-3.6588,-3.6671,-3.6805,-3.7009,-3.7087,-3.7166,-3.7279,-3.7334,-3.7372,-3.743,-3.7577,-3.7685,-3.7757,-3.7966,-3.8186,-3.8356,-3.858,-3.8822,-3.8974,-3.9087,-3.9202,-3.9354,-3.9393,-3.9445,-3.9533,-3.9623,-3.9698,-3.9569,-3.9123,-3.8714,-3.8318,-3.7879,-3.7198,-3.6468,-3.6343,-3.6116,-3.5508,-3.5476,-3.5544,-3.5604,-3.5653,-3.5713,-3.5718,-3.5721,-3.5756,-3.5788,-3.5799,-3.5826,-3.5879,-3.5888,-3.5897,-3.3141,-3.2791,-3.2397,-3.2145,-3.212,-3.1936,-3.1838,-3.171,-3.1838,-3.2132,-3.2563,-3.2711,-3.2681,-3.2515,-3.1915,-3.1369,-3.0895,-3.0154,-2.9751,-2.9637,-2.9605,-2.9687,-2.983,-2.9902,-2.9951,-2.9979,-3.006,-3.0141,-3.0156,-2.9861,-2.9288,-2.8469,-2.7112,-2.6243,-2.5914,-2.5917,-2.5936,-2.5954,-2.6295,-2.6637,-2.7021,-2.7795,-2.8402,-2.8787,-2.9473,-2.9858,-2.9875,-3.0188,-3.0352,-3.0369,-3.065,-3.0814,-3.0814,-3.0814,-3.1002,-3.1444,-3.2131,-3.2803,-3.3343,-3.4597,-3.5492,-3.5898,-3.5915,-3.5997,-3.6187,-3.6482,-3.6708,-3.6826,-3.6869,-3.695,-3.7124,-3.7143,-3.7201,-3.7317,-3.7392,-3.7448,-3.7558,-3.7703,-3.7897,-3.8104,-3.8338,-3.858,-3.8807,-3.8892,-3.8993,-3.9152,-3.9234,-3.9341,-3.9445,-3.9508,-3.9588,-3.9675,-3.9449,-3.9096,-3.8765,-3.8417,-3.7661,-3.6566,-3.64,-3.6097,-3.5442,-3.5326,-3.5383,-3.5417,-3.5483,-3.5544,-3.5571,-3.5623,-3.5669,-3.5726,-3.5739,-3.5779,-3.5845,-3.5866,-3.5882,-3.2839,-3.2614,-3.1895,-3.1582,-3.1553,-3.1278,-3.1161,-3.1176,-3.1102,-3.1351,-3.1866,-3.205,-3.1832,-3.1374,-3.0701,-3.0186,-2.9764,-2.9116,-2.8897,-2.9106,-2.9129,-2.9198,-2.9366,-2.9464,-2.9576,-2.9677,-2.9782,-2.9892,-3.0017,-2.9875,-2.9142,-2.7887,-2.6779,-2.626,-2.626,-2.6297,-2.6316,-2.6316,-2.6449,-2.6722,-2.7135,-2.7847,-2.8593,-2.932,-3.0046,-3.0426,-3.0426,-3.0426,-3.0426,-3.0443,-3.0443,-3.0443,-3.0426,-3.0443,-3.0691,-3.1302,-3.2128,-3.3116,-3.4168,-3.4952,-3.5418,-3.5441,-3.5464,-3.5532,-3.5706,-3.6019,-3.636,-3.6544,-3.6623,-3.6705,-3.6888,-3.6928,-3.6987,-3.7161,-3.7182,-3.7203,-3.7298,-3.7429,-3.7631,-3.788,-3.8088,-3.8307,-3.8499,-3.8655,-3.8773,-3.8935,-3.905,-3.9161,-3.9288,-3.9315,-3.94,-3.9564,-3.963,-3.9421,-3.8894,-3.8833,-3.8159,-3.6717,-3.6521,-3.6121,-3.5462,-3.5176,-3.5261,-3.527,-3.5299,-3.5371,-3.5438,-3.5489,-3.5564,-3.5618,-3.5664,-3.566,-3.5756,-3.5593,-3.5564,-3.2623,-3.2032,-3.1442,-3.1161,-3.1132,-3.0955,-3.0851,-3.0866,-3.0836,-3.0851,-3.094,-3.0625,-3.0666,-3.0716,-2.9681,-2.9225,-2.9183,-2.8688,-2.8501,-2.8559,-2.8583,-2.8716,-2.8928,-2.8951,-2.9106,-2.9312,-2.9373,-2.9418,-2.9515,-2.8912,-2.8207,-2.7533,-2.7371,-2.7299,-2.7336,-2.7437,-2.7498,-2.7531,-2.7551,-2.7342,-2.6995,-2.7653,-2.8374,-2.9096,-2.9854,-3.021,-3.0231,-3.021,-3.0231,-3.0231,-3.0248,-3.0231,-3.021,-3.0231,-3.0259,-3.039,-3.1675,-3.3073,-3.4475,-3.473,-3.4875,-3.497,-3.5088,-3.5222,-3.5337,-3.5441,-3.5744,-3.6174,-3.6322,-3.6444,-3.6684,-3.6725,-3.6745,-3.6823,-3.6829,-3.6871,-3.7029,-3.7219,-3.7427,-3.7631,-3.7793,-3.7985,-3.8171,-3.8318,-3.8525,-3.8758,-3.8818,-3.8921,-3.9092,-3.9115,-3.9188,-3.9354,-3.9413,-3.9433,-3.9339,-3.9455,-3.8655,-3.744,-3.7125,-3.6431,-3.5439,-3.5029,-3.5108,-3.5115,-3.5174,-3.5219,-3.5281,-3.5338,-3.5381,-3.547,-3.5526,-3.5554,-3.5592,-3.5251,-3.4917,-3.2543,-3.2207,-3.1215,-3.0806,-3.0791,-3.0702,-3.0687,-3.0657,-3.0702,-3.0702,-3.0556,-2.9739,-2.951,-2.9741,-2.8898,-2.8404,-2.8132,-2.7911,-2.7915,-2.8057,-2.8082,-2.8244,-2.8486,-2.847,-2.8614,-2.8811,-2.8818,-2.8904,-2.891,-2.841,-2.7958,-2.7696,-2.7445,-2.7322,-2.7343,-2.7453,-2.7515,-2.7531,-2.7515,-2.7646,-2.7915,-2.8277,-2.8823,-2.9507,-2.9865,-3.0033,-3.0033,-3.0011,-3.0011,-3.0011,-3.0033,-3.0033,-2.9995,-3.0033,-3.0206,-3.064,-3.2027,-3.3337,-3.4382,-3.4538,-3.4594,-3.4667,-3.4715,-3.4804,-3.4947,-3.5024,-3.5264,-3.5644,-3.5888,-3.6127,-3.6419,-3.6444,-3.6523,-3.6664,-3.6725,-3.6766,-3.6826,-3.6946,-3.7085,-3.7261,-3.7429,-3.7631,-3.7845,-3.8052,-3.8269,-3.8512,-3.8575,-3.8667,-3.8877,-3.8921,-3.8979,-3.9082,-3.9133,-3.9256,-3.9331,-3.8983,-3.8314,-3.7445,-3.6727,-3.5943,-3.5217,-3.4878,-3.4917,-3.4926,-3.5001,-3.5082,-3.5168,-3.519,-3.5219,-3.5319,-3.5417,-3.5464,-3.5575,-3.532,-3.499,-3.2658,-3.2307,-3.1119,-3.0612,-3.0612,-3.0538,-3.0507,-3.0507,-3.0492,-3.0447,-3.0346,-2.9291,-2.8811,-2.8746,-2.8177,-2.765,-2.7318,-2.7325,-2.7452,-2.764,-2.764,-2.775,-2.7965,-2.7989,-2.8097,-2.8277,-2.831,-2.8367,-2.8425,-2.8109,-2.7945,-2.7914,-2.7673,-2.7532,-2.7598,-2.7729,-2.7838,-2.7875,-2.7875,-2.8173,-2.872,-2.8887,-2.9237,-2.9832,-2.9896,-2.9896,-2.9896,-2.9896,-2.9896,-2.9896,-2.9896,-2.9896,-2.9852,-2.9852,-3.0138,-3.0813,-3.2021,-3.3097,-3.3826,-3.4161,-3.4349,-3.4349,-3.4399,-3.4489,-3.4594,-3.4715,-3.4875,-3.5128,-3.535,-3.565,-3.6105,-3.6195,-3.6318,-3.6541,-3.6561,-3.6579,-3.6643,-3.6705,-3.6791,-3.6992,-3.7106,-3.7278,-3.754,-3.7721,-3.7897,-3.8118,-3.8254,-3.8352,-3.8559,-3.8652,-3.8713,-3.877,-3.8711,-3.8683,-3.8888,-3.8562,-3.7754,-3.6861,-3.614,-3.5623,-3.4894,-3.4756,-3.4768,-3.4811,-3.4859,-3.4889,-3.4982,-3.5018,-3.507,-3.519,-3.5285,-3.5336,-3.5442,-3.5277,-3.486,-3.3079,-3.2321,-3.1134,-3.0597,-3.0582,-3.0387,-3.0326,-3.0312,-3.0189,-3.0111,-3.0056,-2.9398,-2.8783,-2.8254,-2.7503,-2.7062,-2.7044,-2.7104,-2.7167,-2.7207,-2.7207,-2.7284,-2.7412,-2.7437,-2.7564,-2.7775,-2.7815,-2.7835,-2.7898,-2.7877,-2.7981,-2.8143,-2.811,-2.8309,-2.8482,-2.8615,-2.8864,-2.8816,-2.8839,-2.9041,-2.9187,-2.9225,-2.9406,-2.9792,-2.9896,-2.9874,-2.9896,-2.9896,-2.9896,-2.9896,-2.9874,-2.983,-2.972,-2.972,-2.9974,-3.0589,-3.1294,-3.1999,-3.2802,-3.3496,-3.3917,-3.3975,-3.4151,-3.4284,-3.43,-3.4423,-3.4546,-3.4732,-3.4763,-3.5071,-3.5644,-3.5888,-3.6058,-3.6204,-3.6247,-3.6314,-3.6499,-3.6502,-3.6606,-3.6768,-3.6849,-3.697,-3.7278,-3.7333,-3.7466,-3.7667,-3.7846,-3.7968,-3.8119,-3.8302,-3.8415,-3.8345,-3.8098,-3.7755,-3.7909,-3.7649,-3.7081,-3.6341,-3.5712,-3.5392,-3.4926,-3.458,-3.4634,-3.4687,-3.4739,-3.479,-3.4802,-3.486,-3.4926,-3.5019,-3.5098,-3.5182,-3.5005,-3.4508,-3.4201,-3.2489,-3.1527,-3.1039,-3.0623,-3.0294,-3.0203,-3.0144,-3.0144,-3.0111,-3.008,-2.9966,-2.9396,-2.8783,-2.8154,-2.7492,-2.6942,-2.6568,-2.6606,-2.6633,-2.6618,-2.6633,-2.6698,-2.6814,-2.6814,-2.6919,-2.7074,-2.7115,-2.7086,-2.7148,-2.721,-2.7352,-2.7575,-2.772,-2.7904,-2.8131,-2.8326,-2.8486,-2.8534,-2.8597,-2.87,-2.8764,-2.8787,-2.8951,-2.9243,-2.9525,-2.9653,-2.9637,-2.9653,-2.9653,-2.9653,-2.9653,-2.963,-2.9586,-2.9502,-2.9761,-3.0385,-3.0704,-3.139,-3.2528,-3.2969,-3.3347,-3.3723,-3.3848,-3.3924,-3.3949,-3.405,-3.4151,-3.4201,-3.4374,-3.4643,-3.493,-3.5304,-3.5661,-3.59,-3.5949,-3.6036,-3.6229,-3.6314,-3.6377,-3.6564,-3.6684,-3.6826,-3.6928,-3.6987,-3.705,-3.728,-3.7429,-3.7577,-3.7703,-3.7862,-3.8018,-3.8026,-3.7612,-3.7043,-3.6659,-3.6399,-3.5972,-3.5609,-3.5163,-3.4814,-3.4407,-3.4439,-3.4495,-3.4536,-3.4602,-3.4666,-3.4699,-3.4761,-3.4821,-3.486,-3.4936,-3.4639,-3.4406,-3.3974,-3.3881,-3.2264,-3.1365,-3.1094,-3.0651,-3.0109,-3.0019,-2.9991,-3.0005,-2.9958,-2.9927,-2.9827,-2.9444,-2.8919,-2.8323,-2.7712,-2.7087,-2.6491,-2.6359,-2.6313,-2.6313,-2.6313,-2.6353,-2.6418,-2.6445,-2.6472,-2.6551,-2.6578,-2.6592,-2.6578,-2.6669,-2.6774,-2.6985,-2.7137,-2.7276,-2.7524,-2.775,-2.7915,-2.7965,-2.8063,-2.8171,-2.8277,-2.8262,-2.8383,-2.8559,-2.8834,-2.9082,-2.9298,-2.9298,-2.9298,-2.9236,-2.9236,-2.9213,-2.9167,-2.9075,-2.9234,-2.9746,-3.003,-3.0592,-3.1602,-3.2001,-3.2456,-3.315,-3.3297,-3.3387,-3.3594,-3.3736,-3.3745,-3.3771,-3.3848,-3.405,-3.425,-3.457,-3.5018,-3.5503,-3.5656,-3.5768,-3.6014,-3.6075,-3.6187,-3.6356,-3.6478,-3.6582,-3.6687,-3.669,-3.6791,-3.695,-3.7048,-3.7166,-3.7281,-3.7412,-3.7434,-3.7327,-3.6746,-3.6069,-3.5507,-3.5027,-3.4926,-3.4616,-3.4628,-3.4297,-3.4173,-3.4257,-3.4347,-3.437,-3.4427,-3.4514,-3.4591,-3.4666,-3.4718,-3.4732,-3.4424,-3.4093,-3.3799,-3.3485,-3.331,-3.2535,-3.1907,-3.1279,-3.0691,-3.0133,-2.9896,-2.9808,-2.9792,-2.9696,-2.9665,-2.9651,-2.9591,-2.9228,-2.8649,-2.8074,-2.7468,-2.6891,-2.6506,-2.6317,-2.626,-2.626,-2.626,-2.6286,-2.6286,-2.6272,-2.6313,-2.6313,-2.6313,-2.6299,-2.634,-2.6406,-2.6484,-2.6537,-2.668,-2.6916,-2.7141,-2.7284,-2.7386,-2.7539,-2.765,-2.7765,-2.775,-2.7795,-2.7889,-2.7923,-2.8207,-2.8787,-2.8858,-2.8811,-2.8724,-2.8685,-2.863,-2.8527,-2.8438,-2.8484,-2.8737,-2.9217,-2.9608,-2.9951,-3.0638,-3.1391,-3.2124,-3.2434,-3.2793,-3.3196,-3.3413,-3.3424,-3.3361,-3.3361,-3.3424,-3.3642,-3.3771,-3.4176,-3.5088,-3.5228,-3.5389,-3.5661,-3.5795,-3.5905,-3.6122,-3.6204,-3.6289,-3.644,-3.6502,-3.6544,-3.6664,-3.6768,-3.6831,-3.6891,-3.7011,-3.6811,-3.6288,-3.5776,-3.5221,-3.4427,-3.3679,-3.3691,-3.3661,-3.3872,-3.385,-3.3947,-3.4023,-3.4136,-3.4185,-3.4323,-3.4393,-3.445,-3.4528,-3.4572,-3.4513,-3.4067,-3.358,-3.3176,-3.2817,-3.2476,-3.2837,-3.223,-3.1622,-3.0954,-3.0348,-2.9879,-2.9651,-2.9665,-2.9602,-2.9602,-2.9602,-2.9602,-2.9279,-2.8774,-2.8478,-2.8071,-2.7468,-2.6905,-2.6411,-2.61,-2.6029,-2.6029,-2.6029,-2.6029,-2.6015,-2.6029,-2.6029,-2.6029,-2.6029,-2.6029,-2.6084,-2.6204,-2.6204,-2.6312,-2.6498,-2.663,-2.6721,-2.6788,-2.6904,-2.6982,-2.7049,-2.7049,-2.7097,-2.7195,-2.7195,-2.7323,-2.754,-2.7947,-2.8183,-2.8143,-2.8158,-2.8125,-2.8033,-2.7974,-2.8039,-2.8201,-2.8363,-2.8845,-2.9444,-2.9841,-3.0335,-3.1051,-3.1695,-3.2107,-3.2348,-3.2803,-3.3027,-3.3032,-3.3032,-3.3096,-3.3256,-3.3266,-3.3668,-3.4521,-3.4691,-3.4842,-3.5108,-3.5356,-3.5639,-3.5861,-3.5905,-3.5993,-3.6127,-3.6191,-3.6293,-3.6374,-3.6482,-3.6585,-3.6626,-3.669,-3.6534,-3.5915,-3.5236,-3.4447,-3.3703,-3.315,-3.3007,-3.3139,-3.3346,-3.355,-3.3648,-3.3788,-3.3895,-3.4036,-3.4161,-3.4245,-3.4305,-3.4374,-3.4439,-3.4278,-3.3883,-3.3285,-3.2611,-3.2135,-3.1751,-3.296,-3.237,-3.1752,-3.112,-3.0441,-2.982,-2.954,-2.9509,-2.9446,-2.9415,-2.9429,-2.9415,-2.9219,-2.8856,-2.8619,-2.8298,-2.7851,-2.7055,-2.6455,-2.6092,-2.5936,-2.5907,-2.5893,-2.5893,-2.5893,-2.5893,-2.5921,-2.5893,-2.5893,-2.5921,-2.5948,-2.6002,-2.6029,-2.6056,-2.6179,-2.6299,-2.6338,-2.6365,-2.6472,-2.6566,-2.6551,-2.6551,-2.659,-2.6654,-2.668,-2.6669,-2.6707,-2.7097,-2.7378,-2.7439,-2.7464,-2.7429,-2.7423,-2.7463,-2.7579,-2.7675,-2.7765,-2.8087,-2.8677,-2.8847,-2.9239,-2.9976,-3.0773,-3.1351,-3.163,-3.2234,-3.2621,-3.257,-3.2609,-3.2676,-3.2812,-3.2893,-3.3214,-3.3694,-3.405,-3.4308,-3.4586,-3.492,-3.5195,-3.5379,-3.5509,-3.5644,-3.5778,-3.5932,-3.6036,-3.6079,-3.6208,-3.6297,-3.6335,-3.636,-3.5928,-3.5384,-3.4642,-3.385,-3.3072,-3.2669,-3.2405,-3.2603,-3.291,-3.3126,-3.3306,-3.348,-3.362,-3.3815,-3.3972,-3.4049,-3.4093,-3.4209,-3.4262,-3.3962,-3.3694,-3.2982,-3.2283,-3.1426,-3.0954,-3.294,-3.2364,-3.1761,-3.118,-3.0559,-2.9806,-2.9432,-2.9404,-2.9176,-2.9067,-2.9067,-2.9067,-2.9053,-2.8916,-2.8515,-2.8267,-2.8019,-2.7136,-2.6625,-2.6421,-2.6148,-2.5896,-2.5839,-2.5825,-2.5853,-2.5866,-2.5866,-2.5893,-2.5893,-2.5893,-2.5893,-2.5921,-2.5921,-2.5893,-2.5948,-2.6029,-2.6111,-2.6138,-2.6218,-2.6272,-2.6286,-2.6286,-2.6272,-2.6313,-2.6299,-2.6299,-2.6326,-2.6379,-2.6486,-2.6657,-2.6747,-2.6762,-2.6736,-2.687,-2.7055,-2.7167,-2.7284,-2.7427,-2.7594,-2.7846,-2.8142,-2.8885,-2.9759,-3.0407,-3.0987,-3.1674,-3.2135,-3.2066,-3.2107,-3.2247,-3.2398,-3.2508,-3.2703,-3.2924,-3.3398,-3.3822,-3.4201,-3.4456,-3.465,-3.4802,-3.5048,-3.5274,-3.5333,-3.5577,-3.5667,-3.5773,-3.5866,-3.5932,-3.5997,-3.5831,-3.527,-3.4644,-3.4003,-3.3259,-3.248,-3.2136,-3.1913,-3.2144,-3.2437,-3.2669,-3.2941,-3.3157,-3.3364,-3.3569,-3.3721,-3.3797,-3.3895,-3.3972,-3.4055,-3.3932,-3.3432,-3.2701,-3.2001,-3.1277,-3.0604,-3.2763,-3.2555,-3.1972,-3.1611,-3.1272,-3.0165,-2.9632,-2.9531,-2.8957,-2.8729,-2.8729,-2.8716,-2.8716,-2.8702,-2.8566,-2.8484,-2.8207,-2.7577,-2.7264,-2.7132,-2.628,-2.581,-2.5647,-2.5592,-2.5647,-2.5729,-2.5729,-2.5797,-2.5893,-2.5907,-2.5893,-2.5893,-2.5893,-2.5893,-2.5921,-2.5921,-2.5948,-2.5948,-2.5961,-2.6002,-2.6002,-2.6002,-2.6002,-2.6002,-2.6002,-2.6002,-2.6002,-2.6002,-2.6125,-2.6379,-2.6406,-2.6406,-2.6406,-2.6474,-2.658,-2.6683,-2.6721,-2.6881,-2.7104,-2.7284,-2.7501,-2.7853,-2.9,-2.9756,-2.9952,-3.1005,-3.159,-3.1739,-3.1824,-3.1938,-3.2163,-3.2274,-3.2413,-3.2676,-3.3027,-3.3372,-3.3642,-3.3832,-3.4034,-3.4259,-3.4448,-3.4643,-3.4818,-3.5008,-3.5171,-3.535,-3.5487,-3.556,-3.5605,-3.5599,-3.5164,-3.4173,-3.34,-3.2681,-3.2025,-3.1671,-3.1543,-3.1728,-3.1948,-3.2214,-3.2504,-3.2814,-3.3034,-3.3262,-3.3379,-3.3462,-3.3569,-3.3671,-3.3726,-3.3793,-3.3269,-3.2597,-3.2115,-3.1495,-3.0775,-3.2187,-3.2132,-3.1534,-3.1289,-3.1091,-2.9821,-2.9235,-2.908,-2.8484,-2.8099,-2.8052,-2.8085,-2.8085,-2.8039,-2.8085,-2.8085,-2.7926,-2.7362,-2.7019,-2.6789,-2.58,-2.5327,-2.5254,-2.5285,-2.5355,-2.5481,-2.5508,-2.5578,-2.5716,-2.573,-2.5743,-2.573,-2.5716,-2.573,-2.573,-2.5716,-2.5716,-2.5716,-2.5743,-2.5743,-2.5716,-2.5716,-2.5716,-2.5743,-2.5743,-2.5743,-2.573,-2.573,-2.5853,-2.6056,-2.6152,-2.6152,-2.6152,-2.6206,-2.626,-2.6338,-2.6377,-2.6513,-2.6659,-2.6829,-2.6919,-2.7257,-2.8334,-2.9034,-2.9389,-3.0348,-3.1175,-3.1278,-3.1365,-3.1581,-3.1838,-3.2023,-3.2191,-3.2385,-3.2605,-3.2866,-3.3203,-3.3388,-3.3503,-3.3668,-3.3848,-3.4025,-3.425,-3.4391,-3.4626,-3.4818,-3.4984,-3.5102,-3.5171,-3.5174,-3.4834,-3.3694,-3.2911,-3.2265,-3.1608,-3.1179,-3.114,-3.1315,-3.1524,-3.1765,-3.2109,-3.2437,-3.2669,-3.2878,-3.3001,-3.3124,-3.3235,-3.3327,-3.3386,-3.3266,-3.2896,-3.2611,-3.2174,-3.1803,-3.1062,-3.1368,-3.1352,-3.0811,-3.055,-3.0404,-2.9236,-2.8746,-2.8476,-2.7848,-2.74,-2.7209,-2.7323,-2.731,-2.7142,-2.7343,-2.7263,-2.7103,-2.6644,-2.6242,-2.5864,-2.5255,-2.4914,-2.492,-2.4859,-2.492,-2.5048,-2.5118,-2.5216,-2.5341,-2.5397,-2.5439,-2.5425,-2.5467,-2.5467,-2.5425,-2.5439,-2.5439,-2.5439,-2.5425,-2.5425,-2.5425,-2.5425,-2.5425,-2.5425,-2.5425,-2.5425,-2.5439,-2.5467,-2.5564,-2.5811,-2.5839,-2.5853,-2.588,-2.5989,-2.6016,-2.6029,-2.6098,-2.6179,-2.626,-2.6365,-2.6502,-2.6829,-2.7875,-2.8639,-2.8929,-2.9826,-3.0568,-3.0762,-3.0836,-3.1087,-3.1437,-3.1739,-3.1953,-3.2107,-3.2163,-3.2373,-3.2691,-3.2935,-3.3043,-3.3069,-3.3293,-3.3477,-3.3658,-3.3848,-3.4066,-3.4209,-3.4382,-3.448,-3.4487,-3.4378,-3.3855,-3.2927,-3.2337,-3.1912,-3.1269,-3.0675,-3.0781,-3.0922,-3.114,-3.1391,-3.1747,-3.2056,-3.2301,-3.2488,-3.2636,-3.275,-3.2864,-3.2943,-3.299,-3.3016,-3.2814,-3.2589,-3.2324,-3.2004,-3.1432,-3.0545,-3.0532,-3.0416,-3.0364,-3.0223,-2.9457,-2.8809,-2.8349,-2.7576,-2.6978,-2.6662,-2.662,-2.6586,-2.6552,-2.6586,-2.6564,-2.6414,-2.617,-2.5915,-2.5239,-2.5249,-2.4868,-2.4594,-2.4416,-2.4387,-2.4503,-2.452,-2.4664,-2.489,-2.4932,-2.499,-2.5061,-2.5018,-2.5103,-2.5075,-2.5047,-2.5103,-2.5103,-2.5117,-2.5115,-2.5169,-2.5184,-2.5184,-2.5184,-2.5157,-2.5144,-2.5131,-2.5202,-2.5286,-2.5383,-2.5522,-2.5675,-2.5703,-2.5702,-2.5716,-2.5758,-2.573,-2.5744,-2.5825,-2.595,-2.6132,-2.6721,-2.7499,-2.8106,-2.863,-2.9325,-2.9931,-3.0174,-3.0312,-3.0539,-3.0984,-3.1307,-3.1509,-3.1682,-3.1796,-3.1881,-3.2193,-3.2499,-3.2676,-3.2757,-3.2881,-3.3085,-3.3203,-3.3282,-3.345,-3.3617,-3.3745,-3.3864,-3.3781,-3.3672,-3.2999,-3.2241,-3.1645,-3.1195,-3.0626,-3.0199,-3.0347,-3.0493,-3.072,-3.0925,-3.1295,-3.1598,-3.1821,-3.2038,-3.2249,-3.237,-3.2471,-3.2487,-3.2537,-3.262,-3.2719,-3.2588,-3.2384,-3.2125,-3.1941,-2.9445,-2.9457,-2.9457,-2.9445,-2.937,-2.8771,-2.8336,-2.794,-2.7089,-2.6466,-2.6136,-2.5961,-2.5826,-2.5756,-2.5826,-2.5791,-2.5664,-2.5571,-2.5332,-2.4926,-2.4858,-2.4611,-2.435,-2.4126,-2.4082,-2.4455,-2.4343,-2.4415,-2.4528,-2.4376,-2.4234,-2.435,-2.4363,-2.4305,-2.4363,-2.4376,-2.4477,-2.4701,-2.4845,-2.4967,-2.519,-2.5289,-2.5319,-2.5332,-2.5319,-2.5319,-2.5359,-2.5494,-2.5596,-2.5612,-2.5745,-2.5884,-2.5894,-2.5909,-2.5909,-2.5923,-2.5923,-2.5757,-2.5716,-2.5883,-2.6217,-2.6608,-2.7415,-2.7973,-2.846,-2.899,-2.9421,-2.9668,-2.9777,-2.9931,-3.0388,-3.0673,-3.0911,-3.1102,-3.1292,-3.1452,-3.1682,-3.2051,-3.2345,-3.2385,-3.2511,-3.2691,-3.28,-3.2854,-3.2962,-3.3187,-3.3335,-3.3424,-3.3286,-3.308,-3.2437,-3.1718,-3.1037,-3.0452,-2.9904,-2.9716,-2.9897,-3.007,-3.0262,-3.0456,-3.0703,-3.1004,-3.1276,-3.1562,-3.1875,-3.1983,-3.2055,-3.2056,-3.2109,-3.2214,-3.2318,-3.2438,-3.2434,-3.2167,-3.2094,-2.8391,-2.8403,-2.8391,-2.8391,-2.8331,-2.7963,-2.7723,-2.7483,-2.6629,-2.621,-2.5741,-2.5433,-2.5349,-2.5076,-2.517,-2.5087,-2.4957,-2.4802,-2.4719,-2.466,-2.4495,-2.44,-2.4267,-2.4184,-2.4265,-2.4783,-2.4336,-2.4211,-2.4158,-2.387,-2.3696,-2.3582,-2.3471,-2.3488,-2.3488,-2.3599,-2.3828,-2.4185,-2.45,-2.481,-2.5158,-2.5329,-2.5423,-2.541,-2.5397,-2.5384,-2.5415,-2.561,-2.5795,-2.5918,-2.6078,-2.6264,-2.641,-2.6399,-2.6385,-2.6356,-2.6284,-2.612,-2.5901,-2.608,-2.6382,-2.6523,-2.7388,-2.8047,-2.8277,-2.8592,-2.8921,-2.9071,-2.9184,-2.9341,-2.9623,-2.9915,-3.019,-3.0388,-3.0644,-3.0866,-3.1117,-3.1509,-3.1695,-3.2079,-3.2135,-3.2247,-3.2401,-3.2511,-3.2594,-3.2718,-3.2854,-3.2958,-3.2839,-3.239,-3.1697,-3.1112,-3.0434,-2.9895,-2.9372,-2.9266,-2.9477,-2.9589,-2.9804,-2.9984,-3.0161,-3.0393,-3.0723,-3.1179,-3.1466,-3.156,-3.1653,-3.1691,-3.1765,-3.1839,-3.1948,-3.2055,-3.2126,-3.2179,-3.2144,-2.8002,-2.8002,-2.8014,-2.8002,-2.799,-2.7896,-2.7584,-2.7219,-2.6971,-2.6417,-2.5649,-2.5461,-2.5203,-2.4931,-2.4849,-2.4778,-2.4586,-2.4454,-2.4345,-2.4381,-2.4327,-2.4411,-2.4377,-2.4413,-2.4613,-2.4564,-2.4203,-2.394,-2.3908,-2.3536,-2.3373,-2.3312,-2.3065,-2.2867,-2.3016,-2.317,-2.3504,-2.3801,-2.4233,-2.4571,-2.4753,-2.4946,-2.5043,-2.5043,-2.5068,-2.503,-2.5032,-2.5218,-2.5339,-2.537,-2.5628,-2.607,-2.639,-2.6383,-2.635,-2.6374,-2.6374,-2.6267,-2.6106,-2.6223,-2.6595,-2.697,-2.7368,-2.7704,-2.8013,-2.8214,-2.8444,-2.8541,-2.8656,-2.8798,-2.8962,-2.923,-2.9449,-2.9699,-2.9901,-3.0085,-3.0282,-3.0553,-3.0925,-3.1422,-3.161,-3.1824,-3.1966,-3.2107,-3.2178,-3.2234,-3.229,-3.2428,-3.2446,-3.1743,-3.0877,-3.032,-2.9772,-2.9343,-2.8889,-2.8936,-2.9044,-2.9129,-2.9289,-2.9509,-2.9655,-2.9793,-3.014,-3.0559,-3.0922,-3.1117,-3.1215,-3.1291,-3.1387,-3.1466,-3.156,-3.1671,-3.171,-3.173,-3.1802,-2.7557,-2.7569,-2.7557,-2.7516,-2.7516,-2.7505,-2.7377,-2.7134,-2.6906,-2.6511,-2.5989,-2.5451,-2.5069,-2.485,-2.4583,-2.4429,-2.4345,-2.4273,-2.4189,-2.4236,-2.4309,-2.4345,-2.4345,-2.4454,-2.4502,-2.4398,-2.412,-2.3917,-2.3919,-2.3451,-2.3257,-2.3239,-2.3019,-2.2923,-2.2959,-2.3187,-2.3451,-2.3713,-2.4089,-2.4468,-2.4687,-2.4893,-2.4961,-2.5007,-2.5007,-2.5065,-2.52,-2.5415,-2.5628,-2.5761,-2.5935,-2.6207,-2.6358,-2.6425,-2.6356,-2.6422,-2.6451,-2.6337,-2.6281,-2.6378,-2.6812,-2.716,-2.7453,-2.7759,-2.8019,-2.8131,-2.8099,-2.8197,-2.8262,-2.836,-2.8444,-2.8605,-2.8753,-2.8917,-2.9139,-2.9296,-2.9453,-2.9654,-3.0101,-3.0644,-3.0984,-3.1248,-3.1596,-3.1682,-3.1754,-3.1739,-3.1739,-3.1838,-3.1992,-3.1131,-3.0147,-2.9664,-2.9215,-2.8768,-2.8468,-2.8573,-2.8614,-2.8685,-2.8818,-2.9006,-2.9167,-2.9296,-2.9506,-2.9837,-3.0182,-3.0535,-3.074,-3.0801,-3.0958,-3.1058,-3.11,-3.1179,-3.1237,-3.1293,-3.1332,-2.719,-2.719,-2.719,-2.719,-2.719,-2.719,-2.719,-2.711,-2.6846,-2.6605,-2.6375,-2.5532,-2.5027,-2.4809,-2.4453,-2.4189,-2.4189,-2.4189,-2.4189,-2.42,-2.4236,-2.4189,-2.4189,-2.4189,-2.4236,-2.4261,-2.4192,-2.4137,-2.3956,-2.3523,-2.3267,-2.3195,-2.3184,-2.3102,-2.3089,-2.3182,-2.3523,-2.3826,-2.4201,-2.4554,-2.4886,-2.5099,-2.5206,-2.5206,-2.5182,-2.524,-2.5309,-2.546,-2.5634,-2.5785,-2.5983,-2.6124,-2.6161,-2.6173,-2.6235,-2.6337,-2.6491,-2.6414,-2.6387,-2.6588,-2.6948,-2.715,-2.7578,-2.7796,-2.7835,-2.7815,-2.7914,-2.7947,-2.798,-2.798,-2.8,-2.8105,-2.8189,-2.8287,-2.8481,-2.8688,-2.8785,-2.8931,-2.9121,-2.9639,-3.0192,-3.0598,-3.0837,-3.0999,-3.1029,-3.1087,-3.1087,-3.1248,-3.1273,-3.0353,-2.9534,-2.9104,-2.8662,-2.8207,-2.8014,-2.8177,-2.822,-2.8268,-2.8405,-2.8597,-2.8677,-2.8779,-2.8997,-2.9227,-2.9483,-2.9821,-3.0059,-3.0309,-3.041,-3.0514,-3.058,-3.0662,-3.074,-3.0781,-3.0801,-2.719,-2.719,-2.719,-2.719,-2.719,-2.719,-2.719,-2.7179,-2.7098,-2.6864,-2.6456,-2.5849,-2.5322,-2.484,-2.437,-2.4175,-2.4189,-2.4152,-2.4116,-2.4116,-2.4116,-2.4116,-2.4189,-2.4189,-2.4116,-2.4116,-2.4152,-2.4189,-2.4019,-2.3616,-2.3432,-2.3363,-2.3133,-2.2821,-2.3063,-2.3341,-2.3409,-2.3629,-2.4165,-2.4588,-2.4766,-2.4814,-2.4849,-2.4825,-2.4825,-2.4849,-2.4885,-2.5004,-2.5123,-2.5158,-2.5335,-2.5406,-2.5406,-2.5418,-2.5441,-2.5683,-2.6108,-2.6655,-2.6548,-2.6742,-2.6894,-2.6961,-2.7142,-2.7159,-2.7248,-2.7348,-2.7416,-2.7403,-2.7503,-2.757,-2.7603,-2.7756,-2.7822,-2.7888,-2.8033,-2.8131,-2.8229,-2.8398,-2.8546,-2.8675,-2.9233,-2.9639,-2.9993,-3.0146,-3.0267,-3.0372,-3.0493,-3.0644,-3.0485,-2.9675,-2.8665,-2.8162,-2.7958,-2.7542,-2.7473,-2.765,-2.779,-2.7815,-2.7989,-2.8137,-2.8244,-2.8326,-2.8438,-2.8661,-2.8904,-2.9143,-2.9438,-2.9661,-2.9832,-2.9941,-3.0049,-3.0151,-3.0274,-3.0274,-3.0236,-2.7026,-2.719,-2.719,-2.719,-2.719,-2.7108,-2.7026,-2.7015,-2.6933,-2.6726,-2.6495,-2.6001,-2.5317,-2.4582,-2.4039,-2.3861,-2.3861,-2.3861,-2.3849,-2.3861,-2.3861,-2.3861,-2.3861,-2.3861,-2.3861,-2.3861,-2.3861,-2.3824,-2.3795,-2.3872,-2.3867,-2.3774,-2.3649,-2.3616,-2.3396,-2.3741,-2.3856,-2.3984,-2.4182,-2.437,-2.4454,-2.4454,-2.4406,-2.4298,-2.4309,-2.4309,-2.4334,-2.4322,-2.4455,-2.4527,-2.4647,-2.4671,-2.4683,-2.4683,-2.4718,-2.4897,-2.5252,-2.5709,-2.6139,-2.6418,-2.6543,-2.6645,-2.6645,-2.6714,-2.6829,-2.6897,-2.7011,-2.7146,-2.718,-2.7201,-2.7201,-2.7302,-2.7335,-2.7416,-2.7536,-2.7616,-2.7703,-2.7921,-2.8072,-2.8137,-2.8249,-2.8656,-2.9058,-2.9279,-2.9498,-2.9716,-2.9766,-2.9846,-2.9701,-2.9189,-2.8104,-2.705,-2.6931,-2.6829,-2.6904,-2.7034,-2.7244,-2.7346,-2.7539,-2.769,-2.7815,-2.79,-2.7949,-2.8024,-2.8204,-2.8479,-2.8787,-2.9106,-2.9357,-2.9441,-2.9486,-2.9598,-2.9665,-2.9605,-2.9627,-2.6603,-2.6891,-2.6974,-2.7026,-2.6921,-2.6809,-2.6685,-2.6644,-2.6479,-2.6437,-2.6259,-2.5717,-2.4909,-2.4198,-2.3702,-2.3446,-2.3446,-2.3457,-2.3446,-2.3446,-2.3457,-2.3457,-2.3457,-2.3446,-2.3457,-2.3457,-2.3446,-2.3446,-2.3567,-2.368,-2.3804,-2.4043,-2.3845,-2.3916,-2.4009,-2.3961,-2.3938,-2.395,-2.3973,-2.4043,-2.4043,-2.4032,-2.397,-2.3897,-2.3813,-2.3824,-2.3813,-2.3861,-2.3934,-2.4007,-2.408,-2.4116,-2.408,-2.4116,-2.4152,-2.4298,-2.4527,-2.4767,-2.5276,-2.5676,-2.5943,-2.6082,-2.6139,-2.6117,-2.6267,-2.6371,-2.644,-2.6555,-2.6739,-2.6773,-2.6807,-2.6841,-2.6863,-2.693,-2.6985,-2.7066,-2.7167,-2.7356,-2.7523,-2.7603,-2.7669,-2.7703,-2.8085,-2.8379,-2.8688,-2.8962,-2.9066,-2.9122,-2.8778,-2.8401,-2.7513,-2.6378,-2.6177,-2.6203,-2.6324,-2.6472,-2.6657,-2.6829,-2.7011,-2.7167,-2.7229,-2.7306,-2.7357,-2.7433,-2.7549,-2.7775,-2.8067,-2.8494,-2.8905,-2.8951,-2.8982,-2.9021,-2.9029,-2.9006,-2.9098,-2.5937,-2.6032,-2.6437,-2.6456,-2.6279,-2.6227,-2.6124,-2.5968,-2.5937,-2.5895,-2.5764,-2.4967,-2.4283,-2.3744,-2.3302,-2.3018,-2.3001,-2.3038,-2.2953,-2.2964,-2.3049,-2.2927,-2.2879,-2.2889,-2.2927,-2.2927,-2.2841,-2.2889,-2.3001,-2.2879,-2.325,-2.3593,-2.3556,-2.3629,-2.3629,-2.3629,-2.3641,-2.3641,-2.3629,-2.3641,-2.3641,-2.3629,-2.3641,-2.3604,-2.3593,-2.3629,-2.3604,-2.353,-2.353,-2.3556,-2.3556,-2.3567,-2.3519,-2.3519,-2.3593,-2.3666,-2.3849,-2.4068,-2.4358,-2.4921,-2.5276,-2.5382,-2.5382,-2.5418,-2.5511,-2.5594,-2.5676,-2.5781,-2.599,-2.6129,-2.6233,-2.6336,-2.6302,-2.6324,-2.6358,-2.6496,-2.6611,-2.676,-2.693,-2.7045,-2.7113,-2.7167,-2.7235,-2.759,-2.802,-2.8352,-2.8556,-2.857,-2.7899,-2.7423,-2.6708,-2.5937,-2.5619,-2.5564,-2.5715,-2.5893,-2.5988,-2.615,-2.6312,-2.6457,-2.6563,-2.6642,-2.6721,-2.6878,-2.6982,-2.7178,-2.7372,-2.7735,-2.8082,-2.8356,-2.8493,-2.8549,-2.8629,-2.87,-2.8779,-2.4946,-2.4893,-2.5062,-2.5359,-2.5737,-2.5485,-2.5369,-2.5285,-2.5115,-2.5031,-2.4988,-2.4344,-2.3816,-2.3361,-2.2847,-2.2457,-2.2256,-2.2138,-2.2101,-2.2014,-2.1977,-2.1928,-2.189,-2.189,-2.1852,-2.189,-2.1928,-2.189,-2.1852,-2.1918,-2.1966,-2.2231,-2.2767,-2.3187,-2.3213,-2.3139,-2.3187,-2.3187,-2.3224,-2.3235,-2.3224,-2.3224,-2.3187,-2.3038,-2.3038,-2.2964,-2.2852,-2.2852,-2.2852,-2.2852,-2.2879,-2.2927,-2.2927,-2.2927,-2.3001,-2.3086,-2.3261,-2.342,-2.3641,-2.4166,-2.4575,-2.4611,-2.4611,-2.4683,-2.4767,-2.4886,-2.4981,-2.5075,-2.5182,-2.5252,-2.5288,-2.5441,-2.5511,-2.5581,-2.5734,-2.5873,-2.6013,-2.6129,-2.6302,-2.6405,-2.6543,-2.6667,-2.6748,-2.6863,-2.7323,-2.7723,-2.792,-2.7916,-2.7256,-2.6647,-2.6031,-2.5484,-2.515,-2.5005,-2.5146,-2.523,-2.5314,-2.5467,-2.5633,-2.5797,-2.5947,-2.6015,-2.6123,-2.627,-2.639,-2.651,-2.6695,-2.6956,-2.7306,-2.7685,-2.7949,-2.8113,-2.822,-2.835,-2.8422,-2.3907,-2.3777,-2.3647,-2.4069,-2.4807,-2.4605,-2.4433,-2.4348,-2.4166,-2.4069,-2.4039,-2.3622,-2.3276,-2.288,-2.232,-2.1954,-2.1582,-2.1314,-2.1167,-2.1059,-2.0972,-2.0847,-2.0808,-2.0808,-2.0847,-2.0808,-2.0808,-2.0847,-2.0847,-2.0808,-2.0837,-2.1145,-2.1614,-2.1993,-2.2429,-2.2467,-2.2467,-2.2467,-2.2505,-2.2553,-2.2515,-2.259,-2.259,-2.244,-2.244,-2.2402,-2.2289,-2.2289,-2.2252,-2.2289,-2.2289,-2.2338,-2.2338,-2.2365,-2.2478,-2.259,-2.274,-2.2889,-2.315,-2.3641,-2.4007,-2.4068,-2.4032,-2.4105,-2.4166,-2.4202,-2.419,-2.4215,-2.4288,-2.4288,-2.4324,-2.4515,-2.4707,-2.4778,-2.4969,-2.5111,-2.5276,-2.5382,-2.5581,-2.5756,-2.5896,-2.5965,-2.6151,-2.6267,-2.676,-2.7154,-2.741,-2.7328,-2.6784,-2.6199,-2.5652,-2.5103,-2.4662,-2.4593,-2.4591,-2.4721,-2.485,-2.5005,-2.5146,-2.523,-2.5342,-2.5425,-2.5508,-2.5633,-2.5729,-2.5838,-2.5974,-2.6136,-2.659,-2.7126,-2.7357,-2.756,-2.779,-2.79,-2.7999,-2.2847,-2.2759,-2.2369,-2.2731,-2.3493,-2.3547,-2.3363,-2.3178,-2.3135,-2.3135,-2.3086,-2.2725,-2.2519,-2.2275,-2.1631,-2.126,-2.1005,-2.0497,-2.0245,-2.0206,-2.004,-1.9943,-1.9943,-1.9913,-1.9952,-1.9904,-1.9952,-1.9952,-1.9943,-1.9952,-1.9943,-1.9943,-2.0216,-2.0605,-2.1203,-2.1242,-2.1242,-2.128,-2.1443,-2.153,-2.1568,-2.1721,-2.1797,-2.1797,-2.1759,-2.1721,-2.1683,-2.1683,-2.1683,-2.1759,-2.1873,-2.1959,-2.1997,-2.2149,-2.2252,-2.23,-2.2338,-2.2402,-2.2478,-2.3198,-2.3446,-2.3482,-2.3446,-2.3519,-2.3567,-2.3494,-2.3372,-2.346,-2.3398,-2.3361,-2.3482,-2.3677,-2.3849,-2.3959,-2.4141,-2.4286,-2.4419,-2.4551,-2.4767,-2.4909,-2.5004,-2.5111,-2.5382,-2.5676,-2.6176,-2.6589,-2.6909,-2.6776,-2.6327,-2.5775,-2.5241,-2.4864,-2.4395,-2.4138,-2.4128,-2.4232,-2.4363,-2.452,-2.4649,-2.4721,-2.4806,-2.492,-2.4977,-2.5061,-2.5174,-2.53,-2.5272,-2.5286,-2.5811,-2.6324,-2.6733,-2.6993,-2.7244,-2.7412,-2.7473,-2.2008,-2.183,-2.1687,-2.1731,-2.1891,-2.2176,-2.2264,-2.2176,-2.2176,-2.2176,-2.2157,-2.2007,-2.1783,-2.1437,-2.1076,-2.0645,-2.0255,-1.9712,-1.939,-1.939,-1.9222,-1.9112,-1.9112,-1.9143,-1.9112,-1.9112,-1.9112,-1.9152,-1.9112,-1.9143,-1.9112,-1.9112,-1.9222,-1.9569,-2.0148,-2.0333,-2.0333,-2.0372,-2.0508,-2.0644,-2.0673,-2.0867,-2.0992,-2.0992,-2.0992,-2.0992,-2.0992,-2.0992,-2.1069,-2.1175,-2.13,-2.1415,-2.1464,-2.1617,-2.1627,-2.1665,-2.1703,-2.1883,-2.1987,-2.2327,-2.2515,-2.2654,-2.2815,-2.2852,-2.2788,-2.274,-2.2703,-2.2703,-2.2703,-2.2703,-2.2777,-2.2964,-2.3102,-2.315,-2.3261,-2.3398,-2.3497,-2.3655,-2.3801,-2.3911,-2.402,-2.4371,-2.4695,-2.4814,-2.5241,-2.5629,-2.5908,-2.6371,-2.6181,-2.5486,-2.4893,-2.4614,-2.4213,-2.382,-2.3658,-2.3763,-2.394,-2.4099,-2.4187,-2.4274,-2.4361,-2.4434,-2.4549,-2.4635,-2.4692,-2.4763,-2.4806,-2.4892,-2.509,-2.5495,-2.5933,-2.6349,-2.6669,-2.6788,-2.6852,-2.1293,-2.1167,-2.1077,-2.0925,-2.0862,-2.1275,-2.1463,-2.1454,-2.1454,-2.1454,-2.1454,-2.1454,-2.1328,-2.0992,-2.0639,-2.0259,-1.9828,-1.9236,-1.8847,-1.8798,-1.8571,-1.8531,-1.8482,-1.8442,-1.8482,-1.8451,-1.8451,-1.8451,-1.8482,-1.8442,-1.8482,-1.8482,-1.85,-1.8745,-1.9164,-1.9332,-1.9499,-1.9529,-1.9657,-1.9824,-1.9854,-1.9971,-2.0128,-2.0128,-2.0128,-2.0177,-2.0167,-2.0206,-2.0294,-2.045,-2.0605,-2.0722,-2.0848,-2.0935,-2.0974,-2.1051,-2.1118,-2.1262,-2.1339,-2.1377,-2.1558,-2.1711,-2.1987,-2.2187,-2.2187,-2.2149,-2.2187,-2.2149,-2.2149,-2.2149,-2.2214,-2.2365,-2.2478,-2.2515,-2.2628,-2.2729,-2.2841,-2.299,-2.3065,-2.315,-2.3298,-2.3655,-2.3936,-2.4009,-2.419,-2.454,-2.4862,-2.5323,-2.5706,-2.4973,-2.4336,-2.406,-2.3716,-2.3249,-2.3108,-2.3271,-2.345,-2.3671,-2.376,-2.3776,-2.3923,-2.4028,-2.4144,-2.4232,-2.4274,-2.4332,-2.4447,-2.4549,-2.4708,-2.4878,-2.5188,-2.5605,-2.6014,-2.6149,-2.6203,-2.0699,-2.0654,-2.0382,-2.0337,-2.0382,-2.0817,-2.0997,-2.0997,-2.0997,-2.0988,-2.0952,-2.1006,-2.0953,-2.0899,-2.0527,-2.0165,-1.9724,-1.9169,-1.8778,-1.8475,-1.8244,-1.8138,-1.808,-1.8072,-1.8121,-1.808,-1.8072,-1.8161,-1.804,-1.8121,-1.8121,-1.808,-1.8121,-1.8224,-1.8393,-1.8603,-1.8763,-1.8834,-1.8993,-1.9112,-1.9152,-1.9271,-1.939,-1.9429,-1.942,-1.9429,-1.9469,-1.9508,-1.9597,-1.9754,-1.9981,-2.0147,-2.0303,-2.0459,-2.0527,-2.0557,-2.0518,-2.0518,-2.0518,-2.0557,-2.0557,-2.075,-2.1185,-2.153,-2.1693,-2.1578,-2.1606,-2.1655,-2.1655,-2.1693,-2.1759,-2.1873,-2.2025,-2.2101,-2.2176,-2.2252,-2.2327,-2.2402,-2.2478,-2.259,-2.2703,-2.2916,-2.3139,-2.325,-2.3361,-2.3497,-2.3815,-2.3998,-2.4247,-2.395,-2.3416,-2.3346,-2.2951,-2.2547,-2.25,-2.269,-2.2854,-2.3065,-2.3241,-2.33,-2.345,-2.3569,-2.3616,-2.3675,-2.3819,-2.3907,-2.407,-2.4173,-2.4234,-2.4436,-2.4565,-2.4935,-2.5398,-2.5495,-2.5577,-2.0428,-2.0382,-2.0329,-2.0292,-2.0337,-2.0419,-2.0518,-2.051,-2.051,-2.051,-2.0518,-2.051,-2.0555,-2.0475,-2.0076,-1.9877,-1.9531,-1.9092,-1.8747,-1.8415,-1.8226,-1.8083,-1.7991,-1.7991,-1.7991,-1.7991,-1.7991,-1.7991,-1.7991,-1.7991,-1.7991,-1.8031,-1.7991,-1.7991,-1.808,-1.8161,-1.8201,-1.8282,-1.8482,-1.8563,-1.8643,-1.8763,-1.8843,-1.8843,-1.8843,-1.8882,-1.8882,-1.8962,-1.9042,-1.9231,-1.9311,-1.939,-1.9578,-1.9657,-1.9657,-1.9696,-1.9657,-1.9657,-1.9648,-1.9657,-1.9696,-1.9736,-2.001,-2.0362,-2.0712,-2.0992,-2.1021,-2.1146,-2.1195,-2.1272,-2.1349,-2.1425,-2.1502,-2.1568,-2.1645,-2.1721,-2.1797,-2.1873,-2.1949,-2.2063,-2.2176,-2.2289,-2.2478,-2.2553,-2.2654,-2.2665,-2.2777,-2.2916,-2.3018,-2.278,-2.2719,-2.2673,-2.2357,-2.1978,-2.1918,-2.2051,-2.2235,-2.239,-2.2653,-2.2856,-2.2928,-2.3019,-2.3072,-2.318,-2.33,-2.3509,-2.3717,-2.375,-2.3725,-2.378,-2.3927,-2.4334,-2.4721,-2.485,-2.5006,-2.0292,-2.0292,-2.0292,-2.0292,-2.0292,-2.0292,-2.0292,-2.0292,-2.0292,-2.0292,-2.0292,-2.0292,-2.0292,-2.0311,-2.0069,-1.9881,-1.9684,-1.9341,-1.8948,-1.8535,-1.8316,-1.8145,-1.8059,-1.8,-1.7991,-1.7991,-1.7991,-1.7991,-1.7991,-1.7991,-1.7991,-1.7991,-1.7991,-1.7991,-1.8031,-1.8031,-1.8031,-1.808,-1.8161,-1.8233,-1.8322,-1.8362,-1.8411,-1.8451,-1.8451,-1.8451,-1.8442,-1.8491,-1.8643,-1.8754,-1.8803,-1.8922,-1.9082,-1.9082,-1.9082,-1.9121,-1.9121,-1.9121,-1.9121,-1.9112,-1.9073,-1.9073,-1.9073,-1.935,-1.9745,-2.0059,-2.0372,-2.0644,-2.0731,-2.0858,-2.0935,-2.0974,-2.0964,-2.0964,-2.1041,-2.1156,-2.1233,-2.1349,-2.1464,-2.154,-2.1655,-2.1769,-2.1845,-2.1911,-2.1911,-2.1921,-2.1921,-2.1949,-2.2136,-2.2186,-2.2215,-2.2238,-2.1878,-2.1496,-2.1523,-2.1647,-2.1966,-2.218,-2.2289,-2.2436,-2.2457,-2.2388,-2.2365,-2.258,-2.2805,-2.2975,-2.3125,-2.3185,-2.3173,-2.3245,-2.3318,-2.3603,-2.3985,-2.4303,-2.4492,-2.0292,-2.0292,-2.0292,-2.0292,-2.0292,-2.0292,-2.0292,-2.0292,-2.0246,-2.0283,-2.0283,-2.0292,-2.0292,-2.0275,-2.0161,-1.9979,-1.9756,-1.9465,-1.9109,-1.8573,-1.8379,-1.8226,-1.8048,-1.7976,-1.7838,-1.7919,-1.7919,-1.7829,-1.7919,-1.7878,-1.7878,-1.7951,-1.7919,-1.7878,-1.7829,-1.7838,-1.7838,-1.7878,-1.7878,-1.7951,-1.8031,-1.8031,-1.7991,-1.8031,-1.8031,-1.8031,-1.8121,-1.8201,-1.8353,-1.8442,-1.8523,-1.8612,-1.8612,-1.8612,-1.8652,-1.8652,-1.8652,-1.8652,-1.8612,-1.8612,-1.8643,-1.8652,-1.8652,-1.8772,-1.9042,-1.9429,-1.9824,-2.002,-2.0108,-2.0216,-2.0294,-2.0294,-2.0333,-2.0372,-2.0498,-2.0644,-2.0838,-2.0954,-2.1069,-2.1156,-2.1195,-2.1272,-2.1272,-2.1339,-2.1339,-2.1233,-2.1233,-2.1233,-2.138,-2.1559,-2.1676,-2.1782,-2.1447,-2.121,-2.1392,-2.1586,-2.1879,-2.2049,-2.2067,-2.1935,-2.1881,-2.1763,-2.1647,-2.1908,-2.2168,-2.2322,-2.2463,-2.2494,-2.2586,-2.2702,-2.2793,-2.2866,-2.3198,-2.3569,-2.3894,-2.0292,-2.0292,-2.0292,-2.0292,-2.0292,-2.0292,-2.0155,-2.0019,-1.9982,-2.0102,-2.0246,-2.0292,-2.0292,-2.0246,-2.0065,-1.9881,-1.976,-1.9399,-1.9112,-1.8661,-1.837,-1.7962,-1.7821,-1.7581,-1.7539,-1.7554,-1.7554,-1.7554,-1.7554,-1.7554,-1.7554,-1.7554,-1.7514,-1.7505,-1.7465,-1.7473,-1.7473,-1.7473,-1.7465,-1.7587,-1.7749,-1.7951,-1.7991,-1.8,-1.8,-1.7959,-1.8,-1.8031,-1.8072,-1.8112,-1.8112,-1.8161,-1.817,-1.817,-1.8161,-1.8161,-1.8161,-1.817,-1.817,-1.817,-1.8161,-1.8161,-1.8201,-1.8322,-1.8523,-1.8922,-1.9201,-1.932,-1.9469,-1.9548,-1.9627,-1.9666,-1.9706,-1.9784,-1.9912,-2.0137,-2.0411,-2.0527,-2.0683,-2.0722,-2.0731,-2.0731,-2.0731,-2.0722,-2.0722,-2.076,-2.076,-2.0799,-2.0915,-2.107,-2.1142,-2.1186,-2.1066,-2.0974,-2.1211,-2.1449,-2.1713,-2.1734,-2.1678,-2.1495,-2.1319,-2.1193,-2.1124,-2.1296,-2.1482,-2.1596,-2.171,-2.1803,-2.1896,-2.2044,-2.2118,-2.2149,-2.2347,-2.2684,-2.3108,-1.9982,-1.9982,-1.9982,-1.9982,-1.9982,-1.9982,-1.9899,-1.9762,-1.9654,-1.9654,-1.9837,-1.9936,-1.9982,-1.9982,-1.9799,-1.9608,-1.953,-1.9282,-1.8828,-1.8419,-1.7993,-1.7531,-1.7267,-1.7012,-1.695,-1.6935,-1.7057,-1.7098,-1.7057,-1.7057,-1.7057,-1.6984,-1.6935,-1.6894,-1.6853,-1.6812,-1.6812,-1.6804,-1.6845,-1.6968,-1.7253,-1.7465,-1.7716,-1.7757,-1.7716,-1.7716,-1.7716,-1.7716,-1.7716,-1.7716,-1.7716,-1.7716,-1.7757,-1.7757,-1.7757,-1.7757,-1.7716,-1.7716,-1.7716,-1.7716,-1.7716,-1.7716,-1.7708,-1.7838,-1.7838,-1.8201,-1.8563,-1.8723,-1.8971,-1.9121,-1.9121,-1.9121,-1.9121,-1.9201,-1.9359,-1.9548,-1.9745,-1.9854,-1.9932,-1.9932,-1.9932,-1.9932,-1.9932,-1.9942,-1.9971,-1.9971,-2.005,-2.0177,-2.0333,-2.0518,-2.0621,-2.0681,-2.0589,-2.0806,-2.116,-2.1328,-2.1466,-2.1444,-2.1356,-2.1131,-2.0941,-2.0729,-2.0654,-2.0738,-2.0777,-2.0762,-2.089,-2.1017,-2.1123,-2.123,-2.1336,-2.14,-2.1632,-2.1819,-2.2118,-1.9396,-1.9442,-1.9442,-1.9442,-1.9496,-1.945,-1.9396,-1.935,-1.9104,-1.895,-1.8912,-1.9112,-1.9304,-1.9442,-1.935,-1.9196,-1.8988,-1.8656,-1.8315,-1.7931,-1.7449,-1.6995,-1.6566,-1.6213,-1.616,-1.6219,-1.636,-1.6443,-1.6476,-1.6435,-1.6353,-1.627,-1.6188,-1.6139,-1.5974,-1.5933,-1.5933,-1.5933,-1.5891,-1.5933,-1.627,-1.6763,-1.7057,-1.7229,-1.7229,-1.7229,-1.7221,-1.727,-1.727,-1.727,-1.727,-1.731,-1.731,-1.731,-1.731,-1.731,-1.727,-1.727,-1.731,-1.731,-1.731,-1.727,-1.727,-1.727,-1.7261,-1.7424,-1.7797,-1.804,-1.8331,-1.8531,-1.8531,-1.8612,-1.8612,-1.8692,-1.8882,-1.9002,-1.9152,-1.9222,-1.9222,-1.9222,-1.9262,-1.9262,-1.9262,-1.9231,-1.9271,-1.9271,-1.9311,-1.9439,-1.9597,-1.9824,-1.9983,-2.013,-2.0168,-2.0505,-2.0951,-2.1072,-2.1141,-2.1261,-2.1143,-2.087,-2.059,-2.0403,-2.0218,-2.0115,-2.0129,-2.0183,-2.0172,-2.0269,-2.0334,-2.0506,-2.0603,-2.0764,-2.0912,-2.1103,-2.1167,-1.8496,-1.8627,-1.8619,-1.8727,-1.8874,-1.8719,-1.8542,-1.8365,-1.8118,-1.7878,-1.7746,-1.7746,-1.7986,-1.8581,-1.821,-1.8017,-1.7971,-1.7839,-1.7699,-1.7387,-1.679,-1.6409,-1.5973,-1.5433,-1.5332,-1.542,-1.5526,-1.5643,-1.565,-1.565,-1.5526,-1.5374,-1.5333,-1.5242,-1.5026,-1.4977,-1.4977,-1.4977,-1.4977,-1.4977,-1.5235,-1.5684,-1.6221,-1.6345,-1.6345,-1.6345,-1.6386,-1.6517,-1.6558,-1.6648,-1.6738,-1.6779,-1.6779,-1.673,-1.6771,-1.673,-1.673,-1.6738,-1.6689,-1.6689,-1.6656,-1.6484,-1.6476,-1.6517,-1.6517,-1.6517,-1.6804,-1.7017,-1.7343,-1.7781,-1.7861,-1.804,-1.8121,-1.8362,-1.8523,-1.8612,-1.8723,-1.8723,-1.8723,-1.8763,-1.8763,-1.8803,-1.8803,-1.8803,-1.8812,-1.8851,-1.8891,-1.8971,-1.9121,-1.924,-1.939,-1.9548,-1.9706,-2.0128,-2.0537,-2.0615,-2.07,-2.0884,-2.0996,-2.0775,-2.0483,-2.0089,-1.9917,-1.9802,-1.9728,-1.9735,-1.967,-1.9561,-1.9758,-1.9922,-1.9998,-2.0118,-2.0269,-2.0399,-2.0463]},{"header":{"parameterUnit":"m.s-1","parameterCategory":1,"la1":31.0,"la2":29.5877,"lo1":-88.7671,"lo2":-86.6584,"dy":0.0162,"dx":0.0185,"nx":115,"ny":88,"refTime":"2024-08-22T12:00:00:Z","depth":0,"parameterNumber":3,"parameterNumberName":"V-component_of_WINDS"},"data":[0.0,0.0,0.0,0.0,0.0,0.0,0.0,0.0,0.0,0.0,0.0,0.0,0.0,0.0,0.0,0.0,0.0,0.0,0.0,0.0,0.0,0.0,0.0,0.0,0.0,0.0,0.0,0.0,0.0,0.0,0.0,0.0,0.0,0.0,0.0,0.0,0.0,0.0,0.0,0.0,0.0,0.0,0.0,0.0,0.0,0.0,0.0,0.0,0.0,0.0,0.0,0.0,0.0,0.0,0.0,0.0,0.0,0.0,0.0,0.0,0.0,0.0,0.0,0.0,0.0,0.0,0.0,0.0,0.0,0.0,0.0,0.0,0.0,0.0,0.0,0.0,0.0,0.0,0.0,0.0,0.0,0.0,0.0,0.0,0.0,0.0,0.0,0.0,0.0,0.0,0.0,0.0,0.0,0.0,0.0,0.0,0.0,0.0,0.0,0.0,0.0,0.0,0.0,0.0,0.0,0.0,0.0,0.0,0.0,0.0,0.0,0.0,0.0,0.0,0.0,0.0,0.0,0.0,0.0,0.0,0.0,0.0,0.0,0.0,0.0,0.0,0.0,0.0,0.0,0.0,0.0,0.0,0.0,0.0,0.0,0.0,0.0,0.0,0.0,0.0,0.0,0.0,0.0,0.0,0.0,0.0,0.0,0.0,0.0,0.0,0.0,0.0,0.0,0.0,0.0,0.0,0.0,0.0,0.0,0.0,0.0,0.0,0.0,0.0,0.0,0.0,0.0,0.0,0.0,0.0,0.0,0.0,0.0,0.0,0.0,0.0,0.0,0.0,0.0,0.0,0.0,0.0,0.0,0.0,0.0,0.0,0.0,0.0,0.0,0.0,0.0,0.0,0.0,0.0,0.0,0.0,0.0,0.0,0.0,0.0,0.0,0.0,0.0,0.0,0.0,0.0,0.0,0.0,0.0,0.0,0.0,0.0,0.0,0.0,0.0,0.0,0.0,0.0,0.0,0.0,0.0,0.0,0.0,0.0,0.0,0.0,0.0,0.0,0.0,0.0,0.0,0.0,0.0,0.0,0.0,0.0,0.0,0.0,0.0,0.0,0.0,0.0,0.0,0.0,0.0,0.0,0.0,0.0,0.0,0.0,0.0,0.0,0.0,0.0,0.0,0.0,0.0,0.0,0.0,0.0,0.0,0.0,0.0,0.0,0.0,0.0,0.0,0.0,0.0,0.0,0.0,0.0,0.0,0.0,0.0,0.0,0.0,0.0,0.0,0.0,0.0,0.0,0.0,0.0,0.0,0.0,0.0,0.0,0.0,0.0,0.0,0.0,0.0,0.0,0.0,0.0,0.0,0.0,0.0,0.0,0.0,0.0,0.0,0.0,0.0,0.0,0.0,0.0,0.0,0.0,0.0,0.0,0.0,0.0,0.0,0.0,0.0,0.0,0.0,0.0,0.0,0.0,0.0,0.0,0.0,0.0,0.0,0.0,0.0,0.0,0.0,0.0,0.0,0.0,0.0,0.0,0.0,0.0,0.0,0.0,0.0,0.0,0.0,0.0,0.0,0.0,0.0,0.0,0.0,0.0,0.0,0.0,0.0,0.0,0.0,0.0,0.0,0.0,0.0,0.0,0.0,0.0,0.0,0.0,0.0,0.0,0.0,0.0,0.0,0.0,0.0,0.0,0.0,0.0,0.0,0.0,0.0,0.0,0.0,0.0,0.0,0.0,0.0,0.0,0.0,0.0,0.0,0.0,0.0,0.0,0.0,0.0,0.0,0.0,0.0,0.0,0.0,0.0,0.0,0.0,0.0,0.0,0.0,0.0,0.0,0.0,0.0,0.0,0.0,0.0,0.0,0.0,0.0,0.0,0.0,0.0,0.0,0.0,0.0,0.0,0.0,0.0,0.0,0.0,0.0,0.0,0.0,0.0,0.0,0.0,0.0,0.0,0.0,0.0,0.0,0.0,0.0,0.0,0.0,0.0,0.0,0.0,0.0,0.0,0.0,0.0,0.0,0.0,0.0,0.0,0.0,0.0,0.0,0.0,0.0,0.0,0.0,0.0,0.0,0.0,0.0,0.0,0.0,0.0,0.0,0.0,0.0,0.0,0.0,0.0,0.0,0.0,0.0,0.0,0.0,0.0,0.0,0.0,0.0,0.0,0.0,0.0,0.0,0.0,0.0,0.0,0.0,0.0,0.0,0.0,0.0,0.0,0.0,0.0,0.0,0.0,0.0,0.0,0.0,0.0,0.0,0.0,0.0,0.0,0.0,0.0,0.0,0.0,0.0,0.0,0.0,0.0,0.0,0.0,0.0,0.0,0.0,0.0,0.0,0.0,0.0,0.0,0.0,0.0,0.0,0.0,0.0,0.0,0.0,0.0,0.0,0.0,0.0,0.0,0.0,0.0,0.0,0.0,0.0,0.0,0.0,0.0,0.0,0.0,0.0,0.0,0.0,0.0,0.0,0.0,0.0,0.0,0.0,0.0,0.0,0.0,0.0,0.0,0.0,0.0,0.0,0.0,0.0,0.0,0.0,0.0,0.0,0.0,0.0,0.0,0.0,0.0,0.0,0.0,0.0,0.0,0.0,0.0,0.0,0.0,0.0,0.0,0.0,0.0,0.0,0.0,0.0,0.0,0.0,0.0,0.0,0.0,0.0,0.0,0.0,0.0,0.0,0.0,0.0,0.0,0.0,0.0,0.0,0.0,0.0,0.0,0.0,0.0,0.0,0.0,0.0,0.0,0.0,0.0,0.0,0.0,0.0,0.0,0.0,0.0,0.0,0.0,0.0,0.0,0.0,0.0,0.0,0.0,0.0,0.0,0.0,0.0,0.0,0.0,0.0,0.0,0.0,0.0,0.0,0.0,0.0,0.0,0.0,0.0,0.0,0.0,0.0,0.0,0.0,0.0,0.0,0.0,0.0,0.0,0.0,0.0,0.0,0.0,0.0,0.0,0.0,0.0,0.0,0.0,0.0,0.0,0.0,0.0,0.0,0.0,0.0,0.0,0.0,0.0,0.0,0.0,0.0,0.0,0.0,0.0,0.0,0.0,0.0,0.0,0.0,0.0,0.0,0.0,0.0,0.0,0.0,0.0,0.0,0.0,0.0,0.0,0.0,0.0,0.0,0.0,0.0,0.0,0.0,0.0,0.0,0.0,0.0,0.0,0.0,0.0,0.0,0.0,0.0,0.0,0.0,0.0,0.0,0.0,0.0,0.0,0.0,0.0,0.0,0.0,0.0,0.0,0.0,0.0,0.0,0.0,0.0,0.0,0.0,0.0,0.0,0.0,0.0,0.0,0.0,0.0,0.0,0.0,0.0,0.0,0.0,0.0,0.0,0.0,0.0,0.0,0.0,0.0,0.0,0.0,0.0,0.0,0.0,0.0,0.0,0.0,0.0,0.0,0.0,0.0,0.0,0.0,0.0,0.0,0.0,0.0,0.0,0.0,0.0,0.0,0.0,0.0,0.0,0.0,0.0,0.0,0.0,0.0,0.0,0.0,0.0,0.0,0.0,0.0,0.0,0.0,0.0,0.0,0.0,0.0,0.0,0.0,0.0,0.0,0.0,0.0,0.0,0.0,0.0,0.0,0.0,0.0,0.0,0.0,0.0,0.0,0.0,0.0,0.0,0.0,0.0,0.0,0.0,0.0,0.0,0.0,0.0,0.0,0.0,0.0,0.0,0.0,0.0,0.0,0.0,0.0,0.0,0.0,0.0,0.0,0.0,0.0,0.0,0.0,0.0,0.0,0.0,0.0,0.0,0.0,0.0,0.0,0.0,0.0,0.0,0.0,0.0,0.0,0.0,0.0,0.0,0.0,0.0,0.0,0.0,0.0,0.0,0.0,0.0,0.0,0.0,0.0,0.0,0.0,0.0,0.0,0.0,0.0,0.0,0.0,0.0,0.0,0.0,0.0,0.0,0.0,0.0,0.0,0.0,0.0,0.0,0.0,0.0,0.0,0.0,0.0,0.0,0.0,0.0,0.0,0.0,0.0,0.0,0.0,0.0,0.0,0.0,0.0,0.0,0.0,0.0,0.0,0.0,0.0,0.0,0.0,0.0,0.0,0.0,0.0,0.0,0.0,0.0,0.0,0.0,0.0,0.0,0.0,0.0,0.0,0.0,0.0,0.0,0.0,0.0,0.0,0.0,0.0,0.0,0.0,0.0,0.0,0.0,0.0,0.0,0.0,0.0,0.0,0.0,0.0,0.0,0.0,0.0,0.0,0.0,0.0,0.0,0.0,0.0,0.0,0.0,0.0,0.0,0.0,0.0,0.0,0.0,0.0,0.0,0.0,0.0,0.0,0.5095,0.0,0.0,0.0,0.0,0.0,0.0,0.0,0.0,0.0,0.0,0.0,0.0,0.0,0.0,0.0,0.0,0.0,0.0,0.0,0.0,0.0,0.0,0.0,0.0,0.0,0.0,0.0,0.0,0.0,0.0,0.0,0.0,0.0,0.0,0.0,0.0,0.0,0.0,0.0,0.0,0.0,0.0,0.0,0.0,0.0,0.0,0.0,0.0,0.0,0.0,0.0,0.0,0.0,0.0,0.0,0.0,0.0,0.0,0.0,0.0,0.0,0.0,0.0,0.0,0.0,0.0,0.0,0.0,0.0,0.0,0.0,0.0,0.0,0.0,0.0,0.0,0.0,0.0,0.0,0.0,0.0,0.0,0.0,0.0,0.0,0.0,0.0,0.0,0.0,0.0,0.0,0.0,0.0,0.0,0.0,0.0,0.0,0.0,0.0,0.0,0.0,0.0,0.0,0.0,0.0,0.0,0.0,0.0,0.0,0.0,0.5455,0.5455,0.537,0.5216,0.4995,0.0,0.0,0.0,0.0,0.0,0.0,0.0,0.0,0.0,0.0,0.0,0.0,0.0,0.0,0.0,0.0,0.0,0.0,0.0,0.0,0.0,0.0,0.0,0.0,0.0,0.0,0.0,0.0,0.0,0.0,0.0,0.0,0.0,0.0,0.0,0.0,0.0,0.0,0.0,0.0,0.0,0.0,0.0,0.0,0.0,0.0,0.0,0.0,0.0,0.0,0.0,0.0,0.0,0.0,0.0,0.0,0.0,0.0,0.0,0.0,0.0,0.0,0.0,0.0,0.0,0.0,0.0,0.0,0.0,0.0,0.0,0.0,0.0,0.0,0.0,0.0,0.0,0.0,0.0,0.0,0.0,0.0,0.0,0.0,0.0,0.0,0.0,0.0,0.0,0.0,0.0,0.0,0.0,0.0,0.0,0.0,0.0,0.0,0.0,0.0,0.0,0.0,0.0,0.0,0.0,0.0,0.0,0.0,0.0,0.0,0.0,0.0,0.5098,0.4959,0.4746,0.0,0.0,0.0,0.0,0.0,0.0,0.0,0.0,0.0,0.0,0.0,0.0,0.0,0.0,0.0,0.0,0.0,0.0,0.0,0.0,0.0,0.0,0.0,0.0,0.0,0.0,0.0,0.0,0.0,0.0,0.0,0.0,0.0,0.0,0.0,0.0,0.0,0.0,0.0,0.0,0.0,0.0,0.0,0.0,0.0,0.0,0.0,0.0,0.0,0.0,0.0,0.0,0.0,0.0,0.0,0.0,0.0,0.0,0.0,0.0,0.0,0.0,0.0,0.0,0.0,0.0,0.0,0.0,0.0,0.0,0.0,0.0,0.0,0.0,0.0,0.0,0.0,0.0,0.0,0.0,0.0,0.0,0.0,0.0,0.0,0.0,0.0,0.0,0.0,0.0,0.0,0.0,0.0,0.0,0.0,0.0,0.0,0.0,0.0,0.0,0.0,0.0,0.0,0.0,0.0,0.0,0.0,0.0,0.0,0.0,0.5017,0.5017,0.5002,0.0,0.4304,0.0,0.0,0.0,0.0,0.0,0.0,0.0,0.0,0.0,0.0,0.0,0.0,0.0,0.0,0.0,0.0,0.0,0.0,0.0,0.0,0.0,0.0,0.0,0.0,0.0,0.0,0.0,0.0,0.0,0.0,0.0,0.0,0.0,0.0,0.0,0.0,0.0,0.0,0.0,0.0,0.0,0.0,0.0,0.0,0.0,0.0,0.0,0.0,0.0,0.0,0.0,0.0,0.0,0.0,0.0,0.0,0.0,0.0,0.0,0.0,0.0,0.0,0.0,0.0,0.0,0.0,0.0,0.0,0.0,0.0,0.0,0.0,0.0,0.0,0.0,0.0,0.0,0.0,0.0,0.0,0.0,0.0,0.0,0.0,0.0,0.0,0.0,0.0,0.0,0.0,0.0,0.0,0.0,0.0,0.0,0.0,0.0,0.0,0.0,0.0,0.0,0.0,0.0,0.0,0.0,0.0,0.0,0.0,0.0,0.0,0.0,0.4514,0.4512,0.4372,0.0,0.0,0.0,0.0,0.0,0.0,0.0,0.0,0.0,0.0,0.0,0.0,0.0,0.0,0.0,0.0,0.0,0.0,0.0,0.0,0.0,0.0,0.0,0.0,0.0,0.0,0.0,0.0,0.0,0.0,0.0,0.0,0.0,0.0,0.0,0.0,0.0,0.0,0.0,0.0,0.0,0.0,0.0,0.0,0.0,0.0,0.0,0.0,0.0,0.0,0.0,0.0,0.0,0.0,0.0,0.0,0.0,0.0,0.0,0.0,0.0,0.0,0.0,0.0,0.0,0.0,0.0,0.0,0.0,0.0,0.0,0.0,0.0,0.0,0.0,0.0,0.0,0.0,0.0,0.0,0.0,0.0,0.0,0.0,0.0,0.0,0.0,0.0,0.0,0.0,0.0,0.0,0.0,0.0,0.0,0.0,0.0,0.0,0.0,0.0,0.0,0.0,0.0,0.0,0.0,0.0,0.0,0.0,0.0,0.0,0.4206,0.0,0.4099,0.4094,0.3982,0.3757,0.0,0.0,0.0,0.0,0.0,0.0,0.0,0.0,0.0,0.0,0.0,0.0,0.0,0.0,0.0,0.0,0.0,0.0,0.0,0.0,0.0,0.0,0.0,0.0,0.0,0.0,0.0,0.0,0.0,0.0,0.0,0.0,0.0,0.0,0.0,0.0,0.0,0.0,0.0,0.0,0.0,0.0,0.0,0.0,0.0,0.0,0.0,0.0,0.0,0.0,0.0,0.0,0.0,0.0,0.0,0.0,0.0,0.0,0.0,0.0,0.0,0.0,0.0,0.0,0.0,0.0,0.0,0.0,0.0,0.0,0.0,0.0,0.0,0.0,0.0,0.0,0.0,0.0,0.0,0.0,0.0,0.0,0.0,0.0,0.0,0.0,0.0,0.0,0.0,0.0,0.0,0.0,0.0,0.0,0.0,0.0,0.0,0.0,0.0,0.0,0.0,0.0,0.0,0.0,0.0,0.0,0.0,0.0,0.0,0.3765,0.3813,0.381,0.3806,0.3694,0.0,0.0,0.0,0.0,0.0,0.0,0.0,0.0,0.0,0.0,0.0,0.0,0.0,0.0,0.0,0.0,0.0,0.0,0.0,0.0,0.0,0.0,0.0,0.0,0.0,0.0,0.0,0.0,0.0,0.0,0.0,0.0,0.0,0.0,0.0,0.0,0.0,0.0,0.0,0.0,0.0,0.0,0.0,0.0,0.0,0.0,0.0,0.0,0.0,0.0,0.0,0.0,0.0,0.0,0.0,0.0,0.0,0.0,0.0,0.0,0.0,0.0,0.0,0.0,0.0,0.0,0.0,0.0,0.0,0.0,0.0,0.0,0.0,0.0,0.0,0.0,0.0,0.0,0.0,0.0,0.0,0.0,0.0,0.0,0.0,0.0,0.0,0.0,0.0,0.0,0.0,0.0,0.0,0.0,0.0,0.0,0.0,0.0,0.0,0.0,0.0,0.0,0.0,0.0,0.0,0.0,0.0,0.0,0.0,0.3163,0.3186,0.3203,0.0,0.3295,0.3264,0.0,0.0,0.0,0.0,0.0,0.0,0.0,0.0,0.0,0.0,0.0,0.0,0.0,0.0,0.0,0.0,0.0,0.0,0.0,0.0,0.0,0.0,0.0,0.0,0.0,0.0,0.0,0.0,0.0,0.0,0.0,0.0,0.0,0.0,0.0,0.0,0.0,0.0,0.0,0.0,0.0,0.0,0.0,0.0,0.0,0.0,0.0,0.0,0.0,0.0,0.0,0.0,0.0,0.0,0.0,0.0,0.0,0.0,0.0,0.0,0.0,0.0,0.0,0.0,0.0,0.0,0.0,0.0,0.0,0.0,0.0,0.0,0.0,0.0,0.0,0.0,0.0,0.0,0.0,0.0,0.0,0.0,0.0,0.0,0.0,0.0,0.0,0.0,0.0,0.0,0.0,0.0,0.0,0.0,0.0,0.0,0.0,0.0,0.0,0.0,0.0,0.0,0.0,0.0,0.0,0.0,0.0,0.0,0.0,0.2702,0.0,0.266,0.0,0.2735,0.2764,0.0,0.0,0.0,0.0,0.0,0.0,0.0,0.0,0.0,0.0,0.0,0.0,0.0,0.0,0.0,0.0,0.0,0.0,0.0,0.0,0.0,0.0,0.0,0.0,0.0,0.0,0.0,0.0,0.0,0.0,0.0,0.0,0.0,0.0,0.0,0.0,0.0,0.0,0.0,0.0,0.0,0.0,0.0,0.0,0.0,0.0,0.0,0.0,0.0,0.0,0.0,0.0,0.0,0.0,0.0,0.0,0.0,0.0,0.0,0.0,0.0,0.0,0.0,0.0,0.0,0.0,0.0,0.0,0.0,0.0,0.0,0.0,0.0,0.0,0.0,0.0,0.0,0.0,0.0,0.0,0.0,0.0,0.0,0.0,0.0,0.0,0.0,0.0,0.0,0.0,0.0,0.0,0.0,0.0,0.0,0.0,0.0,0.0,0.0,0.0,0.0,0.0,0.0,0.0,0.0,0.0,0.0,0.0,0.2247,0.2312,0.2296,0.223,0.2007,0.2135,0.2193,0.0,0.0,0.0,0.0,0.0,0.0,0.0,0.0,0.0,0.0,0.0,0.0,0.0,0.0,0.0,0.0,0.0,0.0,0.0,0.0,0.0,0.0,0.0,0.0,0.0,0.0,0.0,0.0,0.0,0.0,0.0,0.0,0.0,0.0,0.0,0.0,0.0,0.0,0.0,0.0,0.0,0.0,0.0,0.0,0.0,0.0,0.0,0.0,0.0,0.0,0.0,0.0,0.0,0.0,0.0,0.0,0.0,0.0,0.0,0.0,0.0,0.0,0.0,0.0,0.0,0.0,0.0,0.0,0.0,0.0,0.0,0.0,0.0,0.0,0.0,0.0,0.0,0.0,0.0,0.0,0.0,0.0,0.0,0.0,0.0,0.0,0.0,0.0,0.0,0.0,0.0,0.0,0.0,0.0,0.0,0.0,0.0,0.0,0.0,0.0,0.0,0.0,0.0,0.0,0.0,0.0,0.0,0.0,0.0,0.2018,0.1986,0.1948,0.187,0.1866,0.1905,0.0,0.0,0.0,0.0,0.0,0.0,0.0,0.0,0.0,0.0,0.0,0.0,0.0,0.0,0.0,0.0,0.0,0.0,0.0,0.0,0.0,0.0,0.0,0.0,0.0,0.0,0.0,0.0,0.0,0.0,0.0,0.0,0.0,0.0,0.0,0.0,0.0,0.0,0.0,0.0,0.0,0.0,0.0,0.0,0.0,0.0,0.0,0.0,0.0,0.0,0.0,0.0,0.0,0.0,0.0,0.0,0.0,0.0,0.0,0.0,0.0,0.0,0.0,0.0,0.0,0.0,0.0,0.0,0.0,0.0,0.0,0.0,0.0,0.0,0.0,0.0,0.0,0.0,0.0,0.0,0.0,0.0,0.0,0.0,0.0,0.0,0.0,0.0,0.0,0.0,0.0,0.0,0.0,0.0,0.0,0.0,0.0,0.0,0.0,0.0,0.0,0.0,0.0,0.0,0.0,0.0,0.0,0.0,0.0,0.1731,0.1714,0.1629,0.1591,0.155,0.1606,0.1743,0.0,0.0,0.0,0.0,0.0,0.0,0.0,0.0,0.0,0.0,0.0,0.0,0.0,0.0,0.0,0.0,0.0,0.0,0.0,0.0,0.0,0.0,0.0,0.0,0.0,0.0,0.0,0.0,0.0,0.0,0.0,0.0,0.0,0.0,0.0,0.0,0.0,0.0,0.0,0.0,0.0,0.0,0.0,0.0,0.0,0.0,0.0,0.0,0.0,0.0,0.0,0.0,0.0,0.0,0.0,0.0,0.0,0.0,0.0,0.0,0.0,0.0,0.0,0.0,0.0,0.0,0.0,0.0,0.0,0.0,0.0,0.0,0.0,0.0,0.0,0.0,0.0,0.0,0.0,0.0,0.0,0.0,0.0,0.0,0.0,0.0,0.0,0.0,0.0,0.0,0.0,0.0,0.0,0.0,0.0,0.0,0.0,0.0,0.0,0.0,0.0,0.0,0.0,0.0,0.0,0.0,0.0,0.0,0.1479,0.1483,0.1408,0.1217,0.1267,0.1304,0.0,0.0,0.0,0.0,0.0,0.0,0.0,0.0,0.0,0.0,0.0,0.0,0.0,0.0,0.0,0.0,0.0,0.0,0.0,0.0,0.0,0.0,0.0,0.0,0.0,0.0,0.0,0.0,0.0,0.0,0.0,0.0,0.0,0.0,0.0,0.0,0.0,0.0,0.0,0.0,0.0,0.0,0.0,0.0,0.0,0.0,0.0,0.0,0.0,0.0,0.0,0.0,0.0,0.0,0.0,0.0,0.0,0.0,0.0,0.0,0.0,0.0,0.0,0.0,0.0,0.0,0.0,0.0,0.0,0.0,0.0,0.0,0.0,0.0,0.0,0.0,0.0,0.0,0.0,0.0,0.0,0.0,0.0,0.0,0.0,0.0,0.0,0.0,0.0,0.0,0.0,0.0,0.0,0.0,0.0,0.0,0.0,0.0,0.0,0.0,0.0,0.0,0.0,0.0,0.0,0.0,0.0,0.0,0.0,0.1358,0.1346,0.1319,0.1277,0.1258,0.1269,0.0,0.0,0.0,0.0,0.0,0.0,0.0,0.0,0.0,0.0,0.0,0.0,0.0,0.0,0.0,0.0,0.0,0.0,0.0,0.0,0.0,0.0,0.0,0.0,0.0,0.0,0.0,0.0,0.0,0.0,0.0,0.0,0.0,0.0,0.0,0.0,0.0,0.0,0.0,0.0,0.0,0.0,0.0,0.0,0.0,0.0,0.0,0.0,0.0,0.0,0.0,0.0,0.0,0.0,0.0,0.0,0.0,0.0,0.0,0.0,0.0,0.0,0.0,0.0,0.0,0.0,0.0,0.0,0.0,0.0,0.0,0.0,0.0,0.0,0.0,0.0,0.0,0.0,0.0,0.0,0.0,0.0,0.0,0.0,0.0,0.0,0.0,0.0,0.0,0.0,0.0,0.0,0.0,0.0,0.0,0.0,0.0,0.0,0.0,0.0,0.0,0.0,0.0,0.0,0.0,0.0,0.0,0.0,0.1459,0.1314,0.1318,0.134,0.1339,0.1269,0.1234,0.0,0.0,0.0,0.0,0.0,0.0,0.0,0.0,0.0,0.0,0.0,0.0,0.0,0.0,0.0,0.0,0.0,0.0,0.0,0.0,0.0,0.0,0.0,0.0,0.0,0.0,0.0,0.0,0.0,0.0,0.0,0.0,0.0,0.0,0.0,0.0,0.0,0.0,0.0,0.0,0.0,0.0,0.0,0.0,0.0,0.0,0.0,0.0,0.0,0.0,0.0,0.0,0.0,0.0,0.0,0.0,0.0,0.0,0.0,0.0,0.0,0.0,0.0,0.0,0.0,0.0,0.0,0.0,0.0,0.0,0.0,0.0,0.0,0.0,0.0,0.0,0.0,0.0,0.0,0.0,0.0,0.0,0.0,0.0,0.0,0.0,0.0,0.0,0.0,0.0,0.0,0.0,0.0,0.0,0.0,0.0,0.0,0.0,0.0,0.0,0.0,0.0,0.0,0.0,0.0,0.0,0.0,0.0,0.1476,0.1346,0.1361,0.1388,0.1383,0.1346,0.1221,0.0,0.0,0.0,0.0,0.0,0.0,0.0,0.0,0.0,0.0,0.0,0.0,0.0,0.0,0.0,0.0,0.0,0.0,0.0,0.0,0.0,0.0,0.0,0.0,0.0,0.0,0.0,0.0,0.0,0.0,0.0,0.0,0.0,0.0,0.0,0.0,0.0,0.0,0.0,0.0,0.0,0.0,0.0,0.0,0.0,0.0,0.0,0.0,0.0,0.0,0.0,0.0,0.0,0.0,0.0,0.0,0.0,0.0,0.0,0.0,0.0,0.0,0.0,0.0,0.0,0.0,0.0,0.0,0.0,0.0,0.0,0.0,0.0,0.0,0.0,0.0,0.0,0.0,0.0,0.0,0.0,0.0,0.0,0.0,0.0,0.0,0.0,0.0,0.0,0.0,0.0,0.0,0.0,0.0,0.0,0.0,0.0,0.0,0.0,0.0,0.0,0.0,0.0,0.0,0.0,0.0,0.0,0.0,0.1643,0.1625,0.15,0.1379,0.1315,0.1315,0.1261,0.0,0.0,0.0,0.0,0.0,0.0,0.0,0.0,0.0,0.0,0.0,0.0,0.0,0.0,0.0,0.0,0.0,0.0,0.0,0.0,0.0,0.0,0.0,0.0,0.0,0.0,0.0,0.0,0.0,0.0,0.0,0.0,0.0,0.0,0.0,0.0,0.0,0.0,0.0,0.0,0.0,0.0,0.0,0.0,0.0,0.0,0.0,0.0,0.1642,0.0,0.0,0.0,0.0,0.0,0.0,0.0,0.0,0.0,0.0,0.0,0.0,0.0,0.0,0.0,0.0,0.0,0.0,0.0,0.0,0.0,0.0,0.0,0.0,0.0,0.0,0.0,0.0,0.0,0.0,0.0,0.0,0.0,0.0,0.0,0.0,0.0,0.0,0.0,0.0,0.0,0.0,0.0,0.0,0.0,0.0,0.0,0.0,0.0,0.0,0.0,0.0,0.0,0.0,0.0,0.0,0.0,0.0,0.0,0.1824,0.1678,0.1518,0.1354,0.1325,0.1298,0.1281,0.0,0.0,0.0,0.0,0.0,0.0,0.0,0.0,0.0,0.0,0.0,0.0,0.0,0.0,0.0,0.0,0.0,0.0,0.0,0.0,0.0,0.0,0.0,0.0,0.0,0.0,0.0,0.0,0.0,0.0,0.0,0.0,0.0,0.0,0.0,0.0,0.0,0.0,0.0,0.0,0.0,0.0,0.0,0.0,0.0,0.0,0.0,0.0,0.0,0.0,0.0,0.0,0.0,0.0,0.0,0.0,0.0,0.0,0.0,0.0,0.0,0.0,0.0,0.0,0.0,0.0,0.0,0.0,0.0,0.0,0.0,0.0,0.0,0.0,0.0,0.0,0.0,0.0,0.0,0.0,0.0,0.0,0.0,0.0,0.0,0.0,0.0,0.0,0.0,0.0,0.0,0.0,0.0,0.0,0.0,0.0,0.0,0.0,0.0,0.0,0.0,0.0,0.0,0.0,0.0,0.0,0.0,0.2193,0.2035,0.1839,0.1567,0.1451,0.142,0.1349,0.1239,0.1201,0.0,0.0,0.0,0.0,0.0,0.0,0.0,0.0,0.0,0.0,0.0,0.0,0.0,0.0,0.0,0.0,0.0,0.0,0.0,0.0,0.0,0.0,0.0,0.0,0.0,0.0,0.0,0.0,0.0,0.0,0.0,0.0,0.0,0.0,0.0,0.0,0.0,0.0,0.3246,0.2943,0.0,0.0,0.0,0.0,0.0,0.0,0.0,0.0,0.1076,0.0,0.0,0.0,0.0,0.0,0.0,0.0,0.0,0.0,0.0,0.0,0.0,0.0,0.0,0.0,0.0,0.0,0.0,0.0,0.0,0.0,0.0,0.0,0.0,0.0,0.0,0.0,0.0,0.0,0.0,0.0,0.0,0.0,0.0,0.0,0.0,0.0,0.0,0.0,0.0,0.0,0.0,0.0,0.0,0.0,0.0,0.0,0.0,0.0,0.0,0.0,0.0,0.0,0.0,0.0,0.0,0.2956,0.2484,0.2338,0.245,0.1929,0.1641,0.1565,0.1408,0.1227,0.1134,0.0,0.0,0.0,0.0,0.0,0.0,0.0,0.0,0.0,0.0,0.0,0.0,0.0,0.0,0.0,0.0,0.0,0.0,0.0,0.0,0.0,0.0,0.0,0.0,0.0,0.0,0.0,0.0,0.0,0.0,0.0,0.0,0.0,0.0,0.0,0.0,0.0,0.0,0.0,0.2649,0.2439,0.0,0.0,0.0,0.0,0.0,0.0,0.0,0.0,0.0269,0.0,0.0,0.0,0.0,0.0,0.0,0.0,0.0,0.0,0.0,0.0,0.0,0.0,0.0,0.0,0.0,0.0,0.0,0.0,0.0,0.0,0.0,0.0,0.0,0.0,0.0,0.0,0.0,0.0,0.0,0.0,0.0,0.0,0.0,0.0,0.0,0.0,0.0,0.0,0.0,0.0,0.0,0.0,0.0,0.0,0.0,0.0,0.0,0.0,0.0,0.0,0.0,0.0,0.0,0.0,0.3389,0.2982,0.2826,0.2919,0.2409,0.2069,0.1919,0.1816,0.1621,0.0,0.0,0.0,0.0,0.0,0.0,0.0,0.0,0.0,0.0,0.0,0.0,0.0,0.0,0.0,0.0,0.0,0.0,0.0,0.0,0.0,0.0,0.0,0.0,0.0,0.0,0.0,0.0,0.0,0.0,0.0,0.0,0.0,0.0,0.0,0.0,0.0,0.0,0.0,0.0,0.26,0.2408,0.2305,0.0,0.0,0.0,0.0,0.0,0.0,0.0763,0.0172,0.0,0.0,0.0,0.0,0.0,0.0,0.0,0.0,0.0,0.0,0.0,0.0,0.0,0.0,0.0,0.0,0.0,0.0,0.0,0.0,0.0,0.0,0.0,0.0,0.0,0.0,0.0,0.0,0.0,0.0,0.0,0.0,0.0,0.0,0.0,0.0,0.0,0.0,0.0,0.0,0.0,0.0,0.0,0.0,0.0,0.0,0.0,0.0,0.0,0.0,0.0,0.0,0.0,0.0,0.0,0.3855,0.3572,0.341,0.3394,0.3032,0.2683,0.2417,0.2362,0.2144,0.0,0.0,0.0,0.0,0.0,0.0,0.0,0.0,0.0,0.0,0.0,0.0,0.0,0.0,0.0,0.0,0.0,0.0,0.0,0.0,0.0,0.0,0.0,0.0,0.0,0.0,0.0,0.0,0.0,0.0,0.0,0.0,0.0,0.0,0.0,0.0,0.0,0.0,0.0,0.0,0.0,0.239,0.2226,0.2269,0.0,0.0,0.0,0.0,0.1385,0.0748,0.0,0.0,0.0,0.0,0.0,0.0,0.0,0.0,0.0,0.0,0.0,0.0,0.0,0.0,0.0,0.0,0.0,0.0,0.0,0.0,0.0,0.0,0.0,0.0,0.0,0.0,0.0,0.0,0.0,0.0,0.0,0.0,0.0,0.0,0.0,0.0,0.0,0.0,0.0,0.0,0.0,0.0,0.0,0.0,0.0,0.0,0.0,0.0,0.0,0.0,0.0,0.0,0.0,0.0,0.0,0.0,0.4385,0.4241,0.4142,0.4069,0.3822,0.3513,0.3186,0.2935,0.2617,0.0,0.0,0.0,0.0,0.0,0.0,0.0,0.0,0.0,0.0,0.0,0.0,0.0,0.0,0.0,0.0,0.0,0.0,0.0,0.0,0.0,0.0,0.0,0.0,0.0,0.0,0.0,0.0,0.0,0.0,0.0,0.0,0.0,0.0,0.0,0.0,0.0,0.0,0.0,0.0,0.0,0.2264,0.2281,0.2295,0.2297,0.0,0.0,0.0,0.1276,0.057,0.0,0.0,0.0,0.0,0.0,0.0,0.0,0.0,0.0,0.0,0.0,0.0,0.0,0.0,0.0,0.0,0.0,0.0,0.0,0.0,0.0,0.0,0.0,0.0,0.0,0.0,0.0,0.0,0.0,0.0,0.0,0.0,0.0,0.0,0.0,0.0,0.0,0.0,0.0,0.0,0.0,0.0,0.0,0.0,0.0,0.0,0.0,0.0,0.0,0.0,0.0,0.0,0.0,0.0,0.0,0.4571,0.4938,0.4982,0.4958,0.4862,0.4652,0.4357,0.3953,0.3624,0.3305,0.0,0.0,0.0,0.0,0.0,0.0,0.0,0.0,0.0,0.0,0.0,0.0,0.0,0.0,0.0,0.0,0.0,0.0,0.0,0.0,0.0,0.0,0.0,0.0,0.0,0.0,0.0,0.0,0.0,0.0,0.0,0.0,0.0,0.0,0.0,0.0,0.0,0.0,0.0,0.0,0.0,0.0,0.2338,0.2375,0.0,0.0,0.0,0.1714,0.1485,0.0,0.0,0.0,0.0,0.0,0.0,0.0,0.0,0.0,0.0,0.0,0.0,0.0,0.0,0.0,0.0,0.0,0.0,0.0,0.0,0.0,0.0,0.0,0.0,0.0,0.0,0.0,0.0,0.0,0.0,0.0,0.0,0.0,0.0,0.0,0.0,0.0,0.0,0.0,0.0,0.0,0.0,0.0,0.0,0.0,0.0,0.0,0.0,0.0,0.0,0.0,0.0,0.0,0.0,0.0,0.0,0.0,0.536,0.5549,0.5581,0.5472,0.5399,0.513,0.4676,0.4431,0.0,0.0,0.0,0.0,0.0,0.0,0.0,0.0,0.0,0.0,0.0,0.0,0.0,0.0,0.0,0.0,0.0,0.0,0.0,0.0,0.0,0.0,0.0,0.0,0.0,0.0,0.0,0.4776,0.0,0.0,0.0,0.0,0.0,0.0,0.0,0.0,0.0,0.0,0.0,0.0,0.0,0.0,0.2438,0.2456,0.2518,0.2556,0.0,0.0,0.1902,0.1664,0.0966,0.03,0.0,0.0,0.0,0.0,0.0,0.0,0.0,0.0,0.0,0.0,0.0,0.0,0.0,0.0,0.0,0.0,0.0,0.0,0.0,0.0,0.0,0.0,0.0,0.0,0.0,0.0,0.0,0.0,0.0,0.0,0.0,0.0,0.0,0.0,0.0,0.0,0.0,0.0,0.0,0.0,0.0,0.0,0.0,0.0,0.0,0.0,0.0,0.0,0.0,0.0,0.0,0.0,0.0,0.0,0.0,0.5563,0.5903,0.5987,0.5787,0.5891,0.5788,0.5433,0.5406,0.513,0.0,0.0,0.0,0.0,0.0,0.0,0.0,0.0,0.0,0.0,0.0,0.0,0.0,0.0,0.0,0.0,0.0,0.0,0.0,0.0,0.0,0.0,0.0,0.0,0.0,0.0,0.0,0.0,0.0,0.0,0.0,0.0,0.0,0.0,0.0,0.0,0.0,0.0,0.0,0.0,0.0,0.2717,0.2622,0.264,0.268,0.0,0.0,0.2148,0.1742,0.1132,0.0488,-0.011,0.0,0.0,0.0,0.0,0.0,0.0,0.0,0.0,0.0,0.0,0.0,0.0,0.0,0.0,0.0,0.0,0.0,0.0,0.0,0.0,0.0,0.0,0.0,0.0,0.0,0.0,0.0,0.0,0.0,0.0,0.0,0.0,0.0,0.0,0.0,0.0,0.0,0.0,0.0,0.0,0.0,0.0,0.0,0.0,0.0,0.0,0.0,0.0,0.0,0.0,0.0,0.0,0.0,0.569,0.5906,0.6507,0.6611,0.6299,0.6398,0.6232,0.5862,0.5707,0.5474,0.0,0.0,0.0,0.0,0.0,0.0,0.0,0.0,0.0,0.0,0.0,0.0,0.0,0.0,0.0,0.0,0.0,0.0,0.0,0.0,0.0,0.0,0.0,0.0,0.0,0.0,0.0,0.0,0.5518,0.519,0.4622,0.0,0.0,0.0,0.0,0.0,0.0,0.0,0.0,0.0,0.0,0.2811,0.2796,0.2737,0.0,0.0,0.2504,0.2312,0.2117,0.1522,0.0899,0.0413,-0.0111,0.0,0.0,0.0,0.0,0.0,0.0,0.0,0.0,0.0,0.0,0.0,0.0,0.0,0.0,0.0,0.0,0.0,0.0,0.0,0.0,0.0,0.0,0.0,0.0,0.0,0.0,0.0,0.0,0.0,0.0,0.0,0.0,0.0,0.0,0.0,0.0,0.0,0.0,0.0,0.0,0.0,0.0,0.0,0.0,0.0,0.0,0.0,0.0,0.0,0.0,0.0,0.0,0.6115,0.6237,0.6936,0.714,0.6802,0.6831,0.6704,0.6365,0.6163,0.5986,0.0,0.0,0.0,0.0,0.0,0.0,0.0,0.0,0.0,0.0,0.0,0.0,0.0,0.0,0.0,0.0,0.0,0.0,0.0,0.0,0.0,0.0,0.0,0.0,0.0,0.0,0.0,0.0,0.5779,0.5396,0.4828,0.0,0.0,0.0,0.0,0.0,0.0,0.0,0.0,0.0,0.0,0.2991,0.2977,0.2834,0.2747,0.279,0.2646,0.2486,0.2348,0.1879,0.1321,0.0878,0.0,0.0,0.0,0.0,0.0,0.0,0.0,0.0,0.0,0.0,0.0,0.0,0.0,0.0,0.0,0.0,0.0,0.0,0.0,0.0,0.0,0.0,0.0,0.0,0.0,0.0,0.0,0.0,0.0,0.0,0.9541,0.0,0.0,0.0,0.0,0.0,0.0,0.0,0.0,0.0,0.0,0.0,0.0,0.0,0.0,0.0,0.0,0.0,0.0,0.0,0.0,0.0,0.0,0.0,0.6607,0.7231,0.7405,0.7213,0.7209,0.7082,0.6889,0.6876,0.6813,0.6679,0.0,0.0,0.0,0.0,0.0,0.0,0.0,0.0,0.0,0.0,0.0,0.0,0.0,0.0,0.0,0.0,0.0,0.0,0.0,0.0,0.0,0.0,0.0,0.0,0.0,0.0,0.6433,0.5923,0.556,0.0,0.0,0.0,0.0,0.0,0.0,0.0,0.0,0.0,0.0,0.3668,0.3468,0.3151,0.3003,0.291,0.2911,0.2819,0.2674,0.2446,0.2146,0.176,0.0,0.0,0.0,0.0,0.0,0.0,0.0,0.0,0.0,0.0,0.0,0.0,0.0,0.0,0.0,0.0,0.0,0.0,0.0,0.0,0.0,0.0,0.0,0.0,0.0,0.0,0.0,1.1467,1.1513,0.0,0.0,0.0,0.0,0.0,0.0,0.0,0.0,0.0,0.0,0.0,1.2065,1.196,0.0,0.0,0.0,0.0,0.0,0.0,0.0,0.0,0.0,0.0,0.0,0.0,0.731,0.7547,0.7931,0.8084,0.7879,0.7787,0.7629,0.7438,0.7335,0.7237,0.7033,0.0,0.0,0.0,0.0,0.0,0.0,0.0,0.0,0.0,0.0,0.0,0.0,0.0,0.0,0.0,0.0,0.0,0.0,0.0,0.0,0.0,0.0,0.0,0.0,0.0,0.7107,0.0,0.0,0.0,0.0,0.0,0.0,0.0,0.0,0.0,0.0,0.0,0.4917,0.4654,0.4383,0.4046,0.3601,0.3317,0.305,0.0,0.0,0.0,0.0,0.0,0.0,0.0,0.0,0.0,0.0,0.0,0.0,0.0,0.0,0.0961,0.0576,0.0178,-0.0247,-0.0659,0.0,0.0,0.0,0.0,0.0,0.0,0.0,0.0,0.0,0.0,0.0,0.0,0.0,0.0,1.2922,0.0,1.2156,0.0,0.0,0.0,0.0,0.0,0.0,0.0,0.0,1.3326,1.3512,1.3686,1.3445,1.2938,0.0,1.1855,1.1043,0.0,0.0,0.0,0.0,0.0,0.0,0.0,0.0,0.8177,0.8348,0.8674,0.8759,0.8592,0.8495,0.8344,0.8149,0.8047,0.7935,0.7716,0.7341,0.6997,0.0,0.0,0.0,0.0,0.0,0.0,0.0,0.0,0.0,0.0,0.0,0.0,0.0,0.0,0.0,0.0,0.0,0.0,0.0,0.0,0.0,0.0,0.0,0.7433,0.0,0.0,0.0,0.0,0.0,0.0,0.0,0.0,0.0,0.564,0.5617,0.5608,0.5345,0.4893,0.4437,0.4035,0.0,0.0,0.0,0.0,0.0,0.0,0.0,0.2503,0.2237,0.1976,0.1682,0.1471,0.1419,0.1537,0.187,0.0,0.0,0.1246,0.0706,0.0221,-0.0219,-0.0874,-0.1531,-0.2005,-0.2533,-0.2953,0.0,0.0,0.0,0.0,0.0,0.0,0.0,0.0,1.5011,1.4903,0.0,1.4062,0.0,0.0,0.0,0.0,0.0,0.0,0.0,0.0,1.5099,1.5254,1.505,1.4741,1.4346,1.3941,1.3377,1.2892,1.2332,1.0544,0.0,0.0,0.0,0.0,0.0,0.0,0.9058,0.9075,0.9372,0.9492,0.937,0.9338,0.9242,0.9049,0.9017,0.8928,0.875,0.8715,0.8345,0.7508,0.7451,0.0,0.0,0.0,0.0,0.0,0.0,0.0,0.0,0.0,0.0,0.0,0.0,0.0,0.0,0.0,0.0,0.0,0.0,0.0,0.0,0.7892,0.0,0.0,0.0,0.0,0.0,0.0,0.0,0.0,0.0,0.0,0.6535,0.6398,0.6238,0.6005,0.0,0.0,0.0,0.0,0.3226,0.3227,0.305,0.2897,0.2839,0.2831,0.2724,0.2455,0.0,0.0,0.2147,0.2066,0.2078,0.2277,0.2122,0.1889,0.177,0.1309,0.0828,0.0221,-0.0366,-0.0988,-0.1539,-0.2053,-0.2462,1.7872,0.0,0.0,0.0,0.0,1.6711,1.688,1.714,1.7049,1.6906,1.6696,1.6095,0.0,0.0,0.0,0.0,0.0,0.0,1.5606,1.6197,1.6501,1.6675,1.6711,1.6381,1.5829,1.5119,1.4528,1.4011,1.3515,1.2849,1.1768,1.0331,0.0,0.0,0.0,0.0,0.9951,1.0146,1.023,1.0269,1.0206,1.0072,0.9913,0.9709,0.9703,0.9698,0.9618,0.95,0.9295,0.9059,0.8623,0.0,0.0,0.0,0.0,0.0,0.0,0.0,0.0,0.0,0.0,0.0,0.0,0.0,0.0,0.0,0.0,0.0,0.0,0.0,0.8997,0.8977,0.8914,0.0,0.0,0.0,0.0,0.0,0.0,0.0,0.0,0.0,0.8279,0.7804,0.7359,0.0,0.0,0.5678,0.4917,0.4342,0.3853,0.354,0.0,0.0,0.0,0.2979,0.2842,0.2779,0.2699,0.267,0.2627,0.2537,0.2499,0.2582,0.2495,0.2375,0.2331,0.1738,0.1125,0.0693,0.0077,-0.05,-0.0885,-0.1508,-0.2056,2.0008,1.9246,1.8501,1.8216,1.8296,1.8251,1.8426,1.8705,1.8695,1.8602,1.8436,1.7932,1.7344,1.6692,1.5986,0.0,0.0,0.0,1.6862,1.7441,1.7617,1.772,1.775,1.7373,1.6865,1.6226,1.5695,1.5249,1.4841,1.4547,1.3696,1.2301,0.0,0.0,1.0843,1.085,1.0815,1.0807,1.0807,1.0807,1.0807,1.0681,1.0579,1.0503,1.0503,1.0559,1.0622,1.0523,1.0374,1.0198,0.9825,0.9332,0.0,0.0,0.0,0.0,0.0,0.0,0.0,0.0,0.0,0.0,0.0,0.7362,0.0,0.0,0.0,0.0,0.901,0.9441,0.9885,0.9862,0.0,0.0,0.0,0.0,0.0,0.0,0.0,0.9335,0.9426,0.9452,0.952,0.8987,0.8385,0.7746,0.7085,0.6432,0.5675,0.0,0.4476,0.421,0.3762,0.3484,0.3457,0.3189,0.2961,0.2849,0.2816,0.2748,0.2745,0.2698,0.2658,0.265,0.2606,0.2565,0.2565,0.2061,0.157,0.1335,0.0707,0.0157,-0.0079,-0.0785,-0.1373,2.1693,2.1431,2.0115,1.9667,1.974,1.974,1.9859,2.0066,2.0066,2.0036,1.9985,1.9616,1.9052,1.8397,1.7471,0.0,0.0,1.7777,1.8052,1.8387,1.8492,1.8472,1.8303,1.7954,1.7604,1.727,1.6881,1.6508,1.6184,1.5833,1.5376,1.4822,1.3857,1.2869,1.1935,1.1873,1.1657,1.1192,1.1185,1.1192,1.1192,1.1185,1.1216,1.1365,1.1365,1.1466,1.1622,1.1622,1.1459,1.1023,1.0979,1.0437,0.9372,0.0,0.0,0.0,0.0,0.0,0.0,0.0,0.0,0.0,0.0,0.0,0.0,0.0,0.0,0.0,1.0243,0.0,1.0757,1.0645,0.0,0.0,0.0,1.0321,1.0723,1.0433,1.0343,1.0684,0.0,0.0,0.0,0.0,0.934,0.8416,0.7669,0.7007,0.6564,0.5719,0.5144,0.5099,0.4467,0.399,0.3926,0.3471,0.3057,0.2797,0.273,0.2727,0.2681,0.2634,0.2598,0.2594,0.2548,0.2511,0.2511,0.2315,0.2156,0.196,0.1412,0.0864,0.0668,0.0039,-0.051,2.1769,2.1721,2.1381,2.1175,2.1035,2.1035,2.1138,2.1374,2.1364,2.1131,2.0802,2.0736,2.0329,1.9733,1.9324,1.9204,1.9319,1.9146,1.9123,1.9195,1.9039,1.8875,1.8674,1.8448,1.8236,1.8022,1.7638,1.7304,1.7097,1.6902,1.6571,1.6148,1.5748,1.4554,1.2704,1.2641,1.2377,1.1879,1.1879,1.1872,1.1872,1.1872,1.1872,1.191,1.1903,1.1934,1.1972,1.1996,1.1927,1.182,1.1571,1.1233,1.0885,1.0159,0.0,0.0,0.0,0.0,0.0,0.0,0.0,0.0,0.0,0.9598,1.0378,0.0,1.055,0.0,1.1409,1.1778,1.208,1.2184,0.0,0.0,1.1754,1.15,1.1466,1.1404,1.123,1.0972,1.0969,1.0838,1.0371,1.0207,0.9907,0.9336,0.8504,0.7797,0.7312,0.6735,0.6248,0.5894,0.5298,0.4839,0.4545,0.3933,0.3379,0.2991,0.2904,0.2788,0.2665,0.2572,0.2533,0.2493,0.2522,0.251,0.251,0.247,0.2431,0.2314,0.1884,0.1375,0.1179,0.0707,0.0275,2.1807,2.1807,2.1807,2.1759,2.1759,2.1665,2.1693,2.1807,2.1807,2.1652,2.1404,2.116,2.0906,2.0596,2.0273,2.0135,2.0104,1.9791,1.963,1.9599,1.9248,1.9031,1.8952,1.8707,1.8607,1.8506,1.8192,1.7954,1.7794,1.7716,1.7476,1.7088,1.689,1.5913,1.4223,1.3705,1.3132,1.2413,1.2274,1.2182,1.2182,1.212,1.212,1.2182,1.2182,1.2243,1.2313,1.2375,1.2428,1.2428,1.2278,1.2075,1.1732,1.1254,1.0837,0.0,0.0,0.0,0.0,0.0,0.0,0.0,0.0,0.0,0.0,0.0,1.2222,0.0,1.2958,0.0,1.3558,1.3428,1.3301,1.3347,1.2864,1.2597,1.2599,1.232,1.2067,1.1773,1.146,1.1149,1.0809,1.0598,1.0337,0.9951,0.9379,0.8767,0.8197,0.7709,0.7268,0.6918,0.6275,0.5542,0.4814,0.4298,0.3788,0.33,0.3147,0.3041,0.2761,0.2653,0.2588,0.251,0.251,0.251,0.251,0.251,0.251,0.247,0.2237,0.1962,0.1727,0.1335,0.0982,2.1883,2.1873,2.1883,2.1997,2.2149,2.1997,2.1921,2.1873,2.1883,2.1883,2.1852,2.1458,2.1244,2.1203,2.0783,2.0576,2.0457,2.0083,1.9844,1.9772,1.9316,1.9098,1.9108,1.8942,1.8841,1.8841,1.8674,1.8506,1.8371,1.8337,1.8168,1.7808,1.7556,1.6911,1.5877,1.49,1.3919,1.2944,1.2621,1.2428,1.2421,1.2274,1.2243,1.2367,1.2398,1.2498,1.2652,1.2846,1.2932,1.294,1.3096,1.2981,1.2489,1.2514,1.2254,0.0,1.1608,0.0,0.0,0.0,0.0,0.0,0.0,0.0,0.0,1.3424,1.4096,1.4651,1.4547,1.4576,1.4869,1.4427,1.4207,1.4388,1.3851,1.3546,1.374,1.3215,1.279,1.2747,1.1972,1.1451,1.1284,1.0987,1.0684,1.0381,1.0164,0.982,0.9253,0.8684,0.8245,0.7984,0.7213,0.6237,0.5083,0.4661,0.4316,0.3726,0.3612,0.3448,0.2984,0.2906,0.2824,0.2628,0.2588,0.2549,0.2549,0.251,0.251,0.251,0.2472,0.2392,0.2196,0.1884,0.161,2.2289,2.2289,2.2289,2.2402,2.259,2.2553,2.244,2.2289,2.2289,2.23,2.2289,2.2205,2.2087,2.1927,2.1805,2.149,2.0959,2.0503,2.01,1.9782,1.9316,1.9098,1.9108,1.9065,1.9031,1.9042,1.9008,1.8865,1.8707,1.8707,1.8573,1.8327,1.7813,1.7282,1.675,0.0,0.0,0.0,1.3277,1.3117,1.3117,1.292,1.2858,1.2858,1.2867,0.0,1.2936,1.3424,1.3676,1.3716,1.4145,0.0,0.0,0.0,0.0,0.0,0.0,0.0,0.0,0.0,0.0,0.0,1.4945,1.4843,1.4324,1.4909,1.5284,1.5265,1.5295,1.5368,1.5437,1.5397,1.533,1.5168,1.4726,1.4385,1.4265,1.3815,1.3392,1.296,1.2662,1.2143,1.1456,1.1235,1.1025,1.0684,1.0598,1.0511,1.0337,0.9602,0.8995,0.8711,0.7858,0.6888,0.5811,0.5477,0.5132,0.4421,0.4226,0.3992,0.3485,0.3331,0.3215,0.3022,0.2863,0.2746,0.2746,0.2627,0.251,0.251,0.251,0.2431,0.2234,0.2157,0.2041,2.2692,0.0,2.2815,2.2964,0.0,2.3261,2.3361,2.3386,2.2927,2.2703,2.2703,2.259,2.2478,2.2392,2.2046,2.1702,2.1376,2.0694,2.0229,2.0023,1.9561,1.9351,1.9341,1.9241,1.9175,1.9208,1.9142,1.9042,1.8942,1.8942,1.8795,1.8438,1.8041,1.7512,1.69,1.6117,1.5259,1.424,1.3911,1.3731,1.3731,1.3769,1.3802,1.3802,0.0,0.0,0.0,0.0,0.0,0.0,0.0,0.0,0.0,0.0,0.0,1.4591,1.4798,1.4891,1.4857,1.5377,1.5854,1.6119,1.6529,1.6514,1.585,1.6092,1.6329,1.638,1.6453,1.6436,1.6355,1.6252,1.6113,1.5899,1.5477,1.511,1.4894,1.4482,1.4026,1.3568,1.313,1.2619,1.2057,1.1763,1.1467,1.1068,1.0982,1.0939,1.0684,1.0207,0.9618,0.9044,0.8458,0.7725,0.676,0.6457,0.609,0.5377,0.5043,0.4771,0.4304,0.4031,0.3837,0.3604,0.337,0.3136,0.3136,0.2942,0.2746,0.2668,0.2628,0.2588,0.2392,0.2352,0.2276,2.3401,2.3324,2.3471,2.3666,2.3849,2.4032,2.4311,2.4623,0.0,0.0,0.0,2.3102,2.2953,2.282,2.2196,2.1829,2.1628,2.077,2.0343,2.0213,1.9819,1.9638,1.9583,1.944,1.9351,1.9351,1.9231,1.9164,1.9198,1.9092,1.8852,1.8488,1.8163,1.7574,1.6824,1.6172,1.5575,1.503,1.4597,1.4398,1.4378,1.4628,1.4764,1.4795,1.5214,1.5486,1.5486,1.5697,1.5799,1.5799,1.6035,1.6114,1.5965,1.5932,1.5867,1.5745,1.6099,1.6394,1.6457,1.691,1.7271,1.7407,1.7798,1.7835,1.7262,1.7183,1.7261,1.7489,1.7473,1.7343,1.718,1.6984,1.673,1.6558,1.6147,1.5775,1.556,1.5103,1.4657,1.4292,1.3646,1.3094,1.2747,1.2369,1.1946,1.1548,1.1419,1.1241,1.0857,1.0554,1.0115,0.9458,0.9032,0.8556,0.7776,0.7415,0.7096,0.6325,0.6019,0.573,0.5279,0.4885,0.4577,0.4343,0.3992,0.3761,0.3643,0.3448,0.3215,0.2942,0.2902,0.2824,0.2627,0.2549,0.247,2.4912,2.4456,2.4504,2.4612,2.4802,2.4838,2.5099,2.5394,2.4755,2.4396,2.4311,2.4263,2.3984,2.346,2.2875,2.2253,2.1588,2.0987,2.0453,0.0,1.99,1.9769,1.9615,1.9572,1.9539,1.9572,1.9539,1.9539,1.9497,1.9136,1.8892,1.8744,1.7983,1.7339,1.6831,1.6584,1.6428,1.6314,1.5497,1.5059,1.5059,1.5319,1.5454,1.5472,1.5943,1.6173,1.6182,1.6682,1.6958,1.6958,1.7427,1.7663,1.7654,1.7634,1.7552,1.7417,1.7789,1.7976,1.783,1.8406,1.883,1.8973,1.9025,1.8912,1.8492,1.8284,1.8101,1.7951,1.7789,1.7578,1.7383,1.731,1.7229,1.7009,1.673,1.6484,1.627,1.5726,1.5235,1.4964,1.4377,1.3652,1.3088,1.2747,1.2454,1.2032,1.1903,1.1731,1.1289,1.0895,1.0544,1.0187,0.98,0.9339,0.8802,0.8441,0.7992,0.7378,0.7106,0.6734,0.6141,0.5738,0.5431,0.5162,0.4813,0.4504,0.4307,0.4109,0.3798,0.3485,0.3368,0.3292,0.2902,0.2785,0.2668,2.6009,2.5792,2.5597,2.5569,2.5664,2.5861,2.6013,2.6198,2.6013,2.5616,2.5099,2.4874,2.4459,2.3896,2.3294,2.2583,2.1835,2.136,2.0881,2.0464,2.0442,2.0356,2.0216,2.0074,1.9966,1.9889,1.9802,1.9714,1.9584,1.9392,1.902,1.8488,1.7565,1.7002,1.6828,1.6751,1.6722,1.6694,1.6114,1.5926,1.6236,1.6577,1.6856,1.7126,1.7578,1.7808,1.7818,1.8094,1.8238,1.8248,1.8462,1.8607,1.8607,1.8607,1.8674,1.8847,1.9259,1.9467,1.9396,1.9724,1.9927,2.0001,2.001,1.9902,1.9597,1.9042,1.8603,1.8411,1.8282,1.8072,1.7757,1.7716,1.7595,1.7302,1.7139,1.7017,1.6771,1.6394,1.594,1.5492,1.4957,1.4377,1.3695,1.3392,1.3094,1.2674,1.2418,1.2075,1.1731,1.1516,1.1165,1.0631,1.034,1.0065,0.962,0.9401,0.8955,0.8316,0.7986,0.7631,0.713,0.6707,0.6398,0.6205,0.5819,0.5431,0.5118,0.4888,0.4538,0.407,0.3954,0.3761,0.3294,0.3059,0.2863,2.7071,2.6945,2.6527,2.6383,2.6418,2.6714,2.685,2.6863,2.6977,2.6658,2.5978,2.5437,2.4926,2.4402,2.3611,2.2902,2.2327,2.1791,2.1431,2.1146,2.1115,2.1019,2.085,2.0679,2.0518,2.0302,2.0183,2.002,1.9868,1.9727,1.9243,1.8414,1.7682,1.7299,1.7299,1.7241,1.7213,1.7213,1.6972,1.6942,1.7204,1.7613,1.8041,1.8499,1.8958,1.9198,1.9198,1.9198,1.9198,1.9208,1.9208,1.9208,1.9198,1.9208,1.9364,1.975,2.0271,2.0643,2.0836,2.0897,2.0915,2.0876,2.0838,2.0722,2.0459,1.9863,1.9231,1.8922,1.8812,1.8652,1.8241,1.8161,1.804,1.7725,1.7635,1.7546,1.7343,1.7057,1.6607,1.6031,1.5582,1.509,1.4538,1.4117,1.373,1.3264,1.2924,1.2583,1.2246,1.216,1.1811,1.1251,1.0944,1.0747,1.0376,1.0224,0.9868,0.9197,0.8852,0.8505,0.8065,0.7638,0.7334,0.7096,0.6742,0.6356,0.597,0.578,0.5434,0.4927,0.4735,0.4457,0.3798,0.3466,0.3151,2.8234,2.7723,2.7152,2.6909,2.6943,2.7146,2.7235,2.7248,2.7281,2.7235,2.7015,2.6214,2.5561,2.504,2.3928,2.3247,2.2954,2.2414,2.2018,2.1815,2.1784,2.1639,2.1356,2.1325,2.1146,2.086,2.0807,2.0743,2.0571,2.0104,1.9613,1.9145,1.8899,1.8762,1.8743,1.8594,1.8504,1.8526,1.8496,1.814,1.7531,1.7915,1.8382,1.885,1.9295,1.9572,1.9539,1.9572,1.9539,1.9539,1.955,1.9539,1.9572,1.9539,1.9604,1.9689,2.0472,2.1222,2.1858,2.1966,2.1845,2.1693,2.1502,2.132,2.1128,2.0876,2.0274,1.9539,1.9262,1.9073,1.8692,1.8612,1.8571,1.846,1.8362,1.8233,1.791,1.7603,1.7155,1.6656,1.6286,1.5831,1.5325,1.4901,1.4356,1.3773,1.3603,1.3307,1.2796,1.2662,1.2497,1.2032,1.1768,1.1494,1.1187,1.0988,1.0584,0.9988,0.9731,0.9295,0.8754,0.8289,0.7944,0.7825,0.7557,0.7246,0.6938,0.6749,0.6518,0.5896,0.5547,0.5234,0.4528,0.4094,0.3747,2.8918,2.862,2.7678,2.7315,2.7302,2.7403,2.739,2.7423,2.7403,2.7403,2.7272,2.6311,2.5653,2.5234,2.4356,2.3729,2.3293,2.3008,2.2757,2.2519,2.2488,2.2316,2.2006,2.1994,2.1808,2.1514,2.1471,2.1388,2.1149,2.0641,2.0266,2.003,1.9576,1.931,1.928,1.9089,1.8999,1.901,1.8999,1.8912,1.8829,1.885,1.9123,1.9576,1.9814,1.9878,1.9878,1.9911,1.9911,1.9911,1.9878,1.9878,1.99,1.9878,2.0041,2.0376,2.1148,2.1857,2.2435,2.2375,2.2252,2.2138,2.2063,2.1959,2.1731,2.1568,2.1136,2.0527,2.0098,1.9666,1.9161,1.9073,1.8962,1.8732,1.8612,1.8531,1.8411,1.817,1.7838,1.7375,1.7057,1.6656,1.6064,1.5567,1.5026,1.4447,1.4279,1.4026,1.3434,1.3307,1.3137,1.2887,1.2668,1.2283,1.1837,1.1501,1.1077,1.0561,1.0229,0.9841,0.9231,0.898,0.8746,0.8546,0.8322,0.8059,0.7676,0.748,0.7246,0.6745,0.6205,0.5815,0.5356,0.5082,0.4762,2.9405,2.9153,2.802,2.7503,2.7503,2.7556,2.759,2.759,2.7636,2.7656,2.7564,2.6606,2.5942,2.5488,2.4656,2.3983,2.359,2.3492,2.3343,2.309,2.309,2.2927,2.2696,2.2665,2.25,2.2242,2.2168,2.2063,2.1861,2.1471,2.1202,2.1082,2.0524,2.0188,2.0097,1.9916,1.9765,1.9746,1.9746,1.9865,1.997,1.99,1.9907,2.0074,2.0118,2.0118,2.0118,2.0118,2.0118,2.0118,2.0118,2.0118,2.0183,2.0183,2.0424,2.1029,2.1649,2.2219,2.2709,2.2664,2.2628,2.2628,2.2553,2.2451,2.2252,2.2063,2.1845,2.1474,2.1031,2.0479,1.9706,1.9499,1.9311,1.8971,1.8931,1.894,1.8772,1.8652,1.8393,1.7942,1.7749,1.7432,1.6812,1.6353,1.594,1.5352,1.5117,1.4866,1.4321,1.4068,1.3899,1.3682,1.3377,1.2849,1.2215,1.1882,1.1453,1.0963,1.0577,1.0257,0.9677,0.9516,0.9397,0.9084,0.8975,0.878,0.8399,0.8165,0.7936,0.748,0.7019,0.6549,0.6289,0.6101,0.5873,2.9784,2.9166,2.8033,2.7549,2.7536,2.7723,2.7789,2.7776,2.7967,2.8079,2.7966,2.7354,2.6782,2.6118,2.4709,2.3942,2.3874,2.3717,2.3616,2.3599,2.3599,2.3509,2.336,2.333,2.318,2.2896,2.2878,2.2793,2.2592,2.2524,2.2457,2.2286,2.2012,2.182,2.1561,2.1319,2.1212,2.108,2.1049,2.1003,2.0867,2.0846,2.059,2.0237,2.0118,2.0151,2.0118,2.0118,2.0118,2.0118,2.0151,2.0216,2.0378,2.0378,2.0697,2.1319,2.1811,2.2302,2.2755,2.3021,2.3202,2.3187,2.2927,2.2692,2.2703,2.2515,2.2327,2.2073,2.1987,2.1492,2.0527,2.0098,1.9833,1.9606,1.9527,1.9359,1.9051,1.9002,1.8803,1.8482,1.8322,1.8031,1.7432,1.7359,1.6976,1.6476,1.6162,1.5873,1.5401,1.4943,1.465,1.4337,1.382,1.3092,1.2455,1.2052,1.1647,1.1197,1.0918,1.0694,1.0345,0.9997,0.9809,0.962,0.943,0.9241,0.9041,0.8813,0.8546,0.8246,0.7902,0.7518,0.7122,0.7021,0.6764,2.9967,2.908,2.863,2.8245,2.7881,2.798,2.7987,2.7987,2.8079,2.8112,2.8005,2.7472,2.684,2.6254,2.5302,2.4688,2.4345,2.4274,2.4245,2.4232,2.4245,2.4144,2.3985,2.3985,2.3868,2.3691,2.3675,2.3649,2.3547,2.3446,2.331,2.3138,2.2902,2.2647,2.2427,2.218,2.2006,2.1944,2.1894,2.1726,2.1577,2.1545,2.1325,2.0955,2.0625,2.0475,2.0464,2.0475,2.0475,2.0475,2.0475,2.0508,2.0572,2.0658,2.0935,2.1474,2.1699,2.2082,2.267,2.2925,2.3134,2.3449,2.3372,2.3261,2.3224,2.3075,2.2927,2.2852,2.259,2.2176,2.1721,2.1108,2.0537,2.0157,2.0029,1.9872,1.9518,1.9359,1.924,1.8882,1.8692,1.8411,1.8161,1.804,1.7821,1.7335,1.7057,1.673,1.6345,1.5974,1.565,1.5267,1.4721,1.4081,1.3433,1.2533,1.1905,1.157,1.1298,1.0977,1.0643,1.0406,1.0218,1.0148,0.9922,0.9695,0.9501,0.9273,0.9046,0.8813,0.8508,0.8156,0.7864,0.7649,0.7434,3.0152,2.9312,2.9059,2.8645,2.8139,2.8177,2.8151,2.8164,2.8243,2.8276,2.8182,2.782,2.7323,2.6702,2.6126,2.5537,2.503,2.4742,2.4591,2.4591,2.4591,2.452,2.4421,2.4392,2.4363,2.4276,2.4247,2.4261,2.4247,2.4118,2.4002,2.3822,2.359,2.3399,2.3198,2.2927,2.2757,2.2696,2.2574,2.2408,2.2242,2.223,2.2075,2.1815,2.1482,2.1178,2.0946,2.0946,2.0946,2.0999,2.0999,2.1031,2.1094,2.1221,2.1435,2.1661,2.1868,2.2124,2.2593,2.2774,2.3044,2.3483,2.3478,2.3486,2.3632,2.3567,2.3519,2.3482,2.3372,2.3075,2.2777,2.2289,2.1617,2.0809,2.0586,2.0391,1.9912,1.9843,1.9597,1.928,1.9091,1.8891,1.8643,1.8594,1.8393,1.8072,1.787,1.7578,1.7286,1.7,1.6618,1.6133,1.5503,1.4894,1.4256,1.3446,1.254,1.2131,1.1797,1.1434,1.1186,1.0925,1.0706,1.0631,1.0443,1.0223,0.996,0.9695,0.9506,0.9306,0.8943,0.8579,0.8388,0.8194,0.792,3.0406,2.9819,2.9232,2.8746,2.8284,2.8308,2.8287,2.8333,2.849,2.8522,2.8509,2.8514,2.8102,2.7606,2.6992,2.6467,2.5799,2.5099,2.4702,2.4649,2.4649,2.4649,2.462,2.462,2.4607,2.4591,2.4591,2.4591,2.4578,2.4563,2.4463,2.4321,2.4263,2.4076,2.3813,2.3645,2.3509,2.339,2.321,2.3047,2.2939,2.2927,2.2811,2.2634,2.2561,2.2237,2.1545,2.1451,2.1514,2.1596,2.1616,2.1721,2.1889,2.2068,2.2104,2.2001,2.2369,2.2565,2.2467,2.2723,2.3017,2.3339,2.3242,2.3445,2.3788,2.3888,2.4007,2.4127,2.4127,2.4007,2.3666,2.3482,2.2889,2.1502,2.1272,2.1002,2.0537,2.0303,2.0108,1.9715,1.9606,1.9448,1.9121,1.9002,1.8922,1.8732,1.8482,1.8313,1.8193,1.7902,1.746,1.6873,1.6257,1.5635,1.5014,1.4382,1.3484,1.2753,1.2412,1.207,1.1855,1.1632,1.1298,1.1149,1.0781,1.0556,1.0368,1.0105,0.9954,0.9734,0.9368,0.9076,0.8851,0.8678,0.8361,3.1366,3.0786,3.0206,2.9632,2.9052,2.8666,2.8509,2.8522,2.8587,2.8587,2.8587,2.8587,2.8275,2.7786,2.7501,2.7108,2.6467,2.5812,2.5283,2.4931,2.4863,2.4863,2.4863,2.4863,2.485,2.4863,2.4863,2.4863,2.4863,2.4863,2.4806,2.465,2.465,2.4536,2.4334,2.4189,2.406,2.4015,2.3855,2.3767,2.3721,2.3721,2.3607,2.3433,2.3433,2.3284,2.3058,2.2531,2.2267,2.2286,2.2298,2.2372,2.2549,2.2653,2.2604,2.2432,2.2511,2.2689,2.2747,2.2743,2.2963,2.3345,2.356,2.3758,2.3991,2.4328,2.455,2.461,2.461,2.449,2.4273,2.4225,2.3629,2.2365,2.2101,2.1825,2.1357,2.0982,2.0576,2.0186,2.0108,1.9951,1.9666,1.9548,1.9399,1.9289,1.9042,1.8843,1.8763,1.8594,1.8165,1.7565,1.6996,1.6384,1.5716,1.5238,1.4653,1.3854,1.3346,1.2879,1.2622,1.2298,1.2003,1.1595,1.1223,1.0962,1.0775,1.055,1.0406,1.0194,0.9876,0.9623,0.9351,0.9101,0.8805,3.1829,3.126,3.0663,3.0052,2.9461,2.8923,2.8651,2.8683,2.8748,2.878,2.8794,2.878,2.8589,2.8234,2.8001,2.7687,2.725,2.6471,2.5884,2.5473,2.5101,2.5018,2.5005,2.5005,2.5005,2.5005,2.4977,2.5005,2.5005,2.4977,2.4948,2.4892,2.4863,2.4835,2.4734,2.4578,2.4507,2.4478,2.4363,2.429,2.4276,2.4276,2.4205,2.4105,2.4076,2.4118,2.4047,2.3607,2.328,2.3177,2.3148,2.322,2.3318,2.33,2.3193,2.3017,2.2939,2.2948,2.2964,2.2844,2.2947,2.3367,2.3774,2.4111,2.4325,2.479,2.5087,2.5218,2.5135,2.5016,2.4838,2.473,2.4298,2.3593,2.3075,2.2654,2.2193,2.1662,2.1252,2.0944,2.076,2.0527,2.0294,2.002,1.9872,1.9794,1.9557,1.935,1.932,1.9231,1.8753,1.8273,1.7794,1.7155,1.6354,1.5978,1.5761,1.5117,1.4438,1.3934,1.3499,1.3062,1.2696,1.2224,1.1781,1.1558,1.1366,1.1074,1.0844,1.0627,1.0503,1.0162,0.9908,0.9571,0.9243,3.1879,3.1322,3.0738,3.0242,2.9704,2.9162,2.8986,2.8958,2.9049,2.9131,2.9131,2.9131,2.9117,2.8979,2.8578,2.8329,2.808,2.7195,2.6684,2.6363,2.5751,2.5227,2.5117,2.5103,2.5075,2.5033,2.5033,2.5005,2.5005,2.5005,2.5005,2.4977,2.4977,2.5005,2.4948,2.4863,2.4778,2.475,2.4664,2.4607,2.462,2.462,2.4607,2.4591,2.4578,2.4578,2.4549,2.4492,2.4376,2.416,2.4031,2.4044,2.4073,2.3982,2.3832,2.3616,2.3509,2.3373,2.3206,2.3056,2.3096,2.3391,2.3831,2.4241,2.4703,2.5251,2.5676,2.5793,2.5711,2.5535,2.5312,2.517,2.4981,2.4754,2.4043,2.3409,2.2852,2.2429,2.2128,2.1852,2.153,2.1195,2.1021,2.0644,2.0489,2.0342,2.0137,2.002,1.9902,1.9759,1.94,1.8957,1.8462,1.7824,1.7043,1.6773,1.6524,1.6114,1.5471,1.4974,1.4366,1.3861,1.3353,1.2886,1.2482,1.2218,1.2003,1.1781,1.1601,1.1477,1.1186,1.0783,1.0475,1.0238,0.9907,3.2478,3.2272,3.1694,3.1337,3.1068,3.0297,2.9892,2.9854,2.9596,2.9491,2.9491,2.9477,2.9477,2.9463,2.9324,2.924,2.9019,2.8432,2.811,2.7912,2.686,2.598,2.548,2.5369,2.5313,2.5174,2.5174,2.5076,2.5005,2.5018,2.5005,2.5005,2.5005,2.5005,2.4977,2.4977,2.4948,2.4948,2.4907,2.4892,2.4892,2.4892,2.4892,2.4892,2.4892,2.4892,2.4892,2.4892,2.4791,2.4492,2.4463,2.4463,2.4463,2.4419,2.4303,2.4131,2.406,2.394,2.3717,2.3509,2.3436,2.3475,2.4173,2.4638,2.48,2.5672,2.6099,2.6164,2.606,2.5921,2.5641,2.55,2.5324,2.5016,2.455,2.408,2.3666,2.3361,2.3065,2.2729,2.2478,2.2176,2.1863,2.1558,2.129,2.1031,2.0799,2.0634,2.0557,2.045,2.0149,1.9482,1.8945,1.8349,1.7843,1.7555,1.726,1.6959,1.6499,1.6017,1.533,1.4653,1.415,1.3608,1.3317,1.3055,1.2886,1.2673,1.2526,1.2342,1.2068,1.1744,1.1412,1.1114,1.0747,3.3185,3.3129,3.2512,3.226,3.2126,3.1152,3.074,3.0644,3.0213,3.0066,3.0083,3.0052,3.0052,3.0068,3.0052,3.0052,3.0013,2.9471,2.9229,2.9044,2.791,2.6747,2.5924,2.5674,2.5578,2.5425,2.5397,2.5355,2.5216,2.5229,2.5188,2.5229,2.5216,2.5229,2.5229,2.5216,2.5216,2.5216,2.5188,2.5188,2.5216,2.5216,2.5216,2.5188,2.5188,2.5188,2.5229,2.5229,2.5075,2.4835,2.4763,2.4763,2.4763,2.4706,2.4649,2.4507,2.4436,2.4347,2.4216,2.3998,2.3868,2.3957,2.4684,2.5128,2.5435,2.6207,2.6803,2.6714,2.6611,2.6324,2.6013,2.5816,2.5606,2.5359,2.5076,2.4766,2.4345,2.4091,2.3897,2.3629,2.3372,2.3113,2.2777,2.2494,2.2166,2.1863,2.1596,2.1405,2.129,2.1135,2.0827,2.0146,1.9629,1.9148,1.8572,1.8183,1.7978,1.7672,1.7295,1.689,1.6228,1.5471,1.4974,1.451,1.4178,1.389,1.3724,1.355,1.3404,1.323,1.2999,1.2764,1.2431,1.2089,1.173,3.3934,3.3842,3.3331,3.3121,3.2963,3.2046,3.1647,3.1418,3.1064,3.0835,3.0822,3.0747,3.0732,3.0881,3.0703,3.0748,3.0837,3.0382,3.0188,2.9819,2.8925,2.7792,2.6782,2.6196,2.5975,2.5825,2.5784,2.5716,2.5619,2.5564,2.555,2.5536,2.5522,2.5522,2.5536,2.555,2.555,2.555,2.5536,2.5536,2.5536,2.5536,2.5536,2.5536,2.5536,2.5536,2.555,2.5522,2.5397,2.509,2.5061,2.5075,2.5047,2.4934,2.4905,2.4863,2.482,2.4734,2.4649,2.4478,2.4445,2.4638,2.5375,2.5957,2.622,2.7033,2.7523,2.7335,2.7222,2.6905,2.6496,2.6164,2.5933,2.5711,2.5641,2.5407,2.5028,2.4706,2.4562,2.4526,2.4189,2.3934,2.3677,2.3372,2.3086,2.2804,2.2542,2.2392,2.213,2.1901,2.1413,2.0725,2.0305,1.999,1.9397,1.8798,1.8586,1.8351,1.7978,1.7535,1.6925,1.6289,1.5798,1.5409,1.5046,1.4796,1.4589,1.441,1.4302,1.4142,1.3971,1.3749,1.3472,1.3175,1.2819,3.4677,3.4662,3.453,3.4471,3.4387,3.3812,3.3288,3.2756,3.2287,3.1797,3.1424,3.1306,3.1335,3.1364,3.1335,3.1379,3.148,3.1327,3.1159,3.0754,3.0493,2.9768,2.8669,2.7477,2.6556,2.6449,2.6353,2.6218,2.6058,2.6045,2.5935,2.5839,2.5907,2.5825,2.5853,2.588,2.5825,2.5825,2.5839,2.595,2.6006,2.5965,2.5965,2.5965,2.5937,2.5867,2.5798,2.5702,2.5619,2.555,2.5522,2.5563,2.5424,2.5368,2.5382,2.5368,2.534,2.5243,2.5103,2.5059,2.518,2.5524,2.6152,2.6789,2.7287,2.7889,2.8157,2.7954,2.7776,2.7497,2.6994,2.6679,2.644,2.6233,2.6094,2.599,2.5665,2.5277,2.5016,2.4909,2.4778,2.4538,2.4345,2.4236,2.397,2.3703,2.3519,2.3383,2.3055,2.2659,2.2049,2.139,2.0946,2.0599,2.0079,1.9518,1.9287,1.9054,1.8687,1.8307,1.7706,1.7201,1.6742,1.6324,1.5947,1.57,1.5444,1.5365,1.5259,1.5081,1.4911,1.468,1.4418,1.4135,1.3971,3.564,3.5655,3.5655,3.564,3.555,3.5057,3.4605,3.4121,3.3304,3.2828,3.2492,3.2131,3.1964,3.202,3.1964,3.1992,3.212,3.2219,3.2133,3.1832,3.1462,3.101,3.0544,2.9267,2.8259,2.7886,2.7515,2.7295,2.7062,2.6777,2.6563,2.6457,2.6472,2.6525,2.6472,2.6486,2.6712,2.6957,2.6877,2.695,2.725,2.7238,2.7211,2.7225,2.7211,2.7211,2.7253,2.71,2.7031,2.6989,2.6835,2.6455,2.6007,2.5909,2.5909,2.5923,2.5923,2.5701,2.5493,2.5602,2.5876,2.6147,2.6941,2.7489,2.7968,2.8488,2.8661,2.8463,2.832,2.8157,2.7663,2.7377,2.7108,2.6858,2.6667,2.6508,2.6233,2.5781,2.5442,2.5359,2.523,2.5028,2.4885,2.4814,2.467,2.4334,2.4164,2.4007,2.3797,2.3379,2.2766,2.2158,2.1632,2.1174,2.0697,2.028,1.9977,1.9715,1.9419,1.9077,1.8677,1.8172,1.774,1.7226,1.6682,1.6517,1.6333,1.6289,1.614,1.5974,1.5762,1.5559,1.534,1.5128,1.5008,3.6585,3.66,3.6585,3.6585,3.6508,3.5952,3.5644,3.5336,3.4392,3.3851,3.3622,3.2922,3.2665,3.2605,3.2508,3.2547,3.2672,3.2839,3.2803,3.2725,3.2213,3.1942,3.1626,3.1023,3.0437,2.9865,2.9067,2.8662,2.8348,2.7825,2.7562,2.7428,2.724,2.7199,2.7199,2.7388,2.7654,2.8068,2.8184,2.8353,2.875,2.8755,2.8672,2.8658,2.8643,2.8629,2.8601,2.8505,2.8523,2.8596,2.8397,2.7797,2.717,2.6688,2.6675,2.6703,2.6747,2.658,2.6357,2.6482,2.6788,2.6813,2.7688,2.8355,2.8649,2.8969,2.9111,2.9071,2.8931,2.8771,2.8481,2.8203,2.7908,2.7663,2.7351,2.7129,2.6871,2.644,2.6186,2.5746,2.5676,2.5535,2.5371,2.523,2.5123,2.4992,2.4814,2.4611,2.4411,2.3967,2.3294,2.2604,2.201,2.1621,2.1145,2.0924,2.0592,2.0431,2.015,1.9846,1.954,1.9177,1.8643,1.791,1.7442,1.727,1.7141,1.7028,1.689,1.6751,1.6542,1.6333,1.6193,1.6088,1.5983,3.6908,3.6908,3.6923,3.6908,3.6892,3.6768,3.644,3.5957,3.563,3.4898,3.3961,3.3711,3.3294,3.301,3.2827,3.2881,3.3,3.3123,3.3203,3.3176,3.2876,3.2765,3.2645,3.2398,3.2222,3.194,3.0909,3.0097,2.9722,2.9194,2.8799,2.8596,2.8168,2.7926,2.8107,2.8359,2.8767,2.913,2.9331,2.9609,2.9763,2.9729,2.9647,2.9647,2.9677,2.9632,2.9503,2.9267,2.9085,2.9057,2.8777,2.8827,2.88,2.8354,2.8011,2.7854,2.7854,2.774,2.757,2.7755,2.821,2.8607,2.8903,2.9258,2.9584,2.9797,2.9713,2.962,2.9481,2.9369,2.9153,2.8912,2.8688,2.843,2.8189,2.7993,2.7809,2.751,2.7061,2.6483,2.6289,2.606,2.5886,2.5711,2.5653,2.5583,2.5512,2.5336,2.5122,2.4467,2.3639,2.2952,2.2283,2.1911,2.1572,2.1411,2.1198,2.1115,2.0892,2.0614,2.0334,2.0096,1.9573,1.8911,1.8351,1.8056,1.7886,1.7794,1.7623,1.7442,1.727,1.7107,1.6994,1.6915,1.6821,3.7241,3.7257,3.7241,3.7271,3.7271,3.7255,3.7083,3.6753,3.6362,3.5828,3.5122,3.4474,3.3956,3.3583,3.3222,3.3165,3.3203,3.3256,3.3293,3.3282,3.3229,3.3203,3.3203,3.3123,3.3112,3.2897,3.2227,3.1524,3.1031,3.0356,3.0037,2.9878,2.9529,2.9406,2.9452,2.9745,3.0084,3.0351,3.0626,3.0899,3.1175,3.1085,3.1031,3.1019,3.1019,3.1022,3.0912,3.0762,3.061,3.0498,3.0299,3.0348,3.0321,3.0132,2.9594,2.9088,2.893,2.8742,2.8555,2.8598,2.8942,2.9126,2.944,2.9768,2.9981,3.0036,3.0066,2.9974,2.9913,2.982,2.9713,2.9557,2.9387,2.917,2.8949,2.8789,2.8629,2.8449,2.7947,2.7351,2.6994,2.6688,2.6336,2.6233,2.6176,2.6164,2.6164,2.6013,2.5791,2.493,2.4034,2.3385,2.2723,2.2375,2.2092,2.1925,2.1808,2.1714,2.1569,2.1316,2.1094,2.0848,2.0516,2.0031,1.9507,1.8988,1.8654,1.8553,1.8327,1.8158,1.8046,1.791,1.7808,1.775,1.7681,3.751,3.751,3.751,3.751,3.751,3.751,3.751,3.7399,3.6866,3.6535,3.6219,3.5142,3.4446,3.4146,3.3656,3.3293,3.3293,3.3293,3.3293,3.3309,3.3282,3.3293,3.3293,3.3293,3.3282,3.324,3.3145,3.2919,3.2154,3.143,3.1158,3.0992,3.0976,3.0867,3.0779,3.0904,3.143,3.1691,3.1971,3.2217,3.2505,3.2563,3.248,3.248,3.2523,3.2379,3.2176,3.2007,3.1868,3.1771,3.166,3.162,3.1665,3.168,3.1197,3.0364,3.0075,2.9595,2.9435,2.9465,2.9798,2.9825,3.0096,3.0267,3.031,3.0355,3.0264,3.0233,3.0203,3.0203,3.0158,3.0007,2.9901,2.9808,2.9623,2.9449,2.9355,2.9184,2.8994,2.8436,2.7848,2.743,2.7162,2.7007,2.6973,2.6905,2.6905,2.6688,2.6357,2.5357,2.4509,2.3832,2.3262,2.2893,2.2635,2.2463,2.2347,2.2285,2.2142,2.1894,2.1757,2.1588,2.1262,2.0944,2.0549,2.002,1.9661,1.9309,1.9187,1.9021,1.8877,1.8744,1.8654,1.8586,1.8553,3.751,3.751,3.751,3.751,3.751,3.751,3.751,3.7494,3.7383,3.6975,3.6498,3.566,3.4932,3.4268,3.362,3.3351,3.3293,3.3319,3.3346,3.3346,3.3346,3.3346,3.3293,3.3293,3.3346,3.3346,3.3319,3.3293,3.2909,3.2357,3.2104,3.2009,3.1549,3.1196,3.1454,3.1832,3.2145,3.2299,3.2657,3.2853,3.2866,3.2854,3.2827,3.287,3.287,3.2827,3.28,3.266,3.252,3.2492,3.2355,3.2299,3.2299,3.2315,3.2272,3.1929,3.1531,3.1071,3.0879,3.0763,3.0734,3.0676,3.0881,3.0969,3.0866,3.0776,3.0717,3.0702,3.0612,3.0552,3.0522,3.0357,3.0296,3.0235,3.0127,3.0036,2.9943,2.973,2.956,2.9435,2.8853,2.8436,2.8091,2.7927,2.7796,2.7709,2.7577,2.7351,2.6912,2.591,2.4809,2.4106,2.3773,2.3419,2.3258,2.3047,2.2909,2.2878,2.2665,2.2482,2.2316,2.218,2.2068,2.1745,2.1388,2.1028,2.0613,2.0291,2.0074,1.9911,1.9748,1.9627,1.9473,1.9473,1.9495,3.7628,3.751,3.751,3.751,3.751,3.7569,3.7628,3.7612,3.7671,3.7555,3.7144,3.6536,3.5657,3.4622,3.3857,3.3529,3.3529,3.3529,3.3513,3.3529,3.3529,3.3529,3.3529,3.3529,3.3529,3.3529,3.3529,3.3555,3.336,3.316,3.285,3.2797,3.255,3.243,3.2276,3.2677,3.2835,3.2935,3.3056,3.316,3.3123,3.3123,3.3134,3.3214,3.3229,3.3229,3.3187,3.3171,3.3049,3.2996,3.2931,3.2888,3.2904,3.2904,3.2877,3.2742,3.2394,3.2033,3.1709,3.1553,3.1423,3.1336,3.1336,3.1278,3.1205,3.1146,3.1073,3.0955,3.0925,3.0881,3.0881,3.0791,3.0762,3.0717,3.0582,3.0536,3.0431,3.0205,3.0038,2.9976,2.9898,2.9481,2.9058,2.8835,2.861,2.8384,2.8247,2.8076,2.7516,2.663,2.5472,2.4249,2.409,2.3998,2.3855,2.3708,2.3526,2.3407,2.321,2.303,2.2878,2.2744,2.2684,2.2592,2.2334,2.1951,2.1545,2.1146,2.0796,2.0711,2.0646,2.0485,2.0388,2.0442,2.041,3.7905,3.77,3.7642,3.7628,3.7655,3.7759,3.7847,3.7876,3.7992,3.802,3.7764,3.707,3.599,3.4962,3.4166,3.3797,3.3797,3.3813,3.3797,3.3797,3.3813,3.3813,3.3813,3.3797,3.3813,3.3813,3.3797,3.3797,3.3736,3.3585,3.3449,3.3398,3.3276,3.3297,3.3351,3.3361,3.3329,3.3345,3.3377,3.3398,3.3398,3.3382,3.345,3.3503,3.3539,3.3555,3.3539,3.3529,3.3477,3.3424,3.3372,3.3346,3.3372,3.3346,3.3319,3.3214,3.2996,3.2792,3.2425,3.2135,3.1894,3.1781,3.1709,3.1752,3.1653,3.1567,3.1509,3.1438,3.1307,3.1278,3.1249,3.122,3.1176,3.1117,3.1043,3.0999,3.091,3.0717,3.0568,3.0522,3.0462,3.0431,3.0052,2.9775,2.9449,2.9153,2.8939,2.8743,2.8034,2.7188,2.6166,2.4922,2.4679,2.4595,2.4494,2.4363,2.416,2.3998,2.3793,2.3616,2.3514,2.3424,2.3365,2.3275,2.3168,2.2896,2.2476,2.1963,2.1486,2.1423,2.1348,2.1328,2.1285,2.1316,2.119,3.8363,3.8323,3.802,3.796,3.8059,3.8071,3.8189,3.8319,3.8363,3.8391,3.8197,3.7015,3.6086,3.5202,3.4628,3.4207,3.4101,3.4075,3.4109,3.4126,3.4092,3.4151,3.4159,3.4176,3.4151,3.4151,3.4184,3.4176,3.4101,3.4159,3.3908,3.3694,3.372,3.3668,3.3668,3.3668,3.3684,3.3684,3.3668,3.3684,3.3684,3.3668,3.3684,3.371,3.3694,3.3668,3.371,3.3761,3.3761,3.372,3.372,3.3736,3.3745,3.3745,3.3694,3.3642,3.3513,3.3356,3.3145,3.2699,3.2425,3.2342,3.2342,3.2315,3.2216,3.2176,3.2135,3.2051,3.1881,3.1768,3.1682,3.1596,3.1625,3.1581,3.1552,3.1437,3.1365,3.1263,3.1117,3.1043,3.0984,3.091,3.0851,3.0507,3.0113,2.9747,2.9442,2.9264,2.8391,2.7543,2.6767,2.588,2.5452,2.5286,2.516,2.5005,2.4878,2.4708,2.4536,2.435,2.4234,2.4147,2.406,2.3884,2.3767,2.3573,2.3378,2.2914,2.2488,2.2204,2.2061,2.1956,2.1819,2.1726,2.1588,3.8969,3.898,3.8871,3.8678,3.8427,3.8595,3.8694,3.875,3.886,3.8914,3.8849,3.7847,3.7025,3.6319,3.5605,3.4997,3.4684,3.4667,3.4691,3.4723,3.4747,3.4754,3.4778,3.4778,3.4802,3.4778,3.4754,3.4778,3.4802,3.4738,3.473,3.4561,3.4234,3.3975,3.3933,3.3984,3.3975,3.3975,3.3949,3.3965,3.3949,3.3949,3.3975,3.4075,3.4075,3.4126,3.4201,3.4201,3.4201,3.4201,3.4159,3.4151,3.4151,3.4151,3.4101,3.4066,3.3924,3.3838,3.3684,3.3261,3.2985,3.2958,3.2958,3.2904,3.2792,3.2726,3.2629,3.2532,3.2449,3.2394,3.2367,3.2272,3.2216,3.216,3.2064,3.1951,3.1838,3.1768,3.1625,3.1538,3.1423,3.1292,3.1248,3.1176,3.0747,3.0387,3.0072,2.9675,2.8848,2.808,2.7371,2.6679,2.6215,2.5893,2.5757,2.5674,2.5591,2.5411,2.5244,2.5076,2.4893,2.485,2.4736,2.4551,2.4394,2.4292,2.4089,2.3796,2.3424,2.2975,2.2684,2.2512,2.2347,2.2149,2.2056,3.9592,3.967,3.9747,3.947,3.9034,3.9185,3.9292,3.9345,3.9435,3.947,3.942,3.8737,3.817,3.7519,3.6602,3.6002,3.5566,3.5385,3.5314,3.531,3.5339,3.5391,3.5413,3.5413,3.5391,3.5413,3.5413,3.5391,3.5391,3.5413,3.5374,3.5191,3.4927,3.469,3.4456,3.4431,3.4431,3.4431,3.4407,3.4399,3.4423,3.4374,3.4374,3.4472,3.4472,3.4497,3.457,3.457,3.4594,3.457,3.457,3.4562,3.4562,3.4521,3.4448,3.4374,3.4275,3.4176,3.4,3.3684,3.3424,3.3356,3.3382,3.333,3.3261,3.3235,3.3219,3.3177,3.3124,3.3124,3.3097,3.298,3.2861,3.2807,3.2687,3.2578,3.2425,3.2342,3.216,3.202,3.1908,3.1851,3.1724,3.1653,3.1263,3.0896,3.0643,3.0218,2.9551,2.8842,2.8178,2.7515,2.6913,2.6605,2.6313,2.6165,2.6015,2.5893,2.5757,2.5674,2.5564,2.5481,2.5397,2.5244,2.5118,2.5006,2.4865,2.4694,2.4205,2.3632,2.3365,2.3125,2.2909,2.2744,2.2622,4.028,4.033,4.0458,4.0279,3.9884,3.9875,3.9961,4.0045,4.007,4.007,3.9986,3.936,3.9005,3.8582,3.7466,3.6823,3.6474,3.6044,3.5783,3.5805,3.5876,3.5885,3.5885,3.5924,3.5902,3.5907,3.5902,3.5902,3.5885,3.5902,3.5885,3.5885,3.5732,3.5509,3.5201,3.5178,3.5178,3.5155,3.5078,3.5048,3.5024,3.493,3.4883,3.4883,3.4906,3.493,3.4954,3.4954,3.4954,3.4906,3.4835,3.4804,3.478,3.4683,3.4594,3.4586,3.4562,3.4497,3.4448,3.3991,3.3797,3.3771,3.3797,3.3745,3.3736,3.3787,3.3848,3.3739,3.3806,3.3832,3.3771,3.3658,3.3513,3.3435,3.3303,3.3198,3.3076,3.2953,3.2792,3.2683,3.2586,3.2504,3.2342,3.2135,3.1754,3.1409,3.1161,3.0734,3.0219,2.9456,2.8781,2.8228,2.7574,2.7045,2.6738,2.6618,2.6472,2.6353,2.626,2.6165,2.6084,2.5975,2.5921,2.5839,2.5729,2.5578,2.5605,2.5619,2.5034,2.4494,2.4018,2.3725,2.3526,2.336,2.3258,4.0745,4.084,4.0894,4.0871,4.0741,4.0631,4.0583,4.0631,4.0631,4.0631,4.0597,4.0323,3.9911,3.9277,3.8517,3.7729,3.7207,3.659,3.6276,3.6276,3.6343,3.6423,3.6423,3.6385,3.6423,3.6423,3.6423,3.6402,3.6423,3.6385,3.6423,3.6423,3.6343,3.6135,3.5793,3.5666,3.5666,3.5644,3.5611,3.5577,3.5538,3.5424,3.5373,3.5373,3.5373,3.5373,3.5373,3.5373,3.5327,3.5241,3.5188,3.5118,3.5111,3.5018,3.5034,3.5011,3.4987,3.4851,3.4763,3.4546,3.4423,3.4308,3.4226,3.4201,3.4267,3.4275,3.43,3.43,3.43,3.43,3.425,3.4126,3.4009,3.4,3.3924,3.3806,3.3713,3.3626,3.3523,3.3445,3.3366,3.3087,3.2846,3.278,3.2453,3.2148,3.1923,3.1567,3.1063,3.0039,2.9211,2.8756,2.8225,2.7584,2.7155,2.7037,2.6881,2.6765,2.6686,2.6606,2.6527,2.6433,2.6326,2.6245,2.6192,2.6152,2.6084,2.6002,2.5811,2.5384,2.4879,2.441,2.4118,2.4015,2.3914,4.1123,4.121,4.1256,4.129,4.1277,4.1088,4.1012,4.0995,4.0995,4.0995,4.0995,4.0995,4.0753,4.0112,3.9437,3.8711,3.7988,3.7349,3.6692,3.6696,3.6745,3.6766,3.6768,3.6788,3.6768,3.6806,3.6806,3.6806,3.6768,3.6788,3.6768,3.6768,3.6803,3.6591,3.6329,3.6262,3.6195,3.6156,3.611,3.6041,3.6002,3.5937,3.5849,3.5849,3.5849,3.5844,3.5827,3.5805,3.5778,3.5689,3.56,3.5532,3.5481,3.5452,3.5429,3.5383,3.5321,3.5211,3.5165,3.5142,3.5008,3.4913,3.4763,3.4659,3.4659,3.4683,3.4659,3.4683,3.4683,3.4683,3.4618,3.4521,3.4448,3.4423,3.4349,3.4259,3.4184,3.4084,3.4034,3.4,3.3899,3.3626,3.3403,3.3351,3.3219,3.2938,3.2695,3.2339,3.1886,3.077,2.9853,2.9448,2.877,2.8016,2.76,2.7488,2.7335,2.717,2.7093,2.7052,2.6922,2.6803,2.6698,2.6618,2.6606,2.6553,2.6447,2.6326,2.615,2.5988,2.5688,2.5217,2.4794,2.4652,2.4595,4.1403,4.1426,4.156,4.1582,4.156,4.13,4.1209,4.1209,4.1209,4.1192,4.1232,4.1226,4.1122,4.1018,4.0396,3.9682,3.892,3.8238,3.756,3.7056,3.6996,3.6983,3.6968,3.695,3.6948,3.6968,3.695,3.6928,3.6987,3.6948,3.6948,3.6968,3.6948,3.6853,3.6791,3.6708,3.6626,3.6568,3.6485,3.6423,3.6402,3.6339,3.6276,3.6255,3.6237,3.6255,3.6233,3.6212,3.6187,3.6101,3.5954,3.5883,3.5795,3.5706,3.5644,3.5605,3.5627,3.5627,3.5627,3.5605,3.5605,3.5492,3.5258,3.5048,3.497,3.5041,3.5001,3.4994,3.4994,3.497,3.4906,3.4835,3.4739,3.4691,3.4643,3.4594,3.4546,3.4497,3.4448,3.4374,3.43,3.4134,3.3984,3.3908,3.3832,3.3713,3.3465,3.3335,3.2693,3.1425,3.0654,3.0289,2.9508,2.8409,2.8097,2.802,2.7785,2.761,2.7514,2.7463,2.7335,2.7233,2.7167,2.7115,2.7041,2.6963,2.6791,2.6671,2.6563,2.6377,2.6285,2.5934,2.5453,2.5328,2.5245,4.1538,4.156,4.1565,4.1604,4.1582,4.152,4.1493,4.1475,4.1475,4.1475,4.1493,4.1475,4.1453,4.1405,4.071,4.0307,3.9606,3.8821,3.812,3.7652,3.7266,3.7075,3.6989,3.6989,3.6989,3.6989,3.6989,3.6989,3.6989,3.6989,3.6989,3.697,3.6989,3.6989,3.6968,3.6928,3.6908,3.6869,3.6768,3.6728,3.6687,3.6626,3.6585,3.6585,3.6585,3.6564,3.6564,3.6523,3.6482,3.636,3.6318,3.6276,3.6152,3.611,3.611,3.6088,3.611,3.611,3.6092,3.611,3.6088,3.6067,3.5915,3.5717,3.5515,3.5373,3.5333,3.5281,3.5274,3.5228,3.5182,3.5135,3.5088,3.5024,3.4977,3.493,3.4883,3.4835,3.4787,3.4715,3.4643,3.457,3.4448,3.4399,3.4308,3.4325,3.425,3.4134,3.357,3.2308,3.1559,3.1207,3.0422,2.9366,2.8824,2.8673,2.8332,2.8085,2.81,2.8036,2.7876,2.7801,2.768,2.7564,2.7463,2.7284,2.7104,2.7023,2.6993,2.6997,2.6867,2.6498,2.6165,2.6015,2.5838,4.1604,4.1604,4.1604,4.1604,4.1604,4.1604,4.1604,4.1604,4.1604,4.1604,4.1604,4.1604,4.1604,4.1529,4.1148,4.0762,4.0358,3.9656,3.8848,3.7898,3.7657,3.7306,3.713,3.7007,3.6989,3.6989,3.6989,3.6989,3.6989,3.6989,3.6989,3.6989,3.6989,3.6989,3.697,3.697,3.697,3.6968,3.6928,3.6871,3.6849,3.6829,3.6826,3.6806,3.6806,3.6806,3.6788,3.6786,3.6687,3.6609,3.6606,3.6544,3.6461,3.6461,3.6461,3.644,3.644,3.644,3.644,3.6423,3.6444,3.6444,3.6444,3.6297,3.6084,3.591,3.5734,3.5577,3.5549,3.5498,3.5452,3.5429,3.5412,3.5412,3.5367,3.5297,3.5251,3.5182,3.5111,3.5065,3.4994,3.4923,3.4875,3.4811,3.4811,3.4828,3.4828,3.4787,3.425,3.3283,3.2628,3.2281,3.139,3.0417,2.9966,2.9659,2.9618,2.9434,2.918,2.9042,2.8679,2.8336,2.818,2.8008,2.785,2.7685,2.756,2.7509,2.7494,2.7458,2.7423,2.7152,2.6814,2.658,2.6379,4.1604,4.1604,4.1604,4.1604,4.1604,4.1604,4.1604,4.1604,4.1626,4.1587,4.1587,4.1604,4.1604,4.1569,4.1451,4.1192,4.0844,4.0355,3.9617,3.8292,3.8104,3.7787,3.7418,3.7062,3.7085,3.7046,3.7046,3.7068,3.7046,3.7066,3.7066,3.7009,3.7046,3.7066,3.7068,3.7085,3.7085,3.7066,3.7066,3.7009,3.697,3.697,3.6989,3.697,3.697,3.697,3.6948,3.6908,3.6811,3.6788,3.6748,3.6725,3.6725,3.6725,3.6705,3.6705,3.6705,3.6705,3.6725,3.6725,3.6687,3.6705,3.6705,3.6643,3.6482,3.6255,3.6041,3.5932,3.5905,3.5822,3.5778,3.5778,3.5756,3.5734,3.5684,3.5577,3.5464,3.5396,3.5327,3.5297,3.5274,3.5228,3.5228,3.5165,3.5165,3.5251,3.5251,3.5251,3.4888,3.4086,3.3618,3.3223,3.225,3.1445,3.1345,3.1117,3.1174,3.0983,3.0513,3.0053,2.9706,2.921,2.8662,2.8487,2.831,2.8189,2.8052,2.8027,2.7953,2.791,2.7835,2.78,2.7524,2.7233,2.6948,4.1604,4.1604,4.1604,4.1604,4.1604,4.1604,4.167,4.1736,4.1776,4.1675,4.1626,4.1604,4.1604,4.1626,4.1714,4.1564,4.1427,4.1015,4.0524,3.9679,3.906,3.841,3.8001,3.7488,3.7293,3.722,3.722,3.722,3.722,3.722,3.722,3.722,3.7239,3.7222,3.7241,3.7259,3.7259,3.7259,3.7241,3.7184,3.7106,3.7009,3.6989,3.7007,3.7007,3.7027,3.7007,3.697,3.695,3.693,3.693,3.6928,3.6946,3.6946,3.6928,3.6928,3.6928,3.6946,3.6946,3.6946,3.6928,3.6928,3.6908,3.6849,3.6748,3.6544,3.6398,3.6335,3.6233,3.6191,3.6148,3.6127,3.6105,3.6062,3.6014,3.5866,3.5711,3.5644,3.5554,3.5532,3.5549,3.5549,3.5549,3.5532,3.5532,3.5509,3.5509,3.5487,3.5418,3.4894,3.4416,3.3905,3.2988,3.2374,3.2429,3.2483,3.2495,3.2222,3.1764,3.1275,3.0731,3.0057,2.9411,2.9045,2.8834,2.8724,2.8614,2.8543,2.8472,2.8407,2.8374,2.835,2.822,2.7949,2.76,4.1776,4.1776,4.1776,4.1776,4.1776,4.1776,4.1837,4.1902,4.1909,4.1909,4.1823,4.1797,4.1776,4.1776,4.1862,4.1931,4.1881,4.1587,4.1194,4.0651,3.9943,3.9144,3.8556,3.7986,3.7628,3.7485,3.7429,3.7411,3.7429,3.7429,3.7429,3.7484,3.7485,3.7503,3.7522,3.754,3.754,3.7522,3.7504,3.7449,3.7318,3.7241,3.7143,3.7124,3.7143,3.7143,3.7143,3.7143,3.7143,3.7143,3.7143,3.7143,3.7124,3.7124,3.7124,3.7124,3.7143,3.7143,3.7143,3.7143,3.7143,3.7143,3.7126,3.7085,3.7085,3.6908,3.6728,3.6647,3.6541,3.644,3.644,3.644,3.644,3.6398,3.6314,3.6191,3.6084,3.6002,3.5958,3.5958,3.5958,3.5958,3.5958,3.5975,3.5937,3.5937,3.5893,3.5844,3.5756,3.5627,3.5183,3.4762,3.3929,3.3705,3.3945,3.3885,3.3775,3.3418,3.2964,3.2154,3.1414,3.0733,3.0122,2.9756,2.9466,2.9309,2.9219,2.9127,2.9074,2.902,2.8967,2.892,2.8771,2.8629,2.8374,4.2072,4.2051,4.2051,4.2051,4.2048,4.2069,4.2072,4.2094,4.2163,4.219,4.2228,4.2181,4.2115,4.2051,4.2094,4.2121,4.2151,4.2149,4.1873,4.1486,4.0736,4.0038,3.9265,3.8545,3.8186,3.7864,3.7739,3.7703,3.7667,3.7685,3.7721,3.7757,3.7792,3.7792,3.7862,3.7879,3.7879,3.7879,3.7897,3.7879,3.7757,3.7541,3.7429,3.7372,3.7372,3.7372,3.7354,3.7353,3.7353,3.7353,3.7353,3.7334,3.7334,3.7334,3.7334,3.7334,3.7353,3.7353,3.7334,3.7334,3.7334,3.7353,3.7353,3.7353,3.7336,3.726,3.7105,3.6987,3.6866,3.6766,3.6766,3.6725,3.6725,3.6684,3.6564,3.6502,3.6402,3.6343,3.6343,3.6343,3.6322,3.6322,3.6322,3.636,3.6339,3.6339,3.6318,3.6272,3.6187,3.6041,3.5774,3.5579,3.5198,3.5161,3.5215,3.4984,3.4668,3.4526,3.4001,3.2997,3.2087,3.1417,3.0838,3.0391,3.0124,2.9852,2.9766,2.97,2.9655,2.956,2.9493,2.938,2.925,2.9113,2.9067,4.2412,4.2333,4.2315,4.231,4.2267,4.2292,4.2391,4.249,4.2554,4.2634,4.271,4.271,4.2631,4.2353,4.2514,4.2575,4.2595,4.2671,4.2729,4.2499,4.1687,4.0998,4.0163,3.9179,3.8799,3.8407,3.8069,3.8,3.8018,3.8018,3.8069,3.8172,3.8189,3.8204,3.8269,3.8267,3.8267,3.8267,3.8267,3.8267,3.8186,3.7983,3.7756,3.7703,3.7703,3.7703,3.7685,3.7649,3.7631,3.7613,3.7594,3.7576,3.7576,3.7577,3.7558,3.7577,3.7577,3.7594,3.7595,3.7595,3.7631,3.7685,3.7667,3.7649,3.7649,3.7649,3.7522,3.7448,3.7298,3.7069,3.7031,3.6987,3.6948,3.6829,3.6748,3.6725,3.6647,3.6647,3.6647,3.6626,3.6626,3.6606,3.6606,3.6606,3.6623,3.6602,3.6582,3.6541,3.644,3.6377,3.6276,3.6191,3.6105,3.5849,3.5571,3.5526,3.5318,3.5278,3.5029,3.4068,3.3101,3.215,3.1566,3.1084,3.0598,3.0244,3.0216,3.0194,3.0065,2.9957,2.993,2.9826,2.97,2.9611,2.9566]}]]